﻿<?xml version="1.0" encoding="utf-8"?><gpx creator="Garmin Desktop App" version="1.1" xsi:schemaLocation="http://www.topografix.com/GPX/1/1 http://www.topografix.com/GPX/1/1/gpx.xsd http://www.garmin.com/xmlschemas/WaypointExtension/v1 http://www8.garmin.com/xmlschemas/WaypointExtensionv1.xsd http://www.garmin.com/xmlschemas/TrackPointExtension/v1 http://www.garmin.com/xmlschemas/TrackPointExtensionv1.xsd http://www.garmin.com/xmlschemas/GpxExtensions/v3 http://www8.garmin.com/xmlschemas/GpxExtensionsv3.xsd http://www.garmin.com/xmlschemas/ActivityExtension/v1 http://www8.garmin.com/xmlschemas/ActivityExtensionv1.xsd http://www.garmin.com/xmlschemas/AdventuresExtensions/v1 http://www8.garmin.com/xmlschemas/AdventuresExtensionv1.xsd http://www.garmin.com/xmlschemas/PressureExtension/v1 http://www.garmin.com/xmlschemas/PressureExtensionv1.xsd http://www.garmin.com/xmlschemas/TripExtensions/v1 http://www.garmin.com/xmlschemas/TripExtensionsv1.xsd http://www.garmin.com/xmlschemas/TripMetaDataExtensions/v1 http://www.garmin.com/xmlschemas/TripMetaDataExtensionsv1.xsd http://www.garmin.com/xmlschemas/ViaPointTransportationModeExtensions/v1 http://www.garmin.com/xmlschemas/ViaPointTransportationModeExtensionsv1.xsd http://www.garmin.com/xmlschemas/CreationTimeExtensions/v1 http://www.garmin.com/xmlschemas/CreationTimeExtensionsv1.xsd" xmlns="http://www.topografix.com/GPX/1/1" xmlns:xsi="http://www.w3.org/2001/XMLSchema-instance" xmlns:wptx1="http://www.garmin.com/xmlschemas/WaypointExtension/v1" xmlns:gpxtrx="http://www.garmin.com/xmlschemas/GpxExtensions/v3" xmlns:gpxtpx="http://www.garmin.com/xmlschemas/TrackPointExtension/v1" xmlns:gpxx="http://www.garmin.com/xmlschemas/GpxExtensions/v3" xmlns:trp="http://www.garmin.com/xmlschemas/TripExtensions/v1" xmlns:adv="http://www.garmin.com/xmlschemas/AdventuresExtensions/v1" xmlns:prs="http://www.garmin.com/xmlschemas/PressureExtension/v1" xmlns:tmd="http://www.garmin.com/xmlschemas/TripMetaDataExtensions/v1" xmlns:vptm="http://www.garmin.com/xmlschemas/ViaPointTransportationModeExtensions/v1" xmlns:ctx="http://www.garmin.com/xmlschemas/CreationTimeExtension/v1">

  <metadata>
    <link href="http://www.garmin.com">
      <text>Garmin International</text>
    </link>
    <time>2014-01-13T09:34:54Z</time>
    <bounds maxlat="45.646180026233196" maxlon="7.909256285056472" minlat="45.632797228172421" minlon="7.878622524440289" />
  </metadata>

  <trk>
    <name>punta leretta2014-01-12</name>
    <extensions>
      <gpxx:TrackExtension>
        <gpxx:DisplayColor>Yellow</gpxx:DisplayColor>
      </gpxx:TrackExtension>
    </extensions>
    <trkseg>
      <trkpt lat="45.640513356775045" lon="7.879622904583812">
        <ele>1456.53</ele>
        <time>2014-01-12T08:42:21Z</time>
      </trkpt>
      <trkpt lat="45.64051553606987" lon="7.879634974524379">
        <ele>1457.02</ele>
        <time>2014-01-12T08:42:39Z</time>
      </trkpt>
      <trkpt lat="45.640499861910939" lon="7.879647463560104">
        <ele>1457.02</ele>
        <time>2014-01-12T08:42:50Z</time>
      </trkpt>
      <trkpt lat="45.640410678461194" lon="7.879629107192159">
        <ele>1457.98</ele>
        <time>2014-01-12T08:42:59Z</time>
      </trkpt>
      <trkpt lat="45.64026047475636" lon="7.879517208784819">
        <ele>1459.4200000000001</ele>
        <time>2014-01-12T08:43:14Z</time>
      </trkpt>
      <trkpt lat="45.640214625746012" lon="7.879507318139076">
        <ele>1459.9000000000001</ele>
        <time>2014-01-12T08:43:29Z</time>
      </trkpt>
      <trkpt lat="45.640225689858198" lon="7.879511089995503">
        <ele>1459.9000000000001</ele>
        <time>2014-01-12T08:43:44Z</time>
      </trkpt>
      <trkpt lat="45.640225857496262" lon="7.879501283168793">
        <ele>1459.9000000000001</ele>
        <time>2014-01-12T08:44:05Z</time>
      </trkpt>
      <trkpt lat="45.640186462551355" lon="7.879563476890326">
        <ele>1460.3800000000001</ele>
        <time>2014-01-12T08:44:19Z</time>
      </trkpt>
      <trkpt lat="45.640197610482574" lon="7.879646122455597">
        <ele>1462.3</ele>
        <time>2014-01-12T08:44:26Z</time>
      </trkpt>
      <trkpt lat="45.640196017920971" lon="7.879689624533057">
        <ele>1463.74</ele>
        <time>2014-01-12T08:44:29Z</time>
      </trkpt>
      <trkpt lat="45.640194592997432" lon="7.879798337817192">
        <ele>1467.1099999999999</ele>
        <time>2014-01-12T08:44:39Z</time>
      </trkpt>
      <trkpt lat="45.64025997184217" lon="7.879924401640892">
        <ele>1469.51</ele>
        <time>2014-01-12T08:44:53Z</time>
      </trkpt>
      <trkpt lat="45.640253685414791" lon="7.879900932312012">
        <ele>1470.47</ele>
        <time>2014-01-12T08:45:09Z</time>
      </trkpt>
      <trkpt lat="45.640246644616127" lon="7.879873774945736">
        <ele>1469.99</ele>
        <time>2014-01-12T08:45:27Z</time>
      </trkpt>
      <trkpt lat="45.640255697071552" lon="7.879865476861596">
        <ele>1469.99</ele>
        <time>2014-01-12T08:45:54Z</time>
      </trkpt>
      <trkpt lat="45.640260642394423" lon="7.879856592044234">
        <ele>1470.47</ele>
        <time>2014-01-12T08:46:16Z</time>
      </trkpt>
      <trkpt lat="45.640237592160702" lon="7.879892215132713">
        <ele>1469.99</ele>
        <time>2014-01-12T08:46:35Z</time>
      </trkpt>
      <trkpt lat="45.640236083418131" lon="7.879871260374785">
        <ele>1469.99</ele>
        <time>2014-01-12T08:46:56Z</time>
      </trkpt>
      <trkpt lat="45.640232898294926" lon="7.879846533760428">
        <ele>1470.47</ele>
        <time>2014-01-12T08:47:14Z</time>
      </trkpt>
      <trkpt lat="45.640237089246511" lon="7.87984904833138">
        <ele>1470.47</ele>
        <time>2014-01-12T08:47:45Z</time>
      </trkpt>
      <trkpt lat="45.640227785333991" lon="7.879832871258259">
        <ele>1470.47</ele>
        <time>2014-01-12T08:48:05Z</time>
      </trkpt>
      <trkpt lat="45.640243291854858" lon="7.879863129928708">
        <ele>1470.47</ele>
        <time>2014-01-12T08:48:24Z</time>
      </trkpt>
      <trkpt lat="45.640231724828482" lon="7.87986371666193">
        <ele>1470.47</ele>
        <time>2014-01-12T08:48:56Z</time>
      </trkpt>
      <trkpt lat="45.640259720385075" lon="7.879862459376454">
        <ele>1470.47</ele>
        <time>2014-01-12T08:49:19Z</time>
      </trkpt>
      <trkpt lat="45.640252847224474" lon="7.879848377779126">
        <ele>1470.47</ele>
        <time>2014-01-12T08:49:43Z</time>
      </trkpt>
      <trkpt lat="45.640294589102268" lon="7.879919875413179">
        <ele>1470.47</ele>
        <time>2014-01-12T08:49:58Z</time>
      </trkpt>
      <trkpt lat="45.64028293825686" lon="7.879942171275616">
        <ele>1470.95</ele>
        <time>2014-01-12T08:50:15Z</time>
      </trkpt>
      <trkpt lat="45.640259049832821" lon="7.87997268140316">
        <ele>1470.47</ele>
        <time>2014-01-12T08:50:29Z</time>
      </trkpt>
      <trkpt lat="45.640257373452187" lon="7.879975531250238">
        <ele>1470.95</ele>
        <time>2014-01-12T08:50:43Z</time>
      </trkpt>
      <trkpt lat="45.640272460877895" lon="7.879977794364095">
        <ele>1470.95</ele>
        <time>2014-01-12T08:51:09Z</time>
      </trkpt>
      <trkpt lat="45.640256870537996" lon="7.879974776878953">
        <ele>1470.95</ele>
        <time>2014-01-12T08:51:22Z</time>
      </trkpt>
      <trkpt lat="45.640267850831151" lon="7.880020625889301">
        <ele>1471.4400000000001</ele>
        <time>2014-01-12T08:51:38Z</time>
      </trkpt>
      <trkpt lat="45.640268521383405" lon="7.880026493221521">
        <ele>1471.4400000000001</ele>
        <time>2014-01-12T08:51:59Z</time>
      </trkpt>
      <trkpt lat="45.64027514308691" lon="7.880017356947064">
        <ele>1470.95</ele>
        <time>2014-01-12T08:52:14Z</time>
      </trkpt>
      <trkpt lat="45.640263156965375" lon="7.879994222894311">
        <ele>1470.95</ele>
        <time>2014-01-12T08:52:27Z</time>
      </trkpt>
      <trkpt lat="45.640234742313623" lon="7.879959018900991">
        <ele>1471.4400000000001</ele>
        <time>2014-01-12T08:52:42Z</time>
      </trkpt>
      <trkpt lat="45.640189480036497" lon="7.879853323101997">
        <ele>1469.99</ele>
        <time>2014-01-12T08:52:57Z</time>
      </trkpt>
      <trkpt lat="45.640196017920971" lon="7.879826333373785">
        <ele>1469.99</ele>
        <time>2014-01-12T08:53:17Z</time>
      </trkpt>
      <trkpt lat="45.640198616310954" lon="7.879827339202166">
        <ele>1469.99</ele>
        <time>2014-01-12T08:53:35Z</time>
      </trkpt>
      <trkpt lat="45.640218900516629" lon="7.879838487133384">
        <ele>1469.99</ele>
        <time>2014-01-12T08:53:52Z</time>
      </trkpt>
      <trkpt lat="45.640217810869217" lon="7.87984368391335">
        <ele>1469.99</ele>
        <time>2014-01-12T08:54:16Z</time>
      </trkpt>
      <trkpt lat="45.640241699293256" lon="7.879830608144403">
        <ele>1469.99</ele>
        <time>2014-01-12T08:54:39Z</time>
      </trkpt>
      <trkpt lat="45.640219654887915" lon="7.87981434725225">
        <ele>1469.99</ele>
        <time>2014-01-12T08:55:06Z</time>
      </trkpt>
      <trkpt lat="45.640233820304275" lon="7.879848880693317">
        <ele>1469.99</ele>
        <time>2014-01-12T08:55:25Z</time>
      </trkpt>
      <trkpt lat="45.640216888859868" lon="7.879840079694986">
        <ele>1470.47</ele>
        <time>2014-01-12T08:55:47Z</time>
      </trkpt>
      <trkpt lat="45.640220073983073" lon="7.879834212362766">
        <ele>1470.47</ele>
        <time>2014-01-12T08:56:09Z</time>
      </trkpt>
      <trkpt lat="45.640242705121636" lon="7.879892801865935">
        <ele>1470.47</ele>
        <time>2014-01-12T08:56:27Z</time>
      </trkpt>
      <trkpt lat="45.640264581888914" lon="7.879927083849907">
        <ele>1470.95</ele>
        <time>2014-01-12T08:56:29Z</time>
      </trkpt>
      <trkpt lat="45.640295846387744" lon="7.87998927757144">
        <ele>1471.9200000000001</ele>
        <time>2014-01-12T08:56:33Z</time>
      </trkpt>
      <trkpt lat="45.640410510823131" lon="7.880189437419176">
        <ele>1474.8</ele>
        <time>2014-01-12T08:56:49Z</time>
      </trkpt>
      <trkpt lat="45.640441942960024" lon="7.880253307521343">
        <ele>1475.76</ele>
        <time>2014-01-12T08:56:55Z</time>
      </trkpt>
      <trkpt lat="45.640459125861526" lon="7.88027711212635">
        <ele>1475.76</ele>
        <time>2014-01-12T08:56:57Z</time>
      </trkpt>
      <trkpt lat="45.640491982921958" lon="7.880327319726348">
        <ele>1476.72</ele>
        <time>2014-01-12T08:57:01Z</time>
      </trkpt>
      <trkpt lat="45.640603546053171" lon="7.880484815686941">
        <ele>1478.6500000000001</ele>
        <time>2014-01-12T08:57:16Z</time>
      </trkpt>
      <trkpt lat="45.640700692310929" lon="7.880600821226835">
        <ele>1480.5699999999999</ele>
        <time>2014-01-12T08:57:29Z</time>
      </trkpt>
      <trkpt lat="45.640723239630461" lon="7.880642814561725">
        <ele>1481.05</ele>
        <time>2014-01-12T08:57:33Z</time>
      </trkpt>
      <trkpt lat="45.640787025913596" lon="7.880827467888594">
        <ele>1483.45</ele>
        <time>2014-01-12T08:57:48Z</time>
      </trkpt>
      <trkpt lat="45.640788953751326" lon="7.88090206682682">
        <ele>1483.9300000000001</ele>
        <time>2014-01-12T08:57:54Z</time>
      </trkpt>
      <trkpt lat="45.640746792778373" lon="7.880969792604446">
        <ele>1484.8900000000001</ele>
        <time>2014-01-12T08:58:00Z</time>
      </trkpt>
      <trkpt lat="45.64059566706419" lon="7.880894523113966">
        <ele>1486.3399999999999</ele>
        <time>2014-01-12T08:58:14Z</time>
      </trkpt>
      <trkpt lat="45.64050036482513" lon="7.880801651626825">
        <ele>1486.8199999999999</ele>
        <time>2014-01-12T08:58:25Z</time>
      </trkpt>
      <trkpt lat="45.640384191647172" lon="7.880694447085261">
        <ele>1488.74</ele>
        <time>2014-01-12T08:58:39Z</time>
      </trkpt>
      <trkpt lat="45.640260139480233" lon="7.880569724366069">
        <ele>1490.1800000000001</ele>
        <time>2014-01-12T08:58:55Z</time>
      </trkpt>
      <trkpt lat="45.640164753422141" lon="7.88051750510931">
        <ele>1491.1400000000001</ele>
        <time>2014-01-12T08:59:04Z</time>
      </trkpt>
      <trkpt lat="45.640150001272559" lon="7.880509374663234">
        <ele>1491.6199999999999</ele>
        <time>2014-01-12T08:59:06Z</time>
      </trkpt>
      <trkpt lat="45.640106666833162" lon="7.880496801808476">
        <ele>1491.6199999999999</ele>
        <time>2014-01-12T08:59:10Z</time>
      </trkpt>
      <trkpt lat="45.639958810061216" lon="7.880488503724337">
        <ele>1492.5799999999999</ele>
        <time>2014-01-12T08:59:25Z</time>
      </trkpt>
      <trkpt lat="45.639815563336015" lon="7.880454221740365">
        <ele>1494.99</ele>
        <time>2014-01-12T08:59:41Z</time>
      </trkpt>
      <trkpt lat="45.639695953577757" lon="7.880413737148047">
        <ele>1496.9100000000001</ele>
        <time>2014-01-12T08:59:54Z</time>
      </trkpt>
      <trkpt lat="45.6395607534796" lon="7.880354644730687">
        <ele>1498.3499999999999</ele>
        <time>2014-01-12T09:00:09Z</time>
      </trkpt>
      <trkpt lat="45.639419686049223" lon="7.880328325554729">
        <ele>1499.79</ele>
        <time>2014-01-12T09:00:23Z</time>
      </trkpt>
      <trkpt lat="45.639271326363087" lon="7.880318183451891">
        <ele>1502.2</ele>
        <time>2014-01-12T09:00:39Z</time>
      </trkpt>
      <trkpt lat="45.639133108779788" lon="7.880291193723679">
        <ele>1503.6400000000001</ele>
        <time>2014-01-12T09:00:54Z</time>
      </trkpt>
      <trkpt lat="45.639092959463596" lon="7.880262946709991">
        <ele>1504.1199999999999</ele>
        <time>2014-01-12T09:00:58Z</time>
      </trkpt>
      <trkpt lat="45.638949377462268" lon="7.880122466012836">
        <ele>1505.0799999999999</ele>
        <time>2014-01-12T09:01:14Z</time>
      </trkpt>
      <trkpt lat="45.638819793239236" lon="7.879946110770106">
        <ele>1506.52</ele>
        <time>2014-01-12T09:01:31Z</time>
      </trkpt>
      <trkpt lat="45.638759527355433" lon="7.879785010591149">
        <ele>1507.48</ele>
        <time>2014-01-12T09:01:44Z</time>
      </trkpt>
      <trkpt lat="45.638666655868292" lon="7.879637572914362">
        <ele>1508.9300000000001</ele>
        <time>2014-01-12T09:01:59Z</time>
      </trkpt>
      <trkpt lat="45.638605803251266" lon="7.879575714468956">
        <ele>1509.4100000000001</ele>
        <time>2014-01-12T09:02:07Z</time>
      </trkpt>
      <trkpt lat="45.638466663658619" lon="7.879470521584153">
        <ele>1510.3699999999999</ele>
        <time>2014-01-12T09:02:24Z</time>
      </trkpt>
      <trkpt lat="45.638348227366805" lon="7.879411764442921">
        <ele>1513.25</ele>
        <time>2014-01-12T09:02:41Z</time>
      </trkpt>
      <trkpt lat="45.638226019218564" lon="7.87934429012239">
        <ele>1514.21</ele>
        <time>2014-01-12T09:02:56Z</time>
      </trkpt>
      <trkpt lat="45.638086041435599" lon="7.879217052832246">
        <ele>1516.1400000000001</ele>
        <time>2014-01-12T09:03:11Z</time>
      </trkpt>
      <trkpt lat="45.63798101618886" lon="7.879114961251617">
        <ele>1518.0599999999999</ele>
        <time>2014-01-12T09:03:25Z</time>
      </trkpt>
      <trkpt lat="45.637890072539449" lon="7.87902032956481">
        <ele>1519.5</ele>
        <time>2014-01-12T09:03:39Z</time>
      </trkpt>
      <trkpt lat="45.637790830805898" lon="7.878915388137102">
        <ele>1521.4200000000001</ele>
        <time>2014-01-12T09:03:55Z</time>
      </trkpt>
      <trkpt lat="45.637662252411246" lon="7.878794437274337">
        <ele>1523.8299999999999</ele>
        <time>2014-01-12T09:04:13Z</time>
      </trkpt>
      <trkpt lat="45.637578014284372" lon="7.878723694011569">
        <ele>1526.71</ele>
        <time>2014-01-12T09:04:29Z</time>
      </trkpt>
      <trkpt lat="45.637413393706083" lon="7.878622524440289">
        <ele>1527.6700000000001</ele>
        <time>2014-01-12T09:04:47Z</time>
      </trkpt>
      <trkpt lat="45.637371819466352" lon="7.878626380115748">
        <ele>1528.6300000000001</ele>
        <time>2014-01-12T09:04:51Z</time>
      </trkpt>
      <trkpt lat="45.637185489758849" lon="7.878671810030937">
        <ele>1529.1099999999999</ele>
        <time>2014-01-12T09:05:08Z</time>
      </trkpt>
      <trkpt lat="45.637044170871377" lon="7.878775158897042">
        <ele>1530.5599999999999</ele>
        <time>2014-01-12T09:05:25Z</time>
      </trkpt>
      <trkpt lat="45.63694316893816" lon="7.878882028162479">
        <ele>1532.96</ele>
        <time>2014-01-12T09:05:42Z</time>
      </trkpt>
      <trkpt lat="45.63686303794384" lon="7.878989903256297">
        <ele>1536.3199999999999</ele>
        <time>2014-01-12T09:05:56Z</time>
      </trkpt>
      <trkpt lat="45.636788355186582" lon="7.879108842462301">
        <ele>1538.25</ele>
        <time>2014-01-12T09:06:13Z</time>
      </trkpt>
      <trkpt lat="45.636674109846354" lon="7.879268852993846">
        <ele>1540.6500000000001</ele>
        <time>2014-01-12T09:06:30Z</time>
      </trkpt>
      <trkpt lat="45.636584255844355" lon="7.879377901554108">
        <ele>1543.05</ele>
        <time>2014-01-12T09:06:44Z</time>
      </trkpt>
      <trkpt lat="45.636474704369903" lon="7.879498600959778">
        <ele>1545.46</ele>
        <time>2014-01-12T09:07:00Z</time>
      </trkpt>
      <trkpt lat="45.636336570605636" lon="7.87955878302455">
        <ele>1546.9000000000001</ele>
        <time>2014-01-12T09:07:15Z</time>
      </trkpt>
      <trkpt lat="45.63626155257225" lon="7.879579234868288">
        <ele>1548.3399999999999</ele>
        <time>2014-01-12T09:07:25Z</time>
      </trkpt>
      <trkpt lat="45.636122580617666" lon="7.8796062245965">
        <ele>1550.74</ele>
        <time>2014-01-12T09:07:39Z</time>
      </trkpt>
      <trkpt lat="45.636022835969925" lon="7.87961645051837">
        <ele>1551.71</ele>
        <time>2014-01-12T09:07:51Z</time>
      </trkpt>
      <trkpt lat="45.635995510965586" lon="7.879631202667952">
        <ele>1552.1900000000001</ele>
        <time>2014-01-12T09:07:55Z</time>
      </trkpt>
      <trkpt lat="45.635847905650735" lon="7.879726756364107">
        <ele>1553.6300000000001</ele>
        <time>2014-01-12T09:08:13Z</time>
      </trkpt>
      <trkpt lat="45.635797698050737" lon="7.879764642566443">
        <ele>1555.55</ele>
        <time>2014-01-12T09:08:20Z</time>
      </trkpt>
      <trkpt lat="45.635768780484796" lon="7.879813341423869">
        <ele>1556.03</ele>
        <time>2014-01-12T09:08:25Z</time>
      </trkpt>
      <trkpt lat="45.635737599804997" lon="7.879842426627874">
        <ele>1555.55</ele>
        <time>2014-01-12T09:08:28Z</time>
      </trkpt>
      <trkpt lat="45.635702731087804" lon="7.879887269809842">
        <ele>1556.03</ele>
        <time>2014-01-12T09:08:32Z</time>
      </trkpt>
      <trkpt lat="45.635576164349914" lon="7.87996731698513">
        <ele>1556.51</ele>
        <time>2014-01-12T09:08:45Z</time>
      </trkpt>
      <trkpt lat="45.635444903746247" lon="7.879986595362425">
        <ele>1558.4300000000001</ele>
        <time>2014-01-12T09:08:59Z</time>
      </trkpt>
      <trkpt lat="45.635322025045753" lon="7.88002984598279">
        <ele>1559.8800000000001</ele>
        <time>2014-01-12T09:09:13Z</time>
      </trkpt>
      <trkpt lat="45.635296795517206" lon="7.880049291998148">
        <ele>1560.3599999999999</ele>
        <time>2014-01-12T09:09:16Z</time>
      </trkpt>
      <trkpt lat="45.635232254862785" lon="7.880135122686625">
        <ele>1561.8</ele>
        <time>2014-01-12T09:09:26Z</time>
      </trkpt>
      <trkpt lat="45.63515673391521" lon="7.880278704687953">
        <ele>1563.24</ele>
        <time>2014-01-12T09:09:42Z</time>
      </trkpt>
      <trkpt lat="45.635067047551274" lon="7.880462603643537">
        <ele>1564.6800000000001</ele>
        <time>2014-01-12T09:09:59Z</time>
      </trkpt>
      <trkpt lat="45.634925896301866" lon="7.880542231723666">
        <ele>1566.6099999999999</ele>
        <time>2014-01-12T09:10:14Z</time>
      </trkpt>
      <trkpt lat="45.634920196607709" lon="7.880550865083933">
        <ele>1566.6099999999999</ele>
        <time>2014-01-12T09:10:17Z</time>
      </trkpt>
      <trkpt lat="45.63490217551589" lon="7.880522031337023">
        <ele>1566.6099999999999</ele>
        <time>2014-01-12T09:10:19Z</time>
      </trkpt>
      <trkpt lat="45.634718611836433" lon="7.880484815686941">
        <ele>1568.05</ele>
        <time>2014-01-12T09:10:35Z</time>
      </trkpt>
      <trkpt lat="45.634574191644788" lon="7.880453802645207">
        <ele>1569.97</ele>
        <time>2014-01-12T09:10:51Z</time>
      </trkpt>
      <trkpt lat="45.634453827515244" lon="7.880395548418164">
        <ele>1571.4100000000001</ele>
        <time>2014-01-12T09:11:04Z</time>
      </trkpt>
      <trkpt lat="45.634328685700893" lon="7.880353135988116">
        <ele>1573.8199999999999</ele>
        <time>2014-01-12T09:11:19Z</time>
      </trkpt>
      <trkpt lat="45.634285183623433" lon="7.880371492356062">
        <ele>1574.3</ele>
        <time>2014-01-12T09:11:24Z</time>
      </trkpt>
      <trkpt lat="45.634154342114925" lon="7.880470482632518">
        <ele>1575.26</ele>
        <time>2014-01-12T09:11:39Z</time>
      </trkpt>
      <trkpt lat="45.634057195857167" lon="7.880487414076924">
        <ele>1575.74</ele>
        <time>2014-01-12T09:11:51Z</time>
      </trkpt>
      <trkpt lat="45.634075300768018" lon="7.880480960011482">
        <ele>1575.26</ele>
        <time>2014-01-12T09:12:05Z</time>
      </trkpt>
      <trkpt lat="45.634078150615096" lon="7.880466878414154">
        <ele>1576.22</ele>
        <time>2014-01-12T09:12:19Z</time>
      </trkpt>
      <trkpt lat="45.634035151451826" lon="7.880458245053887">
        <ele>1576.22</ele>
        <time>2014-01-12T09:12:41Z</time>
      </trkpt>
      <trkpt lat="45.634057531133294" lon="7.880481546744704">
        <ele>1576.22</ele>
        <time>2014-01-12T09:13:02Z</time>
      </trkpt>
      <trkpt lat="45.633924007415771" lon="7.880626888945699">
        <ele>1577.6600000000001</ele>
        <time>2014-01-12T09:13:18Z</time>
      </trkpt>
      <trkpt lat="45.633854269981384" lon="7.880721939727664">
        <ele>1578.6199999999999</ele>
        <time>2014-01-12T09:13:33Z</time>
      </trkpt>
      <trkpt lat="45.633775060996413" lon="7.88079452700913">
        <ele>1580.0599999999999</ele>
        <time>2014-01-12T09:13:47Z</time>
      </trkpt>
      <trkpt lat="45.633617732673883" lon="7.880875580012798">
        <ele>1582.95</ele>
        <time>2014-01-12T09:14:04Z</time>
      </trkpt>
      <trkpt lat="45.633496446534991" lon="7.880961410701275">
        <ele>1585.3499999999999</ele>
        <time>2014-01-12T09:14:20Z</time>
      </trkpt>
      <trkpt lat="45.633472809568048" lon="7.880957052111626">
        <ele>1585.3499999999999</ele>
        <time>2014-01-12T09:14:32Z</time>
      </trkpt>
      <trkpt lat="45.63349443487823" lon="7.880959650501609">
        <ele>1585.3499999999999</ele>
        <time>2014-01-12T09:14:44Z</time>
      </trkpt>
      <trkpt lat="45.633489238098264" lon="7.880987729877234">
        <ele>1586.3099999999999</ele>
        <time>2014-01-12T09:14:57Z</time>
      </trkpt>
      <trkpt lat="45.63350223004818" lon="7.880971468985081">
        <ele>1585.8299999999999</ele>
        <time>2014-01-12T09:15:18Z</time>
      </trkpt>
      <trkpt lat="45.633524609729648" lon="7.880966272205114">
        <ele>1585.8299999999999</ele>
        <time>2014-01-12T09:15:37Z</time>
      </trkpt>
      <trkpt lat="45.633510528132319" lon="7.880960572510958">
        <ele>1586.3099999999999</ele>
        <time>2014-01-12T09:15:57Z</time>
      </trkpt>
      <trkpt lat="45.633457554504275" lon="7.88099535740912">
        <ele>1586.3099999999999</ele>
        <time>2014-01-12T09:16:11Z</time>
      </trkpt>
      <trkpt lat="45.633427714928985" lon="7.880978090688586">
        <ele>1587.75</ele>
        <time>2014-01-12T09:16:21Z</time>
      </trkpt>
      <trkpt lat="45.633402150124311" lon="7.880978425964713">
        <ele>1587.75</ele>
        <time>2014-01-12T09:16:35Z</time>
      </trkpt>
      <trkpt lat="45.633413130417466" lon="7.881004326045513">
        <ele>1588.24</ele>
        <time>2014-01-12T09:16:51Z</time>
      </trkpt>
      <trkpt lat="45.633419416844845" lon="7.880998542532325">
        <ele>1587.75</ele>
        <time>2014-01-12T09:17:11Z</time>
      </trkpt>
      <trkpt lat="45.633364263921976" lon="7.88110239431262">
        <ele>1588.72</ele>
        <time>2014-01-12T09:17:28Z</time>
      </trkpt>
      <trkpt lat="45.633331490680575" lon="7.881146734580398">
        <ele>1589.2</ele>
        <time>2014-01-12T09:17:41Z</time>
      </trkpt>
      <trkpt lat="45.633239625021815" lon="7.881234157830477">
        <ele>1591.5999999999999</ele>
        <time>2014-01-12T09:17:59Z</time>
      </trkpt>
      <trkpt lat="45.633159410208464" lon="7.881370699033141">
        <ele>1593.52</ele>
        <time>2014-01-12T09:18:16Z</time>
      </trkpt>
      <trkpt lat="45.633079614490271" lon="7.881514364853501">
        <ele>1595.45</ele>
        <time>2014-01-12T09:18:34Z</time>
      </trkpt>
      <trkpt lat="45.63308397307992" lon="7.881544539704919">
        <ele>1595.9300000000001</ele>
        <time>2014-01-12T09:18:51Z</time>
      </trkpt>
      <trkpt lat="45.633071148768067" lon="7.881565159186721">
        <ele>1595.45</ele>
        <time>2014-01-12T09:18:53Z</time>
      </trkpt>
      <trkpt lat="45.633038710802794" lon="7.881648642942309">
        <ele>1596.4100000000001</ele>
        <time>2014-01-12T09:19:10Z</time>
      </trkpt>
      <trkpt lat="45.633036196231842" lon="7.881626095622778">
        <ele>1597.3699999999999</ele>
        <time>2014-01-12T09:19:24Z</time>
      </trkpt>
      <trkpt lat="45.633046003058553" lon="7.881639422848821">
        <ele>1597.3699999999999</ele>
        <time>2014-01-12T09:19:43Z</time>
      </trkpt>
      <trkpt lat="45.633011721074581" lon="7.881790045648813">
        <ele>1597.8499999999999</ele>
        <time>2014-01-12T09:20:02Z</time>
      </trkpt>
      <trkpt lat="45.632964866235852" lon="7.881915355101228">
        <ele>1599.77</ele>
        <time>2014-01-12T09:20:16Z</time>
      </trkpt>
      <trkpt lat="45.632903091609478" lon="7.882043514400721">
        <ele>1601.21</ele>
        <time>2014-01-12T09:20:30Z</time>
      </trkpt>
      <trkpt lat="45.632842155173421" lon="7.882229927927256">
        <ele>1603.1400000000001</ele>
        <time>2014-01-12T09:20:46Z</time>
      </trkpt>
      <trkpt lat="45.632797898724675" lon="7.882353728637099">
        <ele>1604.5799999999999</ele>
        <time>2014-01-12T09:20:59Z</time>
      </trkpt>
      <trkpt lat="45.632797228172421" lon="7.882419442757964">
        <ele>1605.54</ele>
        <time>2014-01-12T09:21:12Z</time>
      </trkpt>
      <trkpt lat="45.632819440215826" lon="7.882433189079166">
        <ele>1606.5</ele>
        <time>2014-01-12T09:21:22Z</time>
      </trkpt>
      <trkpt lat="45.632851459085941" lon="7.882470237091184">
        <ele>1607.9400000000001</ele>
        <time>2014-01-12T09:21:34Z</time>
      </trkpt>
      <trkpt lat="45.632887752726674" lon="7.882512900978327">
        <ele>1609.3800000000001</ele>
        <time>2014-01-12T09:21:47Z</time>
      </trkpt>
      <trkpt lat="45.632947012782097" lon="7.882623374462128">
        <ele>1611.3099999999999</ele>
        <time>2014-01-12T09:22:01Z</time>
      </trkpt>
      <trkpt lat="45.63299797475338" lon="7.882682299241424">
        <ele>1613.71</ele>
        <time>2014-01-12T09:22:15Z</time>
      </trkpt>
      <trkpt lat="45.633029993623495" lon="7.882761424407363">
        <ele>1617.0699999999999</ele>
        <time>2014-01-12T09:22:29Z</time>
      </trkpt>
      <trkpt lat="45.633074082434177" lon="7.882838370278478">
        <ele>1619.48</ele>
        <time>2014-01-12T09:22:43Z</time>
      </trkpt>
      <trkpt lat="45.633116913959384" lon="7.882876424118877">
        <ele>1622.3599999999999</ele>
        <time>2014-01-12T09:22:56Z</time>
      </trkpt>
      <trkpt lat="45.63315530307591" lon="7.882918165996671">
        <ele>1625.73</ele>
        <time>2014-01-12T09:23:09Z</time>
      </trkpt>
      <trkpt lat="45.633190255612135" lon="7.88295479491353">
        <ele>1627.6500000000001</ele>
        <time>2014-01-12T09:23:21Z</time>
      </trkpt>
      <trkpt lat="45.633202325552702" lon="7.882928056642413">
        <ele>1628.1300000000001</ele>
        <time>2014-01-12T09:23:33Z</time>
      </trkpt>
      <trkpt lat="45.633224956691265" lon="7.882876927033067">
        <ele>1628.6099999999999</ele>
        <time>2014-01-12T09:23:46Z</time>
      </trkpt>
      <trkpt lat="45.633285390213132" lon="7.882847171276808">
        <ele>1629.5699999999999</ele>
        <time>2014-01-12T09:24:04Z</time>
      </trkpt>
      <trkpt lat="45.633390247821808" lon="7.882798472419381">
        <ele>1631.01</ele>
        <time>2014-01-12T09:24:18Z</time>
      </trkpt>
      <trkpt lat="45.633514970541" lon="7.88275932893157">
        <ele>1633.4200000000001</ele>
        <time>2014-01-12T09:24:36Z</time>
      </trkpt>
      <trkpt lat="45.6335857976228" lon="7.882676851004362">
        <ele>1635.8199999999999</ele>
        <time>2014-01-12T09:24:51Z</time>
      </trkpt>
      <trkpt lat="45.63364933244884" lon="7.882631001994014">
        <ele>1637.74</ele>
        <time>2014-01-12T09:25:07Z</time>
      </trkpt>
      <trkpt lat="45.633675483986735" lon="7.882576016709209">
        <ele>1637.74</ele>
        <time>2014-01-12T09:25:22Z</time>
      </trkpt>
      <trkpt lat="45.633728457614779" lon="7.882492952048779">
        <ele>1639.6700000000001</ele>
        <time>2014-01-12T09:25:33Z</time>
      </trkpt>
      <trkpt lat="45.633816551417112" lon="7.882431847974658">
        <ele>1641.1099999999999</ele>
        <time>2014-01-12T09:25:47Z</time>
      </trkpt>
      <trkpt lat="45.633912272751331" lon="7.882399829104543">
        <ele>1644.47</ele>
        <time>2014-01-12T09:26:02Z</time>
      </trkpt>
      <trkpt lat="45.633871033787727" lon="7.882534442469478">
        <ele>1645.4300000000001</ele>
        <time>2014-01-12T09:26:20Z</time>
      </trkpt>
      <trkpt lat="45.633849827572703" lon="7.882638880982995">
        <ele>1647.3599999999999</ele>
        <time>2014-01-12T09:26:37Z</time>
      </trkpt>
      <trkpt lat="45.633844127878547" lon="7.882732758298516">
        <ele>1648.3199999999999</ele>
        <time>2014-01-12T09:26:55Z</time>
      </trkpt>
      <trkpt lat="45.633818982169032" lon="7.882776847109199">
        <ele>1649.28</ele>
        <time>2014-01-12T09:27:11Z</time>
      </trkpt>
      <trkpt lat="45.633806325495243" lon="7.882832502946258">
        <ele>1650.72</ele>
        <time>2014-01-12T09:27:28Z</time>
      </trkpt>
      <trkpt lat="45.633799284696579" lon="7.882823701947928">
        <ele>1650.72</ele>
        <time>2014-01-12T09:27:42Z</time>
      </trkpt>
      <trkpt lat="45.633795009925961" lon="7.882821690291166">
        <ele>1650.72</ele>
        <time>2014-01-12T09:28:05Z</time>
      </trkpt>
      <trkpt lat="45.633783945813775" lon="7.882832922041416">
        <ele>1650.24</ele>
        <time>2014-01-12T09:28:23Z</time>
      </trkpt>
      <trkpt lat="45.633796686306596" lon="7.882860247045755">
        <ele>1650.72</ele>
        <time>2014-01-12T09:28:45Z</time>
      </trkpt>
      <trkpt lat="45.633798027411103" lon="7.882860414683819">
        <ele>1650.72</ele>
        <time>2014-01-12T09:29:06Z</time>
      </trkpt>
      <trkpt lat="45.63379836268723" lon="7.882874244824052">
        <ele>1650.24</ele>
        <time>2014-01-12T09:29:30Z</time>
      </trkpt>
      <trkpt lat="45.633790735155344" lon="7.882846584543586">
        <ele>1650.24</ele>
        <time>2014-01-12T09:29:51Z</time>
      </trkpt>
      <trkpt lat="45.633807331323624" lon="7.882863432168961">
        <ele>1651.2</ele>
        <time>2014-01-12T09:30:10Z</time>
      </trkpt>
      <trkpt lat="45.633791238069534" lon="7.88288245908916">
        <ele>1650.72</ele>
        <time>2014-01-12T09:30:18Z</time>
      </trkpt>
      <trkpt lat="45.63378905877471" lon="7.882897881790996">
        <ele>1649.76</ele>
        <time>2014-01-12T09:30:31Z</time>
      </trkpt>
      <trkpt lat="45.633791824802756" lon="7.882847590371966">
        <ele>1649.76</ele>
        <time>2014-01-12T09:30:52Z</time>
      </trkpt>
      <trkpt lat="45.633801631629467" lon="7.882889416068792">
        <ele>1649.76</ele>
        <time>2014-01-12T09:31:10Z</time>
      </trkpt>
      <trkpt lat="45.633817557245493" lon="7.882886566221714">
        <ele>1651.2</ele>
        <time>2014-01-12T09:31:25Z</time>
      </trkpt>
      <trkpt lat="45.633805654942989" lon="7.882870053872466">
        <ele>1651.2</ele>
        <time>2014-01-12T09:31:43Z</time>
      </trkpt>
      <trkpt lat="45.633801044896245" lon="7.882884973660111">
        <ele>1651.2</ele>
        <time>2014-01-12T09:31:55Z</time>
      </trkpt>
      <trkpt lat="45.633803475648165" lon="7.882846836000681">
        <ele>1651.2</ele>
        <time>2014-01-12T09:32:12Z</time>
      </trkpt>
      <trkpt lat="45.63379249535501" lon="7.88283652625978">
        <ele>1651.2</ele>
        <time>2014-01-12T09:32:28Z</time>
      </trkpt>
      <trkpt lat="45.633785622194409" lon="7.882989328354597">
        <ele>1652.6400000000001</ele>
        <time>2014-01-12T09:32:42Z</time>
      </trkpt>
      <trkpt lat="45.633721835911274" lon="7.883208263665438">
        <ele>1655.05</ele>
        <time>2014-01-12T09:32:59Z</time>
      </trkpt>
      <trkpt lat="45.633779419586062" lon="7.883322173729539">
        <ele>1657.9300000000001</ele>
        <time>2014-01-12T09:33:14Z</time>
      </trkpt>
      <trkpt lat="45.633833399042487" lon="7.883200468495488">
        <ele>1660.3299999999999</ele>
        <time>2014-01-12T09:33:28Z</time>
      </trkpt>
      <trkpt lat="45.633881175890565" lon="7.883138526231051">
        <ele>1660.8099999999999</ele>
        <time>2014-01-12T09:33:44Z</time>
      </trkpt>
      <trkpt lat="45.63398209400475" lon="7.883053701370955">
        <ele>1663.22</ele>
        <time>2014-01-12T09:33:58Z</time>
      </trkpt>
      <trkpt lat="45.634066667407751" lon="7.88306275382638">
        <ele>1666.0999999999999</ele>
        <time>2014-01-12T09:34:12Z</time>
      </trkpt>
      <trkpt lat="45.634169429540634" lon="7.883023107424378">
        <ele>1668.02</ele>
        <time>2014-01-12T09:34:25Z</time>
      </trkpt>
      <trkpt lat="45.634268755093217" lon="7.883006762713194">
        <ele>1669.95</ele>
        <time>2014-01-12T09:34:38Z</time>
      </trkpt>
      <trkpt lat="45.634348802268505" lon="7.883099466562271">
        <ele>1672.3499999999999</ele>
        <time>2014-01-12T09:34:54Z</time>
      </trkpt>
      <trkpt lat="45.634421054273844" lon="7.883247658610344">
        <ele>1674.75</ele>
        <time>2014-01-12T09:35:11Z</time>
      </trkpt>
      <trkpt lat="45.634389286860824" lon="7.883435664698482">
        <ele>1677.6400000000001</ele>
        <time>2014-01-12T09:35:28Z</time>
      </trkpt>
      <trkpt lat="45.634366488084197" lon="7.883565751835704">
        <ele>1680.04</ele>
        <time>2014-01-12T09:35:45Z</time>
      </trkpt>
      <trkpt lat="45.634457431733608" lon="7.88364420644939">
        <ele>1682.4400000000001</ele>
        <time>2014-01-12T09:36:00Z</time>
      </trkpt>
      <trkpt lat="45.634472100064158" lon="7.883747722953558">
        <ele>1684.3699999999999</ele>
        <time>2014-01-12T09:36:13Z</time>
      </trkpt>
      <trkpt lat="45.634386856108904" lon="7.88385140709579">
        <ele>1686.29</ele>
        <time>2014-01-12T09:36:29Z</time>
      </trkpt>
      <trkpt lat="45.634398758411407" lon="7.883968418464065">
        <ele>1689.6500000000001</ele>
        <time>2014-01-12T09:36:46Z</time>
      </trkpt>
      <trkpt lat="45.634397165849805" lon="7.884045364335179">
        <ele>1691.0999999999999</ele>
        <time>2014-01-12T09:37:00Z</time>
      </trkpt>
      <trkpt lat="45.634295828640461" lon="7.884161118417978">
        <ele>1693.98</ele>
        <time>2014-01-12T09:37:17Z</time>
      </trkpt>
      <trkpt lat="45.634305719286203" lon="7.88422373123467">
        <ele>1695.9000000000001</ele>
        <time>2014-01-12T09:37:32Z</time>
      </trkpt>
      <trkpt lat="45.634391298517585" lon="7.884264467284083">
        <ele>1698.3099999999999</ele>
        <time>2014-01-12T09:37:48Z</time>
      </trkpt>
      <trkpt lat="45.634330864995718" lon="7.884408971294761">
        <ele>1700.71</ele>
        <time>2014-01-12T09:38:04Z</time>
      </trkpt>
      <trkpt lat="45.634322483092546" lon="7.884574346244335">
        <ele>1702.6300000000001</ele>
        <time>2014-01-12T09:38:20Z</time>
      </trkpt>
      <trkpt lat="45.634403368458152" lon="7.884674090892077">
        <ele>1705.52</ele>
        <time>2014-01-12T09:38:38Z</time>
      </trkpt>
      <trkpt lat="45.634516105055809" lon="7.88475782610476">
        <ele>1706.48</ele>
        <time>2014-01-12T09:38:55Z</time>
      </trkpt>
      <trkpt lat="45.634585591033101" lon="7.884937869384885">
        <ele>1708.8800000000001</ele>
        <time>2014-01-12T09:39:12Z</time>
      </trkpt>
      <trkpt lat="45.634656501933932" lon="7.885058904066682">
        <ele>1711.76</ele>
        <time>2014-01-12T09:39:28Z</time>
      </trkpt>
      <trkpt lat="45.634697321802378" lon="7.885178178548813">
        <ele>1713.6900000000001</ele>
        <time>2014-01-12T09:39:43Z</time>
      </trkpt>
      <trkpt lat="45.634748619049788" lon="7.885338524356484">
        <ele>1715.6099999999999</ele>
        <time>2014-01-12T09:39:59Z</time>
      </trkpt>
      <trkpt lat="45.634848028421402" lon="7.885443633422256">
        <ele>1717.53</ele>
        <time>2014-01-12T09:40:15Z</time>
      </trkpt>
      <trkpt lat="45.634934697300196" lon="7.885497277602553">
        <ele>1718.97</ele>
        <time>2014-01-12T09:40:28Z</time>
      </trkpt>
      <trkpt lat="45.635043997317553" lon="7.885562740266323">
        <ele>1720.9000000000001</ele>
        <time>2014-01-12T09:40:43Z</time>
      </trkpt>
      <trkpt lat="45.635146759450436" lon="7.885664831846952">
        <ele>1721.8599999999999</ele>
        <time>2014-01-12T09:40:59Z</time>
      </trkpt>
      <trkpt lat="45.635288916528225" lon="7.885769940912724">
        <ele>1724.26</ele>
        <time>2014-01-12T09:41:18Z</time>
      </trkpt>
      <trkpt lat="45.63538153655827" lon="7.885870272293687">
        <ele>1725.7</ele>
        <time>2014-01-12T09:41:33Z</time>
      </trkpt>
      <trkpt lat="45.635465187951922" lon="7.885957527905703">
        <ele>1726.1800000000001</ele>
        <time>2014-01-12T09:41:47Z</time>
      </trkpt>
      <trkpt lat="45.635489160194993" lon="7.8859852720052">
        <ele>1726.1800000000001</ele>
        <time>2014-01-12T09:41:50Z</time>
      </trkpt>
      <trkpt lat="45.635633496567607" lon="7.886085351929069">
        <ele>1726.6700000000001</ele>
        <time>2014-01-12T09:42:06Z</time>
      </trkpt>
      <trkpt lat="45.635709604248405" lon="7.886103540658951">
        <ele>1727.6300000000001</ele>
        <time>2014-01-12T09:42:20Z</time>
      </trkpt>
      <trkpt lat="45.635700970888138" lon="7.886111922562122">
        <ele>1727.1500000000001</ele>
        <time>2014-01-12T09:42:37Z</time>
      </trkpt>
      <trkpt lat="45.635720165446401" lon="7.886123992502689">
        <ele>1727.1500000000001</ele>
        <time>2014-01-12T09:42:57Z</time>
      </trkpt>
      <trkpt lat="45.635689487680793" lon="7.886132039129734">
        <ele>1726.6700000000001</ele>
        <time>2014-01-12T09:43:15Z</time>
      </trkpt>
      <trkpt lat="45.635718740522861" lon="7.88611276075244">
        <ele>1727.6300000000001</ele>
        <time>2014-01-12T09:43:33Z</time>
      </trkpt>
      <trkpt lat="45.635704742744565" lon="7.886077137663961">
        <ele>1726.6700000000001</ele>
        <time>2014-01-12T09:43:48Z</time>
      </trkpt>
      <trkpt lat="45.635677333921194" lon="7.886073114350438">
        <ele>1728.1099999999999</ele>
        <time>2014-01-12T09:44:14Z</time>
      </trkpt>
      <trkpt lat="45.63570155762136" lon="7.88604830391705">
        <ele>1728.5899999999999</ele>
        <time>2014-01-12T09:44:26Z</time>
      </trkpt>
      <trkpt lat="45.635805074125528" lon="7.886162465438247">
        <ele>1729.0699999999999</ele>
        <time>2014-01-12T09:44:39Z</time>
      </trkpt>
      <trkpt lat="45.635799458250403" lon="7.886220049113035">
        <ele>1729.55</ele>
        <time>2014-01-12T09:44:51Z</time>
      </trkpt>
      <trkpt lat="45.635758638381958" lon="7.886213259771466">
        <ele>1730.51</ele>
        <time>2014-01-12T09:45:06Z</time>
      </trkpt>
      <trkpt lat="45.63575872220099" lon="7.886233041062951">
        <ele>1729.55</ele>
        <time>2014-01-12T09:45:29Z</time>
      </trkpt>
      <trkpt lat="45.635753022506833" lon="7.886204710230231">
        <ele>1729.55</ele>
        <time>2014-01-12T09:45:49Z</time>
      </trkpt>
      <trkpt lat="45.635745730251074" lon="7.886195573955774">
        <ele>1729.55</ele>
        <time>2014-01-12T09:46:06Z</time>
      </trkpt>
      <trkpt lat="45.635759811848402" lon="7.886209571734071">
        <ele>1729.55</ele>
        <time>2014-01-12T09:46:34Z</time>
      </trkpt>
      <trkpt lat="45.635758889839053" lon="7.886217199265957">
        <ele>1729.0699999999999</ele>
        <time>2014-01-12T09:46:48Z</time>
      </trkpt>
      <trkpt lat="45.635769283398986" lon="7.886206218972802">
        <ele>1729.55</ele>
        <time>2014-01-12T09:47:09Z</time>
      </trkpt>
      <trkpt lat="45.635845055803657" lon="7.886307975277305">
        <ele>1730.51</ele>
        <time>2014-01-12T09:47:27Z</time>
      </trkpt>
      <trkpt lat="45.635952595621347" lon="7.886440828442574">
        <ele>1732.9100000000001</ele>
        <time>2014-01-12T09:47:42Z</time>
      </trkpt>
      <trkpt lat="45.636066254228354" lon="7.88655012845993">
        <ele>1734.3599999999999</ele>
        <time>2014-01-12T09:47:56Z</time>
      </trkpt>
      <trkpt lat="45.63617505133152" lon="7.886642916128039">
        <ele>1736.28</ele>
        <time>2014-01-12T09:48:10Z</time>
      </trkpt>
      <trkpt lat="45.636281920596957" lon="7.886756407096982">
        <ele>1737.72</ele>
        <time>2014-01-12T09:48:25Z</time>
      </trkpt>
      <trkpt lat="45.636329781264067" lon="7.886839639395475">
        <ele>1739.1600000000001</ele>
        <time>2014-01-12T09:48:40Z</time>
      </trkpt>
      <trkpt lat="45.636389460414648" lon="7.886936282739043">
        <ele>1741.5699999999999</ele>
        <time>2014-01-12T09:48:54Z</time>
      </trkpt>
      <trkpt lat="45.636472776532173" lon="7.887034518644214">
        <ele>1743.49</ele>
        <time>2014-01-12T09:49:09Z</time>
      </trkpt>
      <trkpt lat="45.63657964579761" lon="7.887156391516328">
        <ele>1745.4100000000001</ele>
        <time>2014-01-12T09:49:26Z</time>
      </trkpt>
      <trkpt lat="45.636650556698442" lon="7.887197462841868">
        <ele>1748.78</ele>
        <time>2014-01-12T09:49:42Z</time>
      </trkpt>
      <trkpt lat="45.636715432628989" lon="7.887288993224502">
        <ele>1751.6600000000001</ele>
        <time>2014-01-12T09:49:58Z</time>
      </trkpt>
      <trkpt lat="45.636714678257704" lon="7.887349594384432">
        <ele>1752.1400000000001</ele>
        <time>2014-01-12T09:50:16Z</time>
      </trkpt>
      <trkpt lat="45.636819871142507" lon="7.887416565790772">
        <ele>1755.02</ele>
        <time>2014-01-12T09:50:33Z</time>
      </trkpt>
      <trkpt lat="45.63684644177556" lon="7.887492924928665">
        <ele>1756.95</ele>
        <time>2014-01-12T09:50:48Z</time>
      </trkpt>
      <trkpt lat="45.636929338797927" lon="7.88758210837841">
        <ele>1758.8699999999999</ele>
        <time>2014-01-12T09:51:04Z</time>
      </trkpt>
      <trkpt lat="45.636998489499092" lon="7.887710183858872">
        <ele>1761.27</ele>
        <time>2014-01-12T09:51:20Z</time>
      </trkpt>
      <trkpt lat="45.637063700705767" lon="7.887779586017132">
        <ele>1763.2</ele>
        <time>2014-01-12T09:51:34Z</time>
      </trkpt>
      <trkpt lat="45.637156153097749" lon="7.887841360643506">
        <ele>1765.1199999999999</ele>
        <time>2014-01-12T09:51:49Z</time>
      </trkpt>
      <trkpt lat="45.637226141989231" lon="7.887933980673552">
        <ele>1768</ele>
        <time>2014-01-12T09:52:06Z</time>
      </trkpt>
      <trkpt lat="45.637287581339478" lon="7.88807949051261">
        <ele>1770.4100000000001</ele>
        <time>2014-01-12T09:52:23Z</time>
      </trkpt>
      <trkpt lat="45.63729596324265" lon="7.888094326481223">
        <ele>1771.8499999999999</ele>
        <time>2014-01-12T09:52:36Z</time>
      </trkpt>
      <trkpt lat="45.637361845001578" lon="7.888112934306264">
        <ele>1774.25</ele>
        <time>2014-01-12T09:52:50Z</time>
      </trkpt>
      <trkpt lat="45.637449938803911" lon="7.88817286491394">
        <ele>1776.1700000000001</ele>
        <time>2014-01-12T09:53:05Z</time>
      </trkpt>
      <trkpt lat="45.637476425617933" lon="7.888293396681547">
        <ele>1779.54</ele>
        <time>2014-01-12T09:53:21Z</time>
      </trkpt>
      <trkpt lat="45.637540966272354" lon="7.888359865173698">
        <ele>1781.9400000000001</ele>
        <time>2014-01-12T09:53:35Z</time>
      </trkpt>
      <trkpt lat="45.637669544667006" lon="7.888451730832458">
        <ele>1785.3099999999999</ele>
        <time>2014-01-12T09:53:54Z</time>
      </trkpt>
      <trkpt lat="45.637714387848973" lon="7.888499926775694">
        <ele>1786.75</ele>
        <time>2014-01-12T09:54:08Z</time>
      </trkpt>
      <trkpt lat="45.637757470831275" lon="7.888527000322938">
        <ele>1788.6700000000001</ele>
        <time>2014-01-12T09:54:22Z</time>
      </trkpt>
      <trkpt lat="45.637780353426933" lon="7.888652309775353">
        <ele>1791.0699999999999</ele>
        <time>2014-01-12T09:54:38Z</time>
      </trkpt>
      <trkpt lat="45.637807510793209" lon="7.888744426891208">
        <ele>1792.03</ele>
        <time>2014-01-12T09:54:54Z</time>
      </trkpt>
      <trkpt lat="45.637839948758483" lon="7.888859091326594">
        <ele>1793.48</ele>
        <time>2014-01-12T09:55:04Z</time>
      </trkpt>
      <trkpt lat="45.637862998992205" lon="7.888890020549297">
        <ele>1793.96</ele>
        <time>2014-01-12T09:55:08Z</time>
      </trkpt>
      <trkpt lat="45.637962324544787" lon="7.888830676674843">
        <ele>1793.48</ele>
        <time>2014-01-12T09:55:23Z</time>
      </trkpt>
      <trkpt lat="45.637975903227925" lon="7.888826904818416">
        <ele>1793.96</ele>
        <time>2014-01-12T09:55:29Z</time>
      </trkpt>
      <trkpt lat="45.638000378385186" lon="7.888788683339953">
        <ele>1793.48</ele>
        <time>2014-01-12T09:55:43Z</time>
      </trkpt>
      <trkpt lat="45.6379927508533" lon="7.888820618391037">
        <ele>1793.96</ele>
        <time>2014-01-12T09:56:04Z</time>
      </trkpt>
      <trkpt lat="45.638003228232265" lon="7.88881148211658">
        <ele>1793.96</ele>
        <time>2014-01-12T09:56:21Z</time>
      </trkpt>
      <trkpt lat="45.638010855764151" lon="7.888803519308567">
        <ele>1793.96</ele>
        <time>2014-01-12T09:56:38Z</time>
      </trkpt>
      <trkpt lat="45.638025524094701" lon="7.888839896768332">
        <ele>1794.4400000000001</ele>
        <time>2014-01-12T09:56:51Z</time>
      </trkpt>
      <trkpt lat="45.638023931533098" lon="7.888880297541618">
        <ele>1793.96</ele>
        <time>2014-01-12T09:57:07Z</time>
      </trkpt>
      <trkpt lat="45.638018483296037" lon="7.888882393017411">
        <ele>1793.96</ele>
        <time>2014-01-12T09:57:23Z</time>
      </trkpt>
      <trkpt lat="45.638006497174501" lon="7.888862360268831">
        <ele>1794.4400000000001</ele>
        <time>2014-01-12T09:57:49Z</time>
      </trkpt>
      <trkpt lat="45.638088556006551" lon="7.888883063569665">
        <ele>1794.9200000000001</ele>
        <time>2014-01-12T09:58:06Z</time>
      </trkpt>
      <trkpt lat="45.638097189366817" lon="7.888884572312236">
        <ele>1794.9200000000001</ele>
        <time>2014-01-12T09:58:07Z</time>
      </trkpt>
      <trkpt lat="45.638111857697368" lon="7.888891445472837">
        <ele>1795.4000000000001</ele>
        <time>2014-01-12T09:58:20Z</time>
      </trkpt>
      <trkpt lat="45.638107750564814" lon="7.888888511806727">
        <ele>1794.9200000000001</ele>
        <time>2014-01-12T09:58:48Z</time>
      </trkpt>
      <trkpt lat="45.638104397803545" lon="7.888920865952969">
        <ele>1794.9200000000001</ele>
        <time>2014-01-12T09:58:52Z</time>
      </trkpt>
      <trkpt lat="45.638094507157803" lon="7.888938132673502">
        <ele>1794.9200000000001</ele>
        <time>2014-01-12T09:59:05Z</time>
      </trkpt>
      <trkpt lat="45.638099536299706" lon="7.888950789347291">
        <ele>1795.4000000000001</ele>
        <time>2014-01-12T09:59:21Z</time>
      </trkpt>
      <trkpt lat="45.638077994808555" lon="7.888937126845121">
        <ele>1794.9200000000001</ele>
        <time>2014-01-12T09:59:34Z</time>
      </trkpt>
      <trkpt lat="45.638071205466986" lon="7.888925643637776">
        <ele>1795.4000000000001</ele>
        <time>2014-01-12T09:59:57Z</time>
      </trkpt>
      <trkpt lat="45.638086376711726" lon="7.888891696929932">
        <ele>1794.9200000000001</ele>
        <time>2014-01-12T10:00:12Z</time>
      </trkpt>
      <trkpt lat="45.638065505772829" lon="7.888928828760982">
        <ele>1795.4000000000001</ele>
        <time>2014-01-12T10:00:43Z</time>
      </trkpt>
      <trkpt lat="45.638052262365818" lon="7.889001835137606">
        <ele>1795.8800000000001</ele>
        <time>2014-01-12T10:00:56Z</time>
      </trkpt>
      <trkpt lat="45.638082688674331" lon="7.889085570350289">
        <ele>1797.8</ele>
        <time>2014-01-12T10:01:09Z</time>
      </trkpt>
      <trkpt lat="45.638108504936099" lon="7.889194535091519">
        <ele>1799.73</ele>
        <time>2014-01-12T10:01:23Z</time>
      </trkpt>
      <trkpt lat="45.638143625110388" lon="7.889282293617725">
        <ele>1802.1300000000001</ele>
        <time>2014-01-12T10:01:37Z</time>
      </trkpt>
      <trkpt lat="45.638159634545445" lon="7.889297967776656">
        <ele>1802.1300000000001</ele>
        <time>2014-01-12T10:01:40Z</time>
      </trkpt>
      <trkpt lat="45.638216799125075" lon="7.889394527301192">
        <ele>1805.49</ele>
        <time>2014-01-12T10:01:51Z</time>
      </trkpt>
      <trkpt lat="45.638268766924739" lon="7.889418415725231">
        <ele>1807.4200000000001</ele>
        <time>2014-01-12T10:01:59Z</time>
      </trkpt>
      <trkpt lat="45.638365913182497" lon="7.889452613890171">
        <ele>1809.8199999999999</ele>
        <time>2014-01-12T10:02:14Z</time>
      </trkpt>
      <trkpt lat="45.63845450989902" lon="7.889584377408028">
        <ele>1812.7</ele>
        <time>2014-01-12T10:02:30Z</time>
      </trkpt>
      <trkpt lat="45.638549476861954" lon="7.88966853171587">
        <ele>1815.1099999999999</ele>
        <time>2014-01-12T10:02:46Z</time>
      </trkpt>
      <trkpt lat="45.638612424954772" lon="7.889757631346583">
        <ele>1817.03</ele>
        <time>2014-01-12T10:03:00Z</time>
      </trkpt>
      <trkpt lat="45.638693142682314" lon="7.889875397086144">
        <ele>1820.3900000000001</ele>
        <time>2014-01-12T10:03:17Z</time>
      </trkpt>
      <trkpt lat="45.638735052198172" lon="7.890042783692479">
        <ele>1823.28</ele>
        <time>2014-01-12T10:03:35Z</time>
      </trkpt>
      <trkpt lat="45.638803951442242" lon="7.890139343217015">
        <ele>1826.1600000000001</ele>
        <time>2014-01-12T10:03:51Z</time>
      </trkpt>
      <trkpt lat="45.638890704140067" lon="7.890225425362587">
        <ele>1829.05</ele>
        <time>2014-01-12T10:04:07Z</time>
      </trkpt>
      <trkpt lat="45.638916436582804" lon="7.890290971845388">
        <ele>1831.45</ele>
        <time>2014-01-12T10:04:21Z</time>
      </trkpt>
      <trkpt lat="45.638952562585473" lon="7.89035065099597">
        <ele>1833.8499999999999</ele>
        <time>2014-01-12T10:04:38Z</time>
      </trkpt>
      <trkpt lat="45.6390823982656" lon="7.890499178320169">
        <ele>1836.74</ele>
        <time>2014-01-12T10:04:59Z</time>
      </trkpt>
      <trkpt lat="45.639173090457916" lon="7.890618452802301">
        <ele>1840.0999999999999</ele>
        <time>2014-01-12T10:05:17Z</time>
      </trkpt>
      <trkpt lat="45.639252131804824" lon="7.890722472220659">
        <ele>1842.98</ele>
        <time>2014-01-12T10:05:38Z</time>
      </trkpt>
      <trkpt lat="45.639358665794134" lon="7.890800843015313">
        <ele>1845.8699999999999</ele>
        <time>2014-01-12T10:05:58Z</time>
      </trkpt>
      <trkpt lat="45.639451118186116" lon="7.890848033130169">
        <ele>1849.23</ele>
        <time>2014-01-12T10:06:16Z</time>
      </trkpt>
      <trkpt lat="45.639610793441534" lon="7.890827665105462">
        <ele>1852.1199999999999</ele>
        <time>2014-01-12T10:06:37Z</time>
      </trkpt>
      <trkpt lat="45.639737695455551" lon="7.890858594328165">
        <ele>1855</ele>
        <time>2014-01-12T10:06:56Z</time>
      </trkpt>
      <trkpt lat="45.6397610809654" lon="7.890863874927163">
        <ele>1855.96</ele>
        <time>2014-01-12T10:07:01Z</time>
      </trkpt>
      <trkpt lat="45.639842385426164" lon="7.890917351469398">
        <ele>1859.3299999999999</ele>
        <time>2014-01-12T10:07:21Z</time>
      </trkpt>
      <trkpt lat="45.639956882223487" lon="7.890939228236675">
        <ele>1861.25</ele>
        <time>2014-01-12T10:07:39Z</time>
      </trkpt>
      <trkpt lat="45.640019746497273" lon="7.890943000093103">
        <ele>1862.6900000000001</ele>
        <time>2014-01-12T10:07:57Z</time>
      </trkpt>
      <trkpt lat="45.640127789229155" lon="7.891010055318475">
        <ele>1865.0899999999999</ele>
        <time>2014-01-12T10:08:14Z</time>
      </trkpt>
      <trkpt lat="45.64016617834568" lon="7.891101334244013">
        <ele>1867.98</ele>
        <time>2014-01-12T10:08:27Z</time>
      </trkpt>
      <trkpt lat="45.640236921608448" lon="7.891184482723475">
        <ele>1871.3399999999999</ele>
        <time>2014-01-12T10:08:47Z</time>
      </trkpt>
      <trkpt lat="45.640203896909952" lon="7.891294034197927">
        <ele>1873.27</ele>
        <time>2014-01-12T10:09:04Z</time>
      </trkpt>
      <trkpt lat="45.64016081392765" lon="7.891264613717794">
        <ele>1874.23</ele>
        <time>2014-01-12T10:09:18Z</time>
      </trkpt>
      <trkpt lat="45.640107924118638" lon="7.89130543358624">
        <ele>1875.1900000000001</ele>
        <time>2014-01-12T10:09:35Z</time>
      </trkpt>
      <trkpt lat="45.640104487538338" lon="7.891268050298095">
        <ele>1875.1900000000001</ele>
        <time>2014-01-12T10:09:55Z</time>
      </trkpt>
      <trkpt lat="45.640097446739674" lon="7.891292106360197">
        <ele>1875.6700000000001</ele>
        <time>2014-01-12T10:10:16Z</time>
      </trkpt>
      <trkpt lat="45.640081521123648" lon="7.891432084143162">
        <ele>1878.0699999999999</ele>
        <time>2014-01-12T10:10:32Z</time>
      </trkpt>
      <trkpt lat="45.640158718451858" lon="7.891463600099087">
        <ele>1880.96</ele>
        <time>2014-01-12T10:10:45Z</time>
      </trkpt>
      <trkpt lat="45.640167016535997" lon="7.891460079699755">
        <ele>1880.96</ele>
        <time>2014-01-12T10:10:46Z</time>
      </trkpt>
      <trkpt lat="45.640245135873556" lon="7.891517663374543">
        <ele>1883.3599999999999</ele>
        <time>2014-01-12T10:11:00Z</time>
      </trkpt>
      <trkpt lat="45.640174308791757" lon="7.891606260091066">
        <ele>1885.28</ele>
        <time>2014-01-12T10:11:13Z</time>
      </trkpt>
      <trkpt lat="45.640161652117968" lon="7.891748081892729">
        <ele>1887.21</ele>
        <time>2014-01-12T10:11:28Z</time>
      </trkpt>
      <trkpt lat="45.640164250507951" lon="7.891825279220939">
        <ele>1889.6099999999999</ele>
        <time>2014-01-12T10:11:41Z</time>
      </trkpt>
      <trkpt lat="45.640169950202107" lon="7.89192552678287">
        <ele>1892.01</ele>
        <time>2014-01-12T10:11:57Z</time>
      </trkpt>
      <trkpt lat="45.640136757865548" lon="7.891990402713418">
        <ele>1894.4200000000001</ele>
        <time>2014-01-12T10:12:09Z</time>
      </trkpt>
      <trkpt lat="45.640145810320973" lon="7.892080172896385">
        <ele>1896.8199999999999</ele>
        <time>2014-01-12T10:12:24Z</time>
      </trkpt>
      <trkpt lat="45.640112031251192" lon="7.892086375504732">
        <ele>1897.78</ele>
        <time>2014-01-12T10:12:36Z</time>
      </trkpt>
      <trkpt lat="45.640158215537667" lon="7.892139600589871">
        <ele>1899.7</ele>
        <time>2014-01-12T10:12:49Z</time>
      </trkpt>
      <trkpt lat="45.640124939382076" lon="7.892194334417582">
        <ele>1900.6600000000001</ele>
        <time>2014-01-12T10:13:02Z</time>
      </trkpt>
      <trkpt lat="45.640091160312295" lon="7.89224018342793">
        <ele>1901.6300000000001</ele>
        <time>2014-01-12T10:13:16Z</time>
      </trkpt>
      <trkpt lat="45.64013340510428" lon="7.892359122633934">
        <ele>1904.51</ele>
        <time>2014-01-12T10:13:31Z</time>
      </trkpt>
      <trkpt lat="45.64018227159977" lon="7.892376976087689">
        <ele>1904.99</ele>
        <time>2014-01-12T10:13:46Z</time>
      </trkpt>
      <trkpt lat="45.640201130881906" lon="7.8924644831568">
        <ele>1906.4300000000001</ele>
        <time>2014-01-12T10:13:54Z</time>
      </trkpt>
      <trkpt lat="45.640194257721305" lon="7.892630780115724">
        <ele>1909.3199999999999</ele>
        <time>2014-01-12T10:14:11Z</time>
      </trkpt>
      <trkpt lat="45.640165507793427" lon="7.892737397924066">
        <ele>1911.24</ele>
        <time>2014-01-12T10:14:24Z</time>
      </trkpt>
      <trkpt lat="45.640142289921641" lon="7.892857594415546">
        <ele>1913.1600000000001</ele>
        <time>2014-01-12T10:14:38Z</time>
      </trkpt>
      <trkpt lat="45.640122843906283" lon="7.892913250252605">
        <ele>1914.5999999999999</ele>
        <time>2014-01-12T10:14:55Z</time>
      </trkpt>
      <trkpt lat="45.640073139220476" lon="7.893003104254603">
        <ele>1916.04</ele>
        <time>2014-01-12T10:15:17Z</time>
      </trkpt>
      <trkpt lat="45.640159556642175" lon="7.893089773133397">
        <ele>1918.45</ele>
        <time>2014-01-12T10:15:32Z</time>
      </trkpt>
      <trkpt lat="45.640122843906283" lon="7.893243497237563">
        <ele>1921.3299999999999</ele>
        <time>2014-01-12T10:15:49Z</time>
      </trkpt>
      <trkpt lat="45.640006922185421" lon="7.893323712050915">
        <ele>1923.74</ele>
        <time>2014-01-12T10:16:06Z</time>
      </trkpt>
      <trkpt lat="45.640000971034169" lon="7.893313486129046">
        <ele>1923.74</ele>
        <time>2014-01-12T10:16:07Z</time>
      </trkpt>
      <trkpt lat="45.639927797019482" lon="7.893176190555096">
        <ele>1925.6600000000001</ele>
        <time>2014-01-12T10:16:23Z</time>
      </trkpt>
      <trkpt lat="45.639834087342024" lon="7.893121792003512">
        <ele>1928.0599999999999</ele>
        <time>2014-01-12T10:16:41Z</time>
      </trkpt>
      <trkpt lat="45.639765858650208" lon="7.893235869705677">
        <ele>1930.95</ele>
        <time>2014-01-12T10:16:56Z</time>
      </trkpt>
      <trkpt lat="45.639746077358723" lon="7.893305188044906">
        <ele>1933.8299999999999</ele>
        <time>2014-01-12T10:17:13Z</time>
      </trkpt>
      <trkpt lat="45.639722775667906" lon="7.893387330695987">
        <ele>1935.75</ele>
        <time>2014-01-12T10:17:26Z</time>
      </trkpt>
      <trkpt lat="45.639687487855554" lon="7.893468802794814">
        <ele>1938.6400000000001</ele>
        <time>2014-01-12T10:17:42Z</time>
      </trkpt>
      <trkpt lat="45.639713723212481" lon="7.893570140004158">
        <ele>1941.04</ele>
        <time>2014-01-12T10:17:57Z</time>
      </trkpt>
      <trkpt lat="45.63961012288928" lon="7.893606014549732">
        <ele>1942.48</ele>
        <time>2014-01-12T10:18:11Z</time>
      </trkpt>
      <trkpt lat="45.639614397659898" lon="7.893592854961753">
        <ele>1943.9200000000001</ele>
        <time>2014-01-12T10:18:29Z</time>
      </trkpt>
      <trkpt lat="45.639608781784773" lon="7.89358145557344">
        <ele>1943.9200000000001</ele>
        <time>2014-01-12T10:18:45Z</time>
      </trkpt>
      <trkpt lat="45.639585983008146" lon="7.893583467230201">
        <ele>1942.48</ele>
        <time>2014-01-12T10:18:57Z</time>
      </trkpt>
      <trkpt lat="45.63958128914237" lon="7.893585227429867">
        <ele>1943.9200000000001</ele>
        <time>2014-01-12T10:19:17Z</time>
      </trkpt>
      <trkpt lat="45.63957248814404" lon="7.893580449745059">
        <ele>1943.9200000000001</ele>
        <time>2014-01-12T10:19:39Z</time>
      </trkpt>
      <trkpt lat="45.639567794278264" lon="7.893540132790804">
        <ele>1942.96</ele>
        <time>2014-01-12T10:19:55Z</time>
      </trkpt>
      <trkpt lat="45.639587575569749" lon="7.893577516078949">
        <ele>1944.4000000000001</ele>
        <time>2014-01-12T10:20:12Z</time>
      </trkpt>
      <trkpt lat="45.63963258638978" lon="7.893580617383122">
        <ele>1944.8800000000001</ele>
        <time>2014-01-12T10:20:29Z</time>
      </trkpt>
      <trkpt lat="45.639603920280933" lon="7.893573576584458">
        <ele>1944.8800000000001</ele>
        <time>2014-01-12T10:20:51Z</time>
      </trkpt>
      <trkpt lat="45.639586318284273" lon="7.893564272671938">
        <ele>1944.8800000000001</ele>
        <time>2014-01-12T10:21:10Z</time>
      </trkpt>
      <trkpt lat="45.639595119282603" lon="7.893552118912339">
        <ele>1944.4000000000001</ele>
        <time>2014-01-12T10:21:31Z</time>
      </trkpt>
      <trkpt lat="45.639607105404139" lon="7.893558572977781">
        <ele>1944.8800000000001</ele>
        <time>2014-01-12T10:22:00Z</time>
      </trkpt>
      <trkpt lat="45.639609368517995" lon="7.893563183024526">
        <ele>1944.8800000000001</ele>
        <time>2014-01-12T10:22:23Z</time>
      </trkpt>
      <trkpt lat="45.639649936929345" lon="7.893635770305991">
        <ele>1945.8499999999999</ele>
        <time>2014-01-12T10:22:42Z</time>
      </trkpt>
      <trkpt lat="45.639667874202132" lon="7.893698047846556">
        <ele>1946.8099999999999</ele>
        <time>2014-01-12T10:22:58Z</time>
      </trkpt>
      <trkpt lat="45.639647003263235" lon="7.893772730603814">
        <ele>1948.25</ele>
        <time>2014-01-12T10:23:04Z</time>
      </trkpt>
      <trkpt lat="45.639642141759396" lon="7.893888233229518">
        <ele>1951.1300000000001</ele>
        <time>2014-01-12T10:23:19Z</time>
      </trkpt>
      <trkpt lat="45.639608446508646" lon="7.893970040604472">
        <ele>1953.54</ele>
        <time>2014-01-12T10:23:35Z</time>
      </trkpt>
      <trkpt lat="45.639617582783103" lon="7.894068863242865">
        <ele>1956.9000000000001</ele>
        <time>2014-01-12T10:23:50Z</time>
      </trkpt>
      <trkpt lat="45.639651613309979" lon="7.894150922074914">
        <ele>1959.78</ele>
        <time>2014-01-12T10:24:04Z</time>
      </trkpt>
      <trkpt lat="45.639615068212152" lon="7.894228454679251">
        <ele>1961.71</ele>
        <time>2014-01-12T10:24:18Z</time>
      </trkpt>
      <trkpt lat="45.639591598883271" lon="7.894275728613138">
        <ele>1962.6700000000001</ele>
        <time>2014-01-12T10:24:32Z</time>
      </trkpt>
      <trkpt lat="45.639652283862233" lon="7.894299700856209">
        <ele>1964.1099999999999</ele>
        <time>2014-01-12T10:24:44Z</time>
      </trkpt>
      <trkpt lat="45.639731073752046" lon="7.89434957318008">
        <ele>1965.55</ele>
        <time>2014-01-12T10:24:56Z</time>
      </trkpt>
      <trkpt lat="45.639802068471909" lon="7.89444780908525">
        <ele>1967.48</ele>
        <time>2014-01-12T10:25:09Z</time>
      </trkpt>
      <trkpt lat="45.639812964946032" lon="7.894460717216134">
        <ele>1967.96</ele>
        <time>2014-01-12T10:25:12Z</time>
      </trkpt>
      <trkpt lat="45.639862334355712" lon="7.894540680572391">
        <ele>1969.8800000000001</ele>
        <time>2014-01-12T10:25:23Z</time>
      </trkpt>
      <trkpt lat="45.639923773705959" lon="7.894668588414788">
        <ele>1972.28</ele>
        <time>2014-01-12T10:25:40Z</time>
      </trkpt>
      <trkpt lat="45.639983117580414" lon="7.894787359982729">
        <ele>1973.72</ele>
        <time>2014-01-12T10:25:55Z</time>
      </trkpt>
      <trkpt lat="45.640005581080914" lon="7.894921638071537">
        <ele>1975.6500000000001</ele>
        <time>2014-01-12T10:26:10Z</time>
      </trkpt>
      <trkpt lat="45.640023853629827" lon="7.895013755187392">
        <ele>1977.0899999999999</ele>
        <time>2014-01-12T10:26:28Z</time>
      </trkpt>
      <trkpt lat="45.640065344050527" lon="7.895146356895566">
        <ele>1980.45</ele>
        <time>2014-01-12T10:26:46Z</time>
      </trkpt>
      <trkpt lat="45.640037097036839" lon="7.895216010510922">
        <ele>1982.3800000000001</ele>
        <time>2014-01-12T10:26:58Z</time>
      </trkpt>
      <trkpt lat="45.640067020431161" lon="7.895273845642805">
        <ele>1983.8199999999999</ele>
        <time>2014-01-12T10:27:11Z</time>
      </trkpt>
      <trkpt lat="45.640109600499272" lon="7.895356994122267">
        <ele>1986.7</ele>
        <time>2014-01-12T10:27:24Z</time>
      </trkpt>
      <trkpt lat="45.640089148655534" lon="7.895369986072183">
        <ele>1987.1800000000001</ele>
        <time>2014-01-12T10:27:36Z</time>
      </trkpt>
      <trkpt lat="45.640116641297936" lon="7.89543779566884">
        <ele>1987.1800000000001</ele>
        <time>2014-01-12T10:27:55Z</time>
      </trkpt>
      <trkpt lat="45.640141703188419" lon="7.895497474819422">
        <ele>1987.1800000000001</ele>
        <time>2014-01-12T10:28:02Z</time>
      </trkpt>
      <trkpt lat="45.640146229416132" lon="7.895659497007728">
        <ele>1988.1400000000001</ele>
        <time>2014-01-12T10:28:18Z</time>
      </trkpt>
      <trkpt lat="45.640135919675231" lon="7.895774245262146">
        <ele>1990.0699999999999</ele>
        <time>2014-01-12T10:28:31Z</time>
      </trkpt>
      <trkpt lat="45.640078168362379" lon="7.895903578028083">
        <ele>1993.4300000000001</ele>
        <time>2014-01-12T10:28:48Z</time>
      </trkpt>
      <trkpt lat="45.640009436756372" lon="7.896027211099863">
        <ele>1995.3499999999999</ele>
        <time>2014-01-12T10:29:06Z</time>
      </trkpt>
      <trkpt lat="45.639974568039179" lon="7.896025199443102">
        <ele>1997.28</ele>
        <time>2014-01-12T10:29:20Z</time>
      </trkpt>
      <trkpt lat="45.639977501705289" lon="7.895983457565308">
        <ele>1998.24</ele>
        <time>2014-01-12T10:29:23Z</time>
      </trkpt>
      <trkpt lat="45.639969706535339" lon="7.895886478945613">
        <ele>1998.72</ele>
        <time>2014-01-12T10:29:34Z</time>
      </trkpt>
      <trkpt lat="45.639978004619479" lon="7.895870469510555">
        <ele>1998.72</ele>
        <time>2014-01-12T10:29:51Z</time>
      </trkpt>
      <trkpt lat="45.639999462291598" lon="7.895814143121243">
        <ele>1999.6800000000001</ele>
        <time>2014-01-12T10:30:02Z</time>
      </trkpt>
      <trkpt lat="45.639981860294938" lon="7.895890083163977">
        <ele>1998.72</ele>
        <time>2014-01-12T10:30:07Z</time>
      </trkpt>
      <trkpt lat="45.639985548332334" lon="7.89604414254427">
        <ele>1997.28</ele>
        <time>2014-01-12T10:30:21Z</time>
      </trkpt>
      <trkpt lat="45.63996878452599" lon="7.896085465326905">
        <ele>1997.76</ele>
        <time>2014-01-12T10:30:30Z</time>
      </trkpt>
      <trkpt lat="45.639961492270231" lon="7.896113209426403">
        <ele>1997.28</ele>
        <time>2014-01-12T10:30:32Z</time>
      </trkpt>
      <trkpt lat="45.639952691271901" lon="7.896159142255783">
        <ele>1997.76</ele>
        <time>2014-01-12T10:30:35Z</time>
      </trkpt>
      <trkpt lat="45.639915559440851" lon="7.896309513598681">
        <ele>2000.1600000000001</ele>
        <time>2014-01-12T10:30:49Z</time>
      </trkpt>
      <trkpt lat="45.639888653531671" lon="7.896492909640074">
        <ele>2000.1600000000001</ele>
        <time>2014-01-12T10:31:02Z</time>
      </trkpt>
      <trkpt lat="45.639902567490935" lon="7.896670354530215">
        <ele>2001.1199999999999</ele>
        <time>2014-01-12T10:31:16Z</time>
      </trkpt>
      <trkpt lat="45.63991891220212" lon="7.896889038383961">
        <ele>2004.01</ele>
        <time>2014-01-12T10:31:34Z</time>
      </trkpt>
      <trkpt lat="45.639939699321985" lon="7.897000266239047">
        <ele>2004.97</ele>
        <time>2014-01-12T10:31:44Z</time>
      </trkpt>
      <trkpt lat="45.63994137570262" lon="7.89720956236124">
        <ele>2007.3699999999999</ele>
        <time>2014-01-12T10:32:01Z</time>
      </trkpt>
      <trkpt lat="45.639946991577744" lon="7.897220710292459">
        <ele>2007.3699999999999</ele>
        <time>2014-01-12T10:32:02Z</time>
      </trkpt>
      <trkpt lat="45.640035169199109" lon="7.897359598428011">
        <ele>2009.29</ele>
        <time>2014-01-12T10:32:17Z</time>
      </trkpt>
      <trkpt lat="45.640072217211127" lon="7.89747342467308">
        <ele>2010.25</ele>
        <time>2014-01-12T10:32:27Z</time>
      </trkpt>
      <trkpt lat="45.640062494203448" lon="7.897550035268068">
        <ele>2009.29</ele>
        <time>2014-01-12T10:32:41Z</time>
      </trkpt>
      <trkpt lat="45.640065176412463" lon="7.897539054974914">
        <ele>2009.29</ele>
        <time>2014-01-12T10:33:00Z</time>
      </trkpt>
      <trkpt lat="45.640067607164383" lon="7.897561518475413">
        <ele>2009.29</ele>
        <time>2014-01-12T10:33:19Z</time>
      </trkpt>
      <trkpt lat="45.640068864449859" lon="7.897568726912141">
        <ele>2009.29</ele>
        <time>2014-01-12T10:33:20Z</time>
      </trkpt>
      <trkpt lat="45.640105409547687" lon="7.89767375215888">
        <ele>2007.8499999999999</ele>
        <time>2014-01-12T10:33:33Z</time>
      </trkpt>
      <trkpt lat="45.64013977535069" lon="7.897795205935836">
        <ele>2007.3699999999999</ele>
        <time>2014-01-12T10:33:42Z</time>
      </trkpt>
      <trkpt lat="45.64018277451396" lon="7.89794934913516">
        <ele>2010.25</ele>
        <time>2014-01-12T10:33:57Z</time>
      </trkpt>
      <trkpt lat="45.640271287411451" lon="7.898110197857022">
        <ele>2011.7</ele>
        <time>2014-01-12T10:34:13Z</time>
      </trkpt>
      <trkpt lat="45.640276065096259" lon="7.898259060457349">
        <ele>2011.22</ele>
        <time>2014-01-12T10:34:24Z</time>
      </trkpt>
      <trkpt lat="45.640298193320632" lon="7.898481599986553">
        <ele>2010.73</ele>
        <time>2014-01-12T10:34:39Z</time>
      </trkpt>
      <trkpt lat="45.640327697619796" lon="7.898668851703405">
        <ele>2011.22</ele>
        <time>2014-01-12T10:34:53Z</time>
      </trkpt>
      <trkpt lat="45.640328619629145" lon="7.89879122748971">
        <ele>2013.6199999999999</ele>
        <time>2014-01-12T10:35:08Z</time>
      </trkpt>
      <trkpt lat="45.640343958511949" lon="7.899007732048631">
        <ele>2012.6600000000001</ele>
        <time>2014-01-12T10:35:24Z</time>
      </trkpt>
      <trkpt lat="45.640356531366706" lon="7.899236641824246">
        <ele>2009.77</ele>
        <time>2014-01-12T10:35:39Z</time>
      </trkpt>
      <trkpt lat="45.640340773388743" lon="7.899360191076994">
        <ele>2008.3299999999999</ele>
        <time>2014-01-12T10:35:52Z</time>
      </trkpt>
      <trkpt lat="45.640333397313952" lon="7.899400759488344">
        <ele>2007.3699999999999</ele>
        <time>2014-01-12T10:35:56Z</time>
      </trkpt>
      <trkpt lat="45.640330882743001" lon="7.899453397840262">
        <ele>2007.3699999999999</ele>
        <time>2014-01-12T10:36:00Z</time>
      </trkpt>
      <trkpt lat="45.640379162505269" lon="7.899623718112707">
        <ele>2006.4100000000001</ele>
        <time>2014-01-12T10:36:14Z</time>
      </trkpt>
      <trkpt lat="45.640399698168039" lon="7.899732431396842">
        <ele>2009.29</ele>
        <time>2014-01-12T10:36:27Z</time>
      </trkpt>
      <trkpt lat="45.640382934361696" lon="7.899861093610525">
        <ele>2011.22</ele>
        <time>2014-01-12T10:36:41Z</time>
      </trkpt>
      <trkpt lat="45.640360554680228" lon="7.899983385577798">
        <ele>2014.0999999999999</ele>
        <time>2014-01-12T10:36:55Z</time>
      </trkpt>
      <trkpt lat="45.640437249094248" lon="7.899938207119703">
        <ele>2015.54</ele>
        <time>2014-01-12T10:37:06Z</time>
      </trkpt>
      <trkpt lat="45.640470189973712" lon="7.899810299277306">
        <ele>2016.5</ele>
        <time>2014-01-12T10:37:21Z</time>
      </trkpt>
      <trkpt lat="45.640508579090238" lon="7.8998520411551">
        <ele>2018.4300000000001</ele>
        <time>2014-01-12T10:37:35Z</time>
      </trkpt>
      <trkpt lat="45.640487791970372" lon="7.89988431148231">
        <ele>2018.9100000000001</ele>
        <time>2014-01-12T10:37:50Z</time>
      </trkpt>
      <trkpt lat="45.640495587140322" lon="7.899911720305681">
        <ele>2020.3499999999999</ele>
        <time>2014-01-12T10:38:05Z</time>
      </trkpt>
      <trkpt lat="45.640539675951004" lon="7.899990929290652">
        <ele>2022.27</ele>
        <time>2014-01-12T10:38:17Z</time>
      </trkpt>
      <trkpt lat="45.64054923132062" lon="7.90006167255342">
        <ele>2024.1900000000001</ele>
        <time>2014-01-12T10:38:30Z</time>
      </trkpt>
      <trkpt lat="45.6405986007303" lon="7.900175163522363">
        <ele>2027.0799999999999</ele>
        <time>2014-01-12T10:38:44Z</time>
      </trkpt>
      <trkpt lat="45.64068216830492" lon="7.900244146585465">
        <ele>2029.48</ele>
        <time>2014-01-12T10:38:58Z</time>
      </trkpt>
      <trkpt lat="45.640698093920946" lon="7.900286223739386">
        <ele>2029.48</ele>
        <time>2014-01-12T10:39:08Z</time>
      </trkpt>
      <trkpt lat="45.640717875212431" lon="7.900328971445561">
        <ele>2030.4400000000001</ele>
        <time>2014-01-12T10:39:13Z</time>
      </trkpt>
      <trkpt lat="45.640812255442142" lon="7.900493089109659">
        <ele>2032.3599999999999</ele>
        <time>2014-01-12T10:39:28Z</time>
      </trkpt>
      <trkpt lat="45.640863971784711" lon="7.900605574250221">
        <ele>2035.25</ele>
        <time>2014-01-12T10:39:44Z</time>
      </trkpt>
      <trkpt lat="45.640916777774692" lon="7.900655865669251">
        <ele>2036.6900000000001</ele>
        <time>2014-01-12T10:39:57Z</time>
      </trkpt>
      <trkpt lat="45.640967153012753" lon="7.900711856782436">
        <ele>2039.0899999999999</ele>
        <time>2014-01-12T10:40:10Z</time>
      </trkpt>
      <trkpt lat="45.640939576551318" lon="7.900760555639863">
        <ele>2040.54</ele>
        <time>2014-01-12T10:40:22Z</time>
      </trkpt>
      <trkpt lat="45.640878723934293" lon="7.90080632083118">
        <ele>2041.98</ele>
        <time>2014-01-12T10:40:35Z</time>
      </trkpt>
      <trkpt lat="45.640802783891559" lon="7.900860048830509">
        <ele>2044.3800000000001</ele>
        <time>2014-01-12T10:40:50Z</time>
      </trkpt>
      <trkpt lat="45.640747798606753" lon="7.900890810415149">
        <ele>2045.8199999999999</ele>
        <time>2014-01-12T10:41:02Z</time>
      </trkpt>
      <trkpt lat="45.640693232417107" lon="7.90089818648994">
        <ele>2048.23</ele>
        <time>2014-01-12T10:41:19Z</time>
      </trkpt>
      <trkpt lat="45.640661381185055" lon="7.900924673303962">
        <ele>2049.1900000000001</ele>
        <time>2014-01-12T10:41:32Z</time>
      </trkpt>
      <trkpt lat="45.640703877434134" lon="7.900978652760387">
        <ele>2050.6300000000001</ele>
        <time>2014-01-12T10:41:43Z</time>
      </trkpt>
      <trkpt lat="45.640750313177705" lon="7.901048138737679">
        <ele>2052.5500000000002</ele>
        <time>2014-01-12T10:41:59Z</time>
      </trkpt>
      <trkpt lat="45.640776213258505" lon="7.901162216439843">
        <ele>2055.4400000000001</ele>
        <time>2014-01-12T10:42:13Z</time>
      </trkpt>
      <trkpt lat="45.640809573233128" lon="7.901222566142678">
        <ele>2056.4000000000001</ele>
        <time>2014-01-12T10:42:26Z</time>
      </trkpt>
      <trkpt lat="45.640836479142308" lon="7.901219045743346">
        <ele>2056.8800000000001</ele>
        <time>2014-01-12T10:42:38Z</time>
      </trkpt>
      <trkpt lat="45.64081996679306" lon="7.901222901418805">
        <ele>2056.8800000000001</ele>
        <time>2014-01-12T10:42:52Z</time>
      </trkpt>
      <trkpt lat="45.640825917944312" lon="7.901221811771393">
        <ele>2056.8800000000001</ele>
        <time>2014-01-12T10:42:58Z</time>
      </trkpt>
      <trkpt lat="45.640832120552659" lon="7.901207562536001">
        <ele>2056.8800000000001</ele>
        <time>2014-01-12T10:43:00Z</time>
      </trkpt>
      <trkpt lat="45.640832204371691" lon="7.901207394897938">
        <ele>2055.9200000000001</ele>
        <time>2014-01-12T10:43:13Z</time>
      </trkpt>
      <trkpt lat="45.640820050612092" lon="7.901223236694932">
        <ele>2056.8800000000001</ele>
        <time>2014-01-12T10:43:28Z</time>
      </trkpt>
      <trkpt lat="45.640810495242476" lon="7.901250813156366">
        <ele>2056.8800000000001</ele>
        <time>2014-01-12T10:43:57Z</time>
      </trkpt>
      <trkpt lat="45.640832623466849" lon="7.9012197162956">
        <ele>2056.4000000000001</ele>
        <time>2014-01-12T10:44:12Z</time>
      </trkpt>
      <trkpt lat="45.64082876779139" lon="7.901220889762044">
        <ele>2056.8800000000001</ele>
        <time>2014-01-12T10:44:32Z</time>
      </trkpt>
      <trkpt lat="45.640822649002075" lon="7.901218459010124">
        <ele>2057.3600000000001</ele>
        <time>2014-01-12T10:44:46Z</time>
      </trkpt>
      <trkpt lat="45.640815692022443" lon="7.901212088763714">
        <ele>2056.8800000000001</ele>
        <time>2014-01-12T10:45:01Z</time>
      </trkpt>
      <trkpt lat="45.640813931822777" lon="7.901212340220809">
        <ele>2056.8800000000001</ele>
        <time>2014-01-12T10:45:25Z</time>
      </trkpt>
      <trkpt lat="45.640830527991056" lon="7.901193648576737">
        <ele>2056.4000000000001</ele>
        <time>2014-01-12T10:45:45Z</time>
      </trkpt>
      <trkpt lat="45.640828683972359" lon="7.901183841750026">
        <ele>2056.4000000000001</ele>
        <time>2014-01-12T10:46:14Z</time>
      </trkpt>
      <trkpt lat="45.640827594324946" lon="7.901189960539341">
        <ele>2056.4000000000001</ele>
        <time>2014-01-12T10:46:32Z</time>
      </trkpt>
      <trkpt lat="45.640836311504245" lon="7.9012162797153">
        <ele>2056.4000000000001</ele>
        <time>2014-01-12T10:46:53Z</time>
      </trkpt>
      <trkpt lat="45.640839077532291" lon="7.901212843134999">
        <ele>2056.4000000000001</ele>
        <time>2014-01-12T10:47:19Z</time>
      </trkpt>
      <trkpt lat="45.640837149694562" lon="7.901193480938673">
        <ele>2056.4000000000001</ele>
        <time>2014-01-12T10:47:47Z</time>
      </trkpt>
      <trkpt lat="45.640820637345314" lon="7.901166491210461">
        <ele>2056.4000000000001</ele>
        <time>2014-01-12T10:48:24Z</time>
      </trkpt>
      <trkpt lat="45.640820804983377" lon="7.901162216439843">
        <ele>2056.4000000000001</ele>
        <time>2014-01-12T10:48:55Z</time>
      </trkpt>
      <trkpt lat="45.640837317332625" lon="7.9011938162148">
        <ele>2056.4000000000001</ele>
        <time>2014-01-12T10:49:39Z</time>
      </trkpt>
      <trkpt lat="45.640835724771023" lon="7.901185099035502">
        <ele>2056.4000000000001</ele>
        <time>2014-01-12T10:50:03Z</time>
      </trkpt>
      <trkpt lat="45.640823654830456" lon="7.901171604171395">
        <ele>2057.3600000000001</ele>
        <time>2014-01-12T10:50:12Z</time>
      </trkpt>
      <trkpt lat="45.640817284584045" lon="7.901183506473899">
        <ele>2057.8400000000001</ele>
        <time>2014-01-12T10:50:23Z</time>
      </trkpt>
      <trkpt lat="45.640817787498236" lon="7.901177555322647">
        <ele>2057.8400000000001</ele>
        <time>2014-01-12T10:50:44Z</time>
      </trkpt>
      <trkpt lat="45.640813680365682" lon="7.901202868670225">
        <ele>2057.3600000000001</ele>
        <time>2014-01-12T10:50:59Z</time>
      </trkpt>
      <trkpt lat="45.64083069562912" lon="7.901218123733997">
        <ele>2057.8400000000001</ele>
        <time>2014-01-12T10:51:21Z</time>
      </trkpt>
      <trkpt lat="45.640829270705581" lon="7.901224410161376">
        <ele>2057.8400000000001</ele>
        <time>2014-01-12T10:51:37Z</time>
      </trkpt>
      <trkpt lat="45.640825163573027" lon="7.901203287765384">
        <ele>2057.3600000000001</ele>
        <time>2014-01-12T10:51:55Z</time>
      </trkpt>
      <trkpt lat="45.640832455828786" lon="7.901203455403447">
        <ele>2057.8400000000001</ele>
        <time>2014-01-12T10:52:23Z</time>
      </trkpt>
      <trkpt lat="45.640813848003745" lon="7.901189373806119">
        <ele>2057.8400000000001</ele>
        <time>2014-01-12T10:52:42Z</time>
      </trkpt>
      <trkpt lat="45.640820385888219" lon="7.901203539222479">
        <ele>2057.8400000000001</ele>
        <time>2014-01-12T10:53:00Z</time>
      </trkpt>
      <trkpt lat="45.640814183279872" lon="7.901190044358373">
        <ele>2057.3600000000001</ele>
        <time>2014-01-12T10:53:22Z</time>
      </trkpt>
      <trkpt lat="45.640812842175364" lon="7.901196582242847">
        <ele>2057.8400000000001</ele>
        <time>2014-01-12T10:53:40Z</time>
      </trkpt>
      <trkpt lat="45.640827426686883" lon="7.90120018646121">
        <ele>2057.8400000000001</ele>
        <time>2014-01-12T10:53:57Z</time>
      </trkpt>
      <trkpt lat="45.640831450000405" lon="7.901211082935333">
        <ele>2058.3200000000002</ele>
        <time>2014-01-12T10:54:22Z</time>
      </trkpt>
      <trkpt lat="45.640842597931623" lon="7.901226170361042">
        <ele>2057.8400000000001</ele>
        <time>2014-01-12T10:54:44Z</time>
      </trkpt>
      <trkpt lat="45.640827845782042" lon="7.901204209774733">
        <ele>2057.8400000000001</ele>
        <time>2014-01-12T10:55:07Z</time>
      </trkpt>
      <trkpt lat="45.640820385888219" lon="7.901216447353363">
        <ele>2057.8400000000001</ele>
        <time>2014-01-12T10:55:29Z</time>
      </trkpt>
      <trkpt lat="45.640815775841475" lon="7.901219632476568">
        <ele>2057.8400000000001</ele>
        <time>2014-01-12T10:55:42Z</time>
      </trkpt>
      <trkpt lat="45.640816362574697" lon="7.901263805106282">
        <ele>2058.3200000000002</ele>
        <time>2014-01-12T10:55:54Z</time>
      </trkpt>
      <trkpt lat="45.640783756971359" lon="7.901229774579406">
        <ele>2057.3600000000001</ele>
        <time>2014-01-12T10:56:04Z</time>
      </trkpt>
      <trkpt lat="45.640780152752995" lon="7.901198761537671">
        <ele>2056.8800000000001</ele>
        <time>2014-01-12T10:56:15Z</time>
      </trkpt>
      <trkpt lat="45.640783924609423" lon="7.901209490373731">
        <ele>2057.3600000000001</ele>
        <time>2014-01-12T10:56:37Z</time>
      </trkpt>
      <trkpt lat="45.640776213258505" lon="7.901228433474898">
        <ele>2056.8800000000001</ele>
        <time>2014-01-12T10:56:54Z</time>
      </trkpt>
      <trkpt lat="45.640775458887219" lon="7.901204042136669">
        <ele>2056.8800000000001</ele>
        <time>2014-01-12T10:57:26Z</time>
      </trkpt>
      <trkpt lat="45.640804124996066" lon="7.901232456788421">
        <ele>2057.3600000000001</ele>
        <time>2014-01-12T10:57:45Z</time>
      </trkpt>
      <trkpt lat="45.640815692022443" lon="7.901268163695931">
        <ele>2057.8400000000001</ele>
        <time>2014-01-12T10:57:59Z</time>
      </trkpt>
      <trkpt lat="45.640836982056499" lon="7.901336727663875">
        <ele>2058.3200000000002</ele>
        <time>2014-01-12T10:58:14Z</time>
      </trkpt>
      <trkpt lat="45.640823319554329" lon="7.901365729048848">
        <ele>2057.8400000000001</ele>
        <time>2014-01-12T10:58:30Z</time>
      </trkpt>
      <trkpt lat="45.640809992328286" lon="7.901469161733985">
        <ele>2056.4000000000001</ele>
        <time>2014-01-12T10:58:36Z</time>
      </trkpt>
      <trkpt lat="45.640818290412426" lon="7.901522470638156">
        <ele>2055.4400000000001</ele>
        <time>2014-01-12T10:58:39Z</time>
      </trkpt>
      <trkpt lat="45.640741512179375" lon="7.901747692376375">
        <ele>2053.5100000000002</ele>
        <time>2014-01-12T10:58:53Z</time>
      </trkpt>
      <trkpt lat="45.640693064779043" lon="7.901884317398071">
        <ele>2051.1100000000001</ele>
        <time>2014-01-12T10:59:05Z</time>
      </trkpt>
      <trkpt lat="45.640622992068529" lon="7.902063271030784">
        <ele>2048.23</ele>
        <time>2014-01-12T10:59:21Z</time>
      </trkpt>
      <trkpt lat="45.640558786690235" lon="7.902234764769673">
        <ele>2047.26</ele>
        <time>2014-01-12T10:59:35Z</time>
      </trkpt>
      <trkpt lat="45.640542358160019" lon="7.902259323745966">
        <ele>2046.78</ele>
        <time>2014-01-12T10:59:46Z</time>
      </trkpt>
      <trkpt lat="45.64046080224216" lon="7.902360744774342">
        <ele>2046.78</ele>
        <time>2014-01-12T10:59:55Z</time>
      </trkpt>
      <trkpt lat="45.640420569106936" lon="7.902559312060475">
        <ele>2047.26</ele>
        <time>2014-01-12T11:00:11Z</time>
      </trkpt>
      <trkpt lat="45.640382515266538" lon="7.902735248208046">
        <ele>2046.3</ele>
        <time>2014-01-12T11:00:24Z</time>
      </trkpt>
      <trkpt lat="45.640346221625805" lon="7.90289668366313">
        <ele>2044.3800000000001</ele>
        <time>2014-01-12T11:00:38Z</time>
      </trkpt>
      <trkpt lat="45.640348233282566" lon="7.902916464954615">
        <ele>2044.3800000000001</ele>
        <time>2014-01-12T11:00:41Z</time>
      </trkpt>
      <trkpt lat="45.640330128371716" lon="7.903131376951933">
        <ele>2042.9400000000001</ele>
        <time>2014-01-12T11:00:56Z</time>
      </trkpt>
      <trkpt lat="45.640327613800764" lon="7.903234139084816">
        <ele>2043.4200000000001</ele>
        <time>2014-01-12T11:01:05Z</time>
      </trkpt>
      <trkpt lat="45.640315879136324" lon="7.903407895937562">
        <ele>2043.4200000000001</ele>
        <time>2014-01-12T11:01:18Z</time>
      </trkpt>
      <trkpt lat="45.640320992097259" lon="7.903584334999323">
        <ele>2041.02</ele>
        <time>2014-01-12T11:01:33Z</time>
      </trkpt>
      <trkpt lat="45.640325518324971" lon="7.903696987777948">
        <ele>2041.98</ele>
        <time>2014-01-12T11:01:49Z</time>
      </trkpt>
      <trkpt lat="45.640323590487242" lon="7.903791032731533">
        <ele>2041.5</ele>
        <time>2014-01-12T11:01:57Z</time>
      </trkpt>
      <trkpt lat="45.640309257432818" lon="7.90395992808044">
        <ele>2042.9400000000001</ele>
        <time>2014-01-12T11:02:13Z</time>
      </trkpt>
      <trkpt lat="45.640305317938328" lon="7.903982559219003">
        <ele>2042.9400000000001</ele>
        <time>2014-01-12T11:02:15Z</time>
      </trkpt>
      <trkpt lat="45.640298025682569" lon="7.904051626101136">
        <ele>2042.46</ele>
        <time>2014-01-12T11:02:20Z</time>
      </trkpt>
      <trkpt lat="45.640269862487912" lon="7.904231501743197">
        <ele>2042.46</ele>
        <time>2014-01-12T11:02:35Z</time>
      </trkpt>
      <trkpt lat="45.640230299904943" lon="7.904412802308798">
        <ele>2043.9000000000001</ele>
        <time>2014-01-12T11:02:51Z</time>
      </trkpt>
      <trkpt lat="45.640196269378066" lon="7.904561329632998">
        <ele>2045.3399999999999</ele>
        <time>2014-01-12T11:03:07Z</time>
      </trkpt>
      <trkpt lat="45.640149163082242" lon="7.904678341001272">
        <ele>2047.26</ele>
        <time>2014-01-12T11:03:21Z</time>
      </trkpt>
      <trkpt lat="45.640049669891596" lon="7.90478378534317">
        <ele>2048.23</ele>
        <time>2014-01-12T11:03:37Z</time>
      </trkpt>
      <trkpt lat="45.640050424262881" lon="7.904844721779227">
        <ele>2047.75</ele>
        <time>2014-01-12T11:03:52Z</time>
      </trkpt>
      <trkpt lat="45.640038605779409" lon="7.904824437573552">
        <ele>2046.78</ele>
        <time>2014-01-12T11:04:02Z</time>
      </trkpt>
      <trkpt lat="45.640047574415803" lon="7.904824269935489">
        <ele>2046.78</ele>
        <time>2014-01-12T11:04:21Z</time>
      </trkpt>
      <trkpt lat="45.640048496425152" lon="7.90482385084033">
        <ele>2047.26</ele>
        <time>2014-01-12T11:04:48Z</time>
      </trkpt>
      <trkpt lat="45.640052100643516" lon="7.904827538877726">
        <ele>2046.78</ele>
        <time>2014-01-12T11:05:17Z</time>
      </trkpt>
      <trkpt lat="45.64005134627223" lon="7.904824437573552">
        <ele>2047.26</ele>
        <time>2014-01-12T11:05:41Z</time>
      </trkpt>
      <trkpt lat="45.640054615214467" lon="7.904821252450347">
        <ele>2046.78</ele>
        <time>2014-01-12T11:06:12Z</time>
      </trkpt>
      <trkpt lat="45.640054447576404" lon="7.904804153367877">
        <ele>2048.23</ele>
        <time>2014-01-12T11:06:30Z</time>
      </trkpt>
      <trkpt lat="45.640040365979075" lon="7.904800046235323">
        <ele>2047.75</ele>
        <time>2014-01-12T11:06:47Z</time>
      </trkpt>
      <trkpt lat="45.640041623264551" lon="7.904816893860698">
        <ele>2047.26</ele>
        <time>2014-01-12T11:07:02Z</time>
      </trkpt>
      <trkpt lat="45.640051681548357" lon="7.904814044013619">
        <ele>2047.75</ele>
        <time>2014-01-12T11:07:15Z</time>
      </trkpt>
      <trkpt lat="45.640048328787088" lon="7.904837680980563">
        <ele>2048.23</ele>
        <time>2014-01-12T11:07:32Z</time>
      </trkpt>
      <trkpt lat="45.640066098421812" lon="7.904853103682399">
        <ele>2048.23</ele>
        <time>2014-01-12T11:07:50Z</time>
      </trkpt>
      <trkpt lat="45.640087556093931" lon="7.904891157522798">
        <ele>2049.1900000000001</ele>
        <time>2014-01-12T11:07:55Z</time>
      </trkpt>
      <trkpt lat="45.640071462839842" lon="7.905032057315111">
        <ele>2050.6300000000001</ele>
        <time>2014-01-12T11:08:09Z</time>
      </trkpt>
      <trkpt lat="45.640054196119308" lon="7.905170442536473">
        <ele>2053.0300000000002</ele>
        <time>2014-01-12T11:08:23Z</time>
      </trkpt>
      <trkpt lat="45.640109684318304" lon="7.905256692320108">
        <ele>2055.4400000000001</ele>
        <time>2014-01-12T11:08:36Z</time>
      </trkpt>
      <trkpt lat="45.640139104798436" lon="7.905324166640639">
        <ele>2056.8800000000001</ele>
        <time>2014-01-12T11:08:48Z</time>
      </trkpt>
      <trkpt lat="45.640163160860538" lon="7.905373619869351">
        <ele>2057.8400000000001</ele>
        <time>2014-01-12T11:09:02Z</time>
      </trkpt>
      <trkpt lat="45.640150420367718" lon="7.905503790825605">
        <ele>2059.7600000000002</ele>
        <time>2014-01-12T11:09:18Z</time>
      </trkpt>
      <trkpt lat="45.640140864998102" lon="7.90562273003161">
        <ele>2062.1700000000001</ele>
        <time>2014-01-12T11:09:37Z</time>
      </trkpt>
      <trkpt lat="45.640180595219135" lon="7.905677212402225">
        <ele>2064.0900000000001</ele>
        <time>2014-01-12T11:09:50Z</time>
      </trkpt>
      <trkpt lat="45.640207584947348" lon="7.905752900987864">
        <ele>2066.4899999999998</ele>
        <time>2014-01-12T11:10:04Z</time>
      </trkpt>
      <trkpt lat="45.640218900516629" lon="7.905841330066323">
        <ele>2068.4099999999999</ele>
        <time>2014-01-12T11:10:18Z</time>
      </trkpt>
      <trkpt lat="45.640198867768049" lon="7.905946606770158">
        <ele>2069.8600000000001</ele>
        <time>2014-01-12T11:10:33Z</time>
      </trkpt>
      <trkpt lat="45.640176152810454" lon="7.906048195436597">
        <ele>2072.2600000000002</ele>
        <time>2014-01-12T11:10:50Z</time>
      </trkpt>
      <trkpt lat="45.640167100355029" lon="7.906129332259297">
        <ele>2073.2199999999998</ele>
        <time>2014-01-12T11:11:03Z</time>
      </trkpt>
      <trkpt lat="45.64012804068625" lon="7.906156992539764">
        <ele>2075.1399999999999</ele>
        <time>2014-01-12T11:11:14Z</time>
      </trkpt>
      <trkpt lat="45.640079928562045" lon="7.90622916072607">
        <ele>2078.0300000000002</ele>
        <time>2014-01-12T11:11:26Z</time>
      </trkpt>
      <trkpt lat="45.640061823651195" lon="7.906255228444934">
        <ele>2078.9899999999998</ele>
        <time>2014-01-12T11:11:30Z</time>
      </trkpt>
      <trkpt lat="45.640097530558705" lon="7.906338460743427">
        <ele>2081.3899999999999</ele>
        <time>2014-01-12T11:11:43Z</time>
      </trkpt>
      <trkpt lat="45.640088645741343" lon="7.906349441036582">
        <ele>2083.79</ele>
        <time>2014-01-12T11:11:55Z</time>
      </trkpt>
      <trkpt lat="45.640095015987754" lon="7.906444575637579">
        <ele>2086.1999999999998</ele>
        <time>2014-01-12T11:12:10Z</time>
      </trkpt>
      <trkpt lat="45.640004239976406" lon="7.906502913683653">
        <ele>2089.0799999999999</ele>
        <time>2014-01-12T11:12:29Z</time>
      </trkpt>
      <trkpt lat="45.639960570260882" lon="7.906602993607521">
        <ele>2091.4899999999998</ele>
        <time>2014-01-12T11:12:46Z</time>
      </trkpt>
      <trkpt lat="45.63986174762249" lon="7.906789323315024">
        <ele>2092.9299999999998</ele>
        <time>2014-01-12T11:13:05Z</time>
      </trkpt>
      <trkpt lat="45.639784131199121" lon="7.906897198408842">
        <ele>2094.3699999999999</ele>
        <time>2014-01-12T11:13:19Z</time>
      </trkpt>
      <trkpt lat="45.639711124822497" lon="7.906954446807504">
        <ele>2096.77</ele>
        <time>2014-01-12T11:13:34Z</time>
      </trkpt>
      <trkpt lat="45.639688661321998" lon="7.906959224492312">
        <ele>2098.21</ele>
        <time>2014-01-12T11:13:58Z</time>
      </trkpt>
      <trkpt lat="45.639626970514655" lon="7.907020915299654">
        <ele>2101.0999999999999</ele>
        <time>2014-01-12T11:14:10Z</time>
      </trkpt>
      <trkpt lat="45.639559999108315" lon="7.907089814543724">
        <ele>2103.98</ele>
        <time>2014-01-12T11:14:23Z</time>
      </trkpt>
      <trkpt lat="45.639616157859564" lon="7.907146392390132">
        <ele>2105.9099999999999</ele>
        <time>2014-01-12T11:14:35Z</time>
      </trkpt>
      <trkpt lat="45.639655385166407" lon="7.907233061268926">
        <ele>2109.27</ele>
        <time>2014-01-12T11:14:49Z</time>
      </trkpt>
      <trkpt lat="45.6396609172225" lon="7.907342445105314">
        <ele>2111.1900000000001</ele>
        <time>2014-01-12T11:15:04Z</time>
      </trkpt>
      <trkpt lat="45.639659911394119" lon="7.907481417059898">
        <ele>2113.5999999999999</ele>
        <time>2014-01-12T11:15:20Z</time>
      </trkpt>
      <trkpt lat="45.639608530327678" lon="7.907517207786441">
        <ele>2116</ele>
        <time>2014-01-12T11:15:32Z</time>
      </trkpt>
      <trkpt lat="45.6395573168993" lon="7.907551825046539">
        <ele>2117.9200000000001</ele>
        <time>2014-01-12T11:15:45Z</time>
      </trkpt>
      <trkpt lat="45.639488669112325" lon="7.90759390220046">
        <ele>2120.3200000000002</ele>
        <time>2014-01-12T11:15:58Z</time>
      </trkpt>
      <trkpt lat="45.63944592140615" lon="7.90766129270196">
        <ele>2122.73</ele>
        <time>2014-01-12T11:16:12Z</time>
      </trkpt>
      <trkpt lat="45.639437874779105" lon="7.907760618254542">
        <ele>2125.1300000000001</ele>
        <time>2014-01-12T11:16:27Z</time>
      </trkpt>
      <trkpt lat="45.639404430985451" lon="7.907801270484924">
        <ele>2127.5300000000002</ele>
        <time>2014-01-12T11:16:39Z</time>
      </trkpt>
      <trkpt lat="45.639369394630194" lon="7.907874947413802">
        <ele>2129.9400000000001</ele>
        <time>2014-01-12T11:16:55Z</time>
      </trkpt>
      <trkpt lat="45.639421278610826" lon="7.90796035900712">
        <ele>2133.3000000000002</ele>
        <time>2014-01-12T11:17:10Z</time>
      </trkpt>
      <trkpt lat="45.639456650242209" lon="7.908021043986082">
        <ele>2135.23</ele>
        <time>2014-01-12T11:17:24Z</time>
      </trkpt>
      <trkpt lat="45.639492524787784" lon="7.908101426437497">
        <ele>2138.5900000000001</ele>
        <time>2014-01-12T11:17:38Z</time>
      </trkpt>
      <trkpt lat="45.63953778706491" lon="7.908224808052182">
        <ele>2140.0300000000002</ele>
        <time>2014-01-12T11:17:53Z</time>
      </trkpt>
      <trkpt lat="45.639575673267245" lon="7.908313069492579">
        <ele>2141.4699999999998</ele>
        <time>2014-01-12T11:18:06Z</time>
      </trkpt>
      <trkpt lat="45.639548432081938" lon="7.90838398039341">
        <ele>2143.8800000000001</ele>
        <time>2014-01-12T11:18:17Z</time>
      </trkpt>
      <trkpt lat="45.639534434303641" lon="7.908480120822787">
        <ele>2145.8000000000002</ele>
        <time>2014-01-12T11:18:32Z</time>
      </trkpt>
      <trkpt lat="45.639532255008817" lon="7.908557234331965">
        <ele>2148.1999999999998</ele>
        <time>2014-01-12T11:18:46Z</time>
      </trkpt>
      <trkpt lat="45.639521442353725" lon="7.908631414175034">
        <ele>2150.6100000000001</ele>
        <time>2014-01-12T11:19:02Z</time>
      </trkpt>
      <trkpt lat="45.639537200331688" lon="7.908689752221108">
        <ele>2152.0500000000002</ele>
        <time>2014-01-12T11:19:21Z</time>
      </trkpt>
      <trkpt lat="45.639528902247548" lon="7.908779606223106">
        <ele>2154.9299999999998</ele>
        <time>2014-01-12T11:19:36Z</time>
      </trkpt>
      <trkpt lat="45.639457069337368" lon="7.908763429149985">
        <ele>2157.3400000000001</ele>
        <time>2014-01-12T11:19:49Z</time>
      </trkpt>
      <trkpt lat="45.639438712969422" lon="7.908777175471187">
        <ele>2158.7800000000002</ele>
        <time>2014-01-12T11:20:04Z</time>
      </trkpt>
      <trkpt lat="45.639427062124014" lon="7.908800477162004">
        <ele>2159.7399999999998</ele>
        <time>2014-01-12T11:20:14Z</time>
      </trkpt>
      <trkpt lat="45.639456063508987" lon="7.908873902633786">
        <ele>2162.6199999999999</ele>
        <time>2014-01-12T11:20:28Z</time>
      </trkpt>
      <trkpt lat="45.639464948326349" lon="7.908916734158993">
        <ele>2164.5500000000002</ele>
        <time>2014-01-12T11:20:43Z</time>
      </trkpt>
      <trkpt lat="45.639474922791123" lon="7.908933833241463">
        <ele>2165.5100000000002</ele>
        <time>2014-01-12T11:20:59Z</time>
      </trkpt>
      <trkpt lat="45.639485903084278" lon="7.908998960629106">
        <ele>2167.4299999999998</ele>
        <time>2014-01-12T11:21:11Z</time>
      </trkpt>
      <trkpt lat="45.639509707689285" lon="7.90906953625381">
        <ele>2167.9099999999999</ele>
        <time>2014-01-12T11:21:23Z</time>
      </trkpt>
      <trkpt lat="45.639486825093627" lon="7.909114463254809">
        <ele>2170.3099999999999</ele>
        <time>2014-01-12T11:21:36Z</time>
      </trkpt>
      <trkpt lat="45.63946989364922" lon="7.909102644771338">
        <ele>2170.79</ele>
        <time>2014-01-12T11:21:38Z</time>
      </trkpt>
      <trkpt lat="45.639449190348387" lon="7.909180009737611">
        <ele>2173.6799999999998</ele>
        <time>2014-01-12T11:21:50Z</time>
      </trkpt>
      <trkpt lat="45.639431672170758" lon="7.909244634211063">
        <ele>2176.0799999999999</ele>
        <time>2014-01-12T11:22:03Z</time>
      </trkpt>
      <trkpt lat="45.639432091265917" lon="7.909256285056472">
        <ele>2177.52</ele>
        <time>2014-01-12T11:22:18Z</time>
      </trkpt>
      <trkpt lat="45.639431085437536" lon="7.909242957830429">
        <ele>2177.52</ele>
        <time>2014-01-12T11:22:33Z</time>
      </trkpt>
      <trkpt lat="45.639431588351727" lon="7.909244047477841">
        <ele>2177.52</ele>
        <time>2014-01-12T11:22:47Z</time>
      </trkpt>
      <trkpt lat="45.63942932523787" lon="7.909209346398711">
        <ele>2176.5599999999999</ele>
        <time>2014-01-12T11:23:11Z</time>
      </trkpt>
      <trkpt lat="45.639448519796133" lon="7.909168191254139">
        <ele>2175.1199999999999</ele>
        <time>2014-01-12T11:23:25Z</time>
      </trkpt>
      <trkpt lat="45.639456482604146" lon="7.909116642549634">
        <ele>2173.1999999999998</ele>
        <time>2014-01-12T11:23:38Z</time>
      </trkpt>
      <trkpt lat="45.639458494260907" lon="7.909106332808733">
        <ele>2172.7199999999998</ele>
        <time>2014-01-12T11:23:53Z</time>
      </trkpt>
      <trkpt lat="45.639455392956734" lon="7.909102225676179">
        <ele>2172.2399999999998</ele>
        <time>2014-01-12T11:24:11Z</time>
      </trkpt>
      <trkpt lat="45.639455895870924" lon="7.909087557345629">
        <ele>2171.27</ele>
        <time>2014-01-12T11:24:24Z</time>
      </trkpt>
      <trkpt lat="45.639469474554062" lon="7.909105746075511">
        <ele>2171.27</ele>
        <time>2014-01-12T11:24:37Z</time>
      </trkpt>
      <trkpt lat="45.639487747102976" lon="7.90913793258369">
        <ele>2172.2399999999998</ele>
        <time>2014-01-12T11:24:50Z</time>
      </trkpt>
      <trkpt lat="45.63948942348361" lon="7.909142291173339">
        <ele>2172.2399999999998</ele>
        <time>2014-01-12T11:25:08Z</time>
      </trkpt>
      <trkpt lat="45.63947475515306" lon="7.909129299223423">
        <ele>2172.2399999999998</ele>
        <time>2014-01-12T11:25:26Z</time>
      </trkpt>
      <trkpt lat="45.639467965811491" lon="7.909134328365326">
        <ele>2172.2399999999998</ele>
        <time>2014-01-12T11:25:45Z</time>
      </trkpt>
      <trkpt lat="45.639469223096967" lon="7.909124186262488">
        <ele>2172.2399999999998</ele>
        <time>2014-01-12T11:26:03Z</time>
      </trkpt>
      <trkpt lat="45.639465618878603" lon="7.909128377214074">
        <ele>2172.2399999999998</ele>
        <time>2014-01-12T11:26:21Z</time>
      </trkpt>
      <trkpt lat="45.639469223096967" lon="7.909145057201386">
        <ele>2172.7199999999998</ele>
        <time>2014-01-12T11:26:36Z</time>
      </trkpt>
      <trkpt lat="45.639486322179437" lon="7.909152852371335">
        <ele>2173.1999999999998</ele>
        <time>2014-01-12T11:26:59Z</time>
      </trkpt>
      <trkpt lat="45.63947718590498" lon="7.909146482124925">
        <ele>2172.7199999999998</ele>
        <time>2014-01-12T11:27:19Z</time>
      </trkpt>
      <trkpt lat="45.639458913356066" lon="7.909109937027097">
        <ele>2172.7199999999998</ele>
        <time>2014-01-12T11:27:34Z</time>
      </trkpt>
      <trkpt lat="45.639464529231191" lon="7.909109685570002">
        <ele>2172.7199999999998</ele>
        <time>2014-01-12T11:27:45Z</time>
      </trkpt>
      <trkpt lat="45.639474168419838" lon="7.909165089949966">
        <ele>2174.1599999999999</ele>
        <time>2014-01-12T11:27:59Z</time>
      </trkpt>
      <trkpt lat="45.639477437362075" lon="7.909182189032435">
        <ele>2174.6399999999999</ele>
        <time>2014-01-12T11:28:11Z</time>
      </trkpt>
      <trkpt lat="45.639479532837868" lon="7.909148577600718">
        <ele>2174.1599999999999</ele>
        <time>2014-01-12T11:28:39Z</time>
      </trkpt>
      <trkpt lat="45.639473078772426" lon="7.909169364720583">
        <ele>2174.1599999999999</ele>
        <time>2014-01-12T11:29:07Z</time>
      </trkpt>
      <trkpt lat="45.639460841193795" lon="7.909153439104557">
        <ele>2173.6799999999998</ele>
        <time>2014-01-12T11:29:33Z</time>
      </trkpt>
      <trkpt lat="45.639456147328019" lon="7.909154109656811">
        <ele>2174.1599999999999</ele>
        <time>2014-01-12T11:29:50Z</time>
      </trkpt>
      <trkpt lat="45.639458578079939" lon="7.909125275909901">
        <ele>2173.1999999999998</ele>
        <time>2014-01-12T11:30:02Z</time>
      </trkpt>
      <trkpt lat="45.639490094035864" lon="7.909138686954975">
        <ele>2172.7199999999998</ele>
        <time>2014-01-12T11:30:15Z</time>
      </trkpt>
      <trkpt lat="45.639510042965412" lon="7.909104572609067">
        <ele>2171.27</ele>
        <time>2014-01-12T11:30:31Z</time>
      </trkpt>
      <trkpt lat="45.639487663283944" lon="7.909103818237782">
        <ele>2170.3099999999999</ele>
        <time>2014-01-12T11:30:44Z</time>
      </trkpt>
      <trkpt lat="45.639489255845547" lon="7.909108679741621">
        <ele>2170.79</ele>
        <time>2014-01-12T11:31:03Z</time>
      </trkpt>
      <trkpt lat="45.639490177854896" lon="7.909104404971004">
        <ele>2170.79</ele>
        <time>2014-01-12T11:31:20Z</time>
      </trkpt>
      <trkpt lat="45.639481460675597" lon="7.909107422456145">
        <ele>2170.79</ele>
        <time>2014-01-12T11:31:38Z</time>
      </trkpt>
      <trkpt lat="45.639499565586448" lon="7.909104321151972">
        <ele>2170.79</ele>
        <time>2014-01-12T11:32:00Z</time>
      </trkpt>
      <trkpt lat="45.639496045187116" lon="7.909098118543625">
        <ele>2170.3099999999999</ele>
        <time>2014-01-12T11:32:29Z</time>
      </trkpt>
      <trkpt lat="45.639476096257567" lon="7.909119408577681">
        <ele>2171.7600000000002</ele>
        <time>2014-01-12T11:32:41Z</time>
      </trkpt>
      <trkpt lat="45.639459416270256" lon="7.909131059423089">
        <ele>2172.7199999999998</ele>
        <time>2014-01-12T11:32:53Z</time>
      </trkpt>
      <trkpt lat="45.63946838490665" lon="7.909126952290535">
        <ele>2173.1999999999998</ele>
        <time>2014-01-12T11:33:06Z</time>
      </trkpt>
      <trkpt lat="45.63948892056942" lon="7.909131227061153">
        <ele>2172.7199999999998</ele>
        <time>2014-01-12T11:33:24Z</time>
      </trkpt>
      <trkpt lat="45.639484729617834" lon="7.909105159342289">
        <ele>2171.7600000000002</ele>
        <time>2014-01-12T11:33:39Z</time>
      </trkpt>
      <trkpt lat="45.639499900862575" lon="7.909087641164661">
        <ele>2170.3099999999999</ele>
        <time>2014-01-12T11:33:56Z</time>
      </trkpt>
      <trkpt lat="45.639490680769086" lon="7.909042211249471">
        <ele>2168.3899999999999</ele>
        <time>2014-01-12T11:34:11Z</time>
      </trkpt>
      <trkpt lat="45.639474000781775" lon="7.908936263993383">
        <ele>2166.9499999999998</ele>
        <time>2014-01-12T11:34:28Z</time>
      </trkpt>
      <trkpt lat="45.639440640807152" lon="7.908870046958327">
        <ele>2164.0599999999999</ele>
        <time>2014-01-12T11:34:44Z</time>
      </trkpt>
      <trkpt lat="45.639419853687286" lon="7.908781114965677">
        <ele>2160.6999999999998</ele>
        <time>2014-01-12T11:34:58Z</time>
      </trkpt>
      <trkpt lat="45.639424379914999" lon="7.908725878223777">
        <ele>2158.3000000000002</ele>
        <time>2014-01-12T11:35:09Z</time>
      </trkpt>
      <trkpt lat="45.639451621100307" lon="7.908753538504243">
        <ele>2158.3000000000002</ele>
        <time>2014-01-12T11:35:20Z</time>
      </trkpt>
      <trkpt lat="45.639500739052892" lon="7.908758651465178">
        <ele>2156.3699999999999</ele>
        <time>2014-01-12T11:35:33Z</time>
      </trkpt>
      <trkpt lat="45.639515994116664" lon="7.908751275390387">
        <ele>2153.9699999999998</ele>
        <time>2014-01-12T11:35:51Z</time>
      </trkpt>
      <trkpt lat="45.639519682154059" lon="7.908735265955329">
        <ele>2153.4899999999998</ele>
        <time>2014-01-12T11:36:05Z</time>
      </trkpt>
      <trkpt lat="45.639517921954393" lon="7.908664019778371">
        <ele>2152.0500000000002</ele>
        <time>2014-01-12T11:36:11Z</time>
      </trkpt>
      <trkpt lat="45.639505265280604" lon="7.908606939017773">
        <ele>2149.6500000000001</ele>
        <time>2014-01-12T11:36:22Z</time>
      </trkpt>
      <trkpt lat="45.639507947489619" lon="7.908537033945322">
        <ele>2148.6799999999998</ele>
        <time>2014-01-12T11:36:27Z</time>
      </trkpt>
      <trkpt lat="45.639524878934026" lon="7.90847877971828">
        <ele>2146.7600000000002</ele>
        <time>2014-01-12T11:36:32Z</time>
      </trkpt>
      <trkpt lat="45.639536362141371" lon="7.908396553248167">
        <ele>2144.8400000000001</ele>
        <time>2014-01-12T11:36:47Z</time>
      </trkpt>
      <trkpt lat="45.639530327171087" lon="7.908325977623463">
        <ele>2142.9200000000001</ele>
        <time>2014-01-12T11:36:53Z</time>
      </trkpt>
      <trkpt lat="45.639523202553391" lon="7.908259090036154">
        <ele>2140.9899999999998</ele>
        <time>2014-01-12T11:36:58Z</time>
      </trkpt>
      <trkpt lat="45.63952362164855" lon="7.908215587958694">
        <ele>2140.0300000000002</ele>
        <time>2014-01-12T11:37:02Z</time>
      </trkpt>
      <trkpt lat="45.639502918347716" lon="7.908159513026476">
        <ele>2137.6300000000001</ele>
        <time>2014-01-12T11:37:16Z</time>
      </trkpt>
      <trkpt lat="45.639454638585448" lon="7.908074269071221">
        <ele>2137.1500000000001</ele>
        <time>2014-01-12T11:37:30Z</time>
      </trkpt>
      <trkpt lat="45.639413986355066" lon="7.907972848042846">
        <ele>2133.7800000000002</ele>
        <time>2014-01-12T11:37:40Z</time>
      </trkpt>
      <trkpt lat="45.639409124851227" lon="7.907964885234833">
        <ele>2133.3000000000002</ele>
        <time>2014-01-12T11:37:41Z</time>
      </trkpt>
      <trkpt lat="45.639362102374434" lon="7.907870840281248">
        <ele>2130.9000000000001</ele>
        <time>2014-01-12T11:37:51Z</time>
      </trkpt>
      <trkpt lat="45.639390517026186" lon="7.907794313505292">
        <ele>2127.5300000000002</ele>
        <time>2014-01-12T11:38:00Z</time>
      </trkpt>
      <trkpt lat="45.639399401843548" lon="7.907803533598781">
        <ele>2127.5300000000002</ele>
        <time>2014-01-12T11:38:10Z</time>
      </trkpt>
      <trkpt lat="45.639444077387452" lon="7.907729521393776">
        <ele>2125.6100000000001</ele>
        <time>2014-01-12T11:38:16Z</time>
      </trkpt>
      <trkpt lat="45.639456734061241" lon="7.907637655735016">
        <ele>2123.21</ele>
        <time>2014-01-12T11:38:32Z</time>
      </trkpt>
      <trkpt lat="45.63946989364922" lon="7.907592812553048">
        <ele>2122.25</ele>
        <time>2014-01-12T11:38:35Z</time>
      </trkpt>
      <trkpt lat="45.63954658806324" lon="7.907527014613152">
        <ele>2118.8800000000001</ele>
        <time>2014-01-12T11:38:44Z</time>
      </trkpt>
      <trkpt lat="45.639581959694624" lon="7.907508742064238">
        <ele>2117.4400000000001</ele>
        <time>2014-01-12T11:38:48Z</time>
      </trkpt>
      <trkpt lat="45.639608446508646" lon="7.907489547505975">
        <ele>2116</ele>
        <time>2014-01-12T11:38:51Z</time>
      </trkpt>
      <trkpt lat="45.639622025191784" lon="7.907497594133019">
        <ele>2116</ele>
        <time>2014-01-12T11:39:09Z</time>
      </trkpt>
      <trkpt lat="45.639626299962401" lon="7.907497258856893">
        <ele>2116</ele>
        <time>2014-01-12T11:39:33Z</time>
      </trkpt>
      <trkpt lat="45.639646416530013" lon="7.907402710989118">
        <ele>2112.6300000000001</ele>
        <time>2014-01-12T11:39:44Z</time>
      </trkpt>
      <trkpt lat="45.639625126495957" lon="7.907244712114334">
        <ele>2109.27</ele>
        <time>2014-01-12T11:40:00Z</time>
      </trkpt>
      <trkpt lat="45.639613475650549" lon="7.90718637406826">
        <ele>2107.3499999999999</ele>
        <time>2014-01-12T11:40:12Z</time>
      </trkpt>
      <trkpt lat="45.639559831470251" lon="7.907066261395812">
        <ele>2103.98</ele>
        <time>2014-01-12T11:40:25Z</time>
      </trkpt>
      <trkpt lat="45.639604004099965" lon="7.907013623043895">
        <ele>2102.0599999999999</ele>
        <time>2014-01-12T11:40:39Z</time>
      </trkpt>
      <trkpt lat="45.63966192305088" lon="7.906948328018189">
        <ele>2099.1799999999998</ele>
        <time>2014-01-12T11:40:49Z</time>
      </trkpt>
      <trkpt lat="45.639686901122332" lon="7.906933492049575">
        <ele>2097.73</ele>
        <time>2014-01-12T11:40:53Z</time>
      </trkpt>
      <trkpt lat="45.639732666313648" lon="7.906928211450577">
        <ele>2096.29</ele>
        <time>2014-01-12T11:40:58Z</time>
      </trkpt>
      <trkpt lat="45.639763008803129" lon="7.90689954534173">
        <ele>2094.8499999999999</ele>
        <time>2014-01-12T11:41:02Z</time>
      </trkpt>
      <trkpt lat="45.63985101878643" lon="7.906797872856259">
        <ele>2091.9699999999998</ele>
        <time>2014-01-12T11:41:17Z</time>
      </trkpt>
      <trkpt lat="45.639868201687932" lon="7.906746072694659">
        <ele>2092.4499999999998</ele>
        <time>2014-01-12T11:41:32Z</time>
      </trkpt>
      <trkpt lat="45.639936095103621" lon="7.906627552583814">
        <ele>2091.4899999999998</ele>
        <time>2014-01-12T11:41:41Z</time>
      </trkpt>
      <trkpt lat="45.639960402622819" lon="7.906558234244585">
        <ele>2090.52</ele>
        <time>2014-01-12T11:41:46Z</time>
      </trkpt>
      <trkpt lat="45.639966772869229" lon="7.906501740217209">
        <ele>2089.0799999999999</ele>
        <time>2014-01-12T11:41:50Z</time>
      </trkpt>
      <trkpt lat="45.640032235532999" lon="7.906382717192173">
        <ele>2086.1999999999998</ele>
        <time>2014-01-12T11:42:04Z</time>
      </trkpt>
      <trkpt lat="45.640063583850861" lon="7.906358325853944">
        <ele>2084.7600000000002</ele>
        <time>2014-01-12T11:42:08Z</time>
      </trkpt>
      <trkpt lat="45.640054531395435" lon="7.906315410509706">
        <ele>2082.8299999999999</ele>
        <time>2014-01-12T11:42:19Z</time>
      </trkpt>
      <trkpt lat="45.640084706246853" lon="7.906327983364463">
        <ele>2082.8299999999999</ele>
        <time>2014-01-12T11:42:35Z</time>
      </trkpt>
      <trkpt lat="45.640097362920642" lon="7.906283643096685">
        <ele>2080.4299999999998</ele>
        <time>2014-01-12T11:42:45Z</time>
      </trkpt>
      <trkpt lat="45.640086801722646" lon="7.906173756346107">
        <ele>2077.0700000000002</ele>
        <time>2014-01-12T11:42:56Z</time>
      </trkpt>
      <trkpt lat="45.640092082321644" lon="7.906163530424237">
        <ele>2076.5900000000001</ele>
        <time>2014-01-12T11:42:57Z</time>
      </trkpt>
      <trkpt lat="45.640099877491593" lon="7.90613042190671">
        <ele>2075.1399999999999</ele>
        <time>2014-01-12T11:43:00Z</time>
      </trkpt>
      <trkpt lat="45.640102308243513" lon="7.906057666987181">
        <ele>2073.2199999999998</ele>
        <time>2014-01-12T11:43:04Z</time>
      </trkpt>
      <trkpt lat="45.640084287151694" lon="7.906002262607217">
        <ele>2070.8200000000002</ele>
        <time>2014-01-12T11:43:13Z</time>
      </trkpt>
      <trkpt lat="45.640093758702278" lon="7.905924478545785">
        <ele>2069.8600000000001</ele>
        <time>2014-01-12T11:43:17Z</time>
      </trkpt>
      <trkpt lat="45.640086298808455" lon="7.905779220163822">
        <ele>2066.0100000000002</ele>
        <time>2014-01-12T11:43:26Z</time>
      </trkpt>
      <trkpt lat="45.640084203332663" lon="7.905761785805225">
        <ele>2066.0100000000002</ele>
        <time>2014-01-12T11:43:27Z</time>
      </trkpt>
      <trkpt lat="45.640069115906954" lon="7.905646115541458">
        <ele>2062.6500000000001</ele>
        <time>2014-01-12T11:43:33Z</time>
      </trkpt>
      <trkpt lat="45.640040785074234" lon="7.905513346195221">
        <ele>2059.7600000000002</ele>
        <time>2014-01-12T11:43:42Z</time>
      </trkpt>
      <trkpt lat="45.640047490596771" lon="7.905360627919436">
        <ele>2056.4000000000001</ele>
        <time>2014-01-12T11:43:52Z</time>
      </trkpt>
      <trkpt lat="45.640029385685921" lon="7.905180081725121">
        <ele>2053.5100000000002</ele>
        <time>2014-01-12T11:44:04Z</time>
      </trkpt>
      <trkpt lat="45.640031900256872" lon="7.905073296278715">
        <ele>2052.0700000000002</ele>
        <time>2014-01-12T11:44:13Z</time>
      </trkpt>
      <trkpt lat="45.640011196956038" lon="7.9050637409091">
        <ele>2051.1100000000001</ele>
        <time>2014-01-12T11:44:16Z</time>
      </trkpt>
      <trkpt lat="45.639945063740015" lon="7.905069692060351">
        <ele>2048.23</ele>
        <time>2014-01-12T11:44:23Z</time>
      </trkpt>
      <trkpt lat="45.639892257750034" lon="7.905015712603927">
        <ele>2045.8199999999999</ele>
        <time>2014-01-12T11:44:31Z</time>
      </trkpt>
      <trkpt lat="45.639903824776411" lon="7.904973300173879">
        <ele>2045.3399999999999</ele>
        <time>2014-01-12T11:44:44Z</time>
      </trkpt>
      <trkpt lat="45.639897370710969" lon="7.904975228011608">
        <ele>2044.3800000000001</ele>
        <time>2014-01-12T11:44:56Z</time>
      </trkpt>
      <trkpt lat="45.639915140345693" lon="7.904976904392242">
        <ele>2044.3800000000001</ele>
        <time>2014-01-12T11:45:12Z</time>
      </trkpt>
      <trkpt lat="45.639921594411135" lon="7.904983358457685">
        <ele>2044.8599999999999</ele>
        <time>2014-01-12T11:45:25Z</time>
      </trkpt>
      <trkpt lat="45.639920923858881" lon="7.904987381771207">
        <ele>2053.0300000000002</ele>
        <time>2014-01-12T11:46:02Z</time>
      </trkpt>
      <trkpt lat="45.639900472015142" lon="7.904996601864696">
        <ele>2052.5500000000002</ele>
        <time>2014-01-12T11:46:09Z</time>
      </trkpt>
      <trkpt lat="45.63991941511631" lon="7.904972126707435">
        <ele>2052.5500000000002</ele>
        <time>2014-01-12T11:46:30Z</time>
      </trkpt>
      <trkpt lat="45.639921091496944" lon="7.90496408008039">
        <ele>2053.5100000000002</ele>
        <time>2014-01-12T11:46:46Z</time>
      </trkpt>
      <trkpt lat="45.639902735128999" lon="7.904968271031976">
        <ele>2052.5500000000002</ele>
        <time>2014-01-12T11:47:17Z</time>
      </trkpt>
      <trkpt lat="45.639917990192771" lon="7.904956871643663">
        <ele>2053.0300000000002</ele>
        <time>2014-01-12T11:47:51Z</time>
      </trkpt>
      <trkpt lat="45.639903573319316" lon="7.904941448941827">
        <ele>2052.0700000000002</ele>
        <time>2014-01-12T11:48:19Z</time>
      </trkpt>
      <trkpt lat="45.639887982979417" lon="7.904957793653011">
        <ele>2052.5500000000002</ele>
        <time>2014-01-12T11:48:55Z</time>
      </trkpt>
      <trkpt lat="45.639885719865561" lon="7.904934994876385">
        <ele>2052.0700000000002</ele>
        <time>2014-01-12T11:49:21Z</time>
      </trkpt>
      <trkpt lat="45.639880439266562" lon="7.904966594651341">
        <ele>2052.0700000000002</ele>
        <time>2014-01-12T11:49:57Z</time>
      </trkpt>
      <trkpt lat="45.639885468408465" lon="7.904965169727802">
        <ele>2052.0700000000002</ele>
        <time>2014-01-12T11:50:24Z</time>
      </trkpt>
      <trkpt lat="45.639884965494275" lon="7.904969360679388">
        <ele>2051.1100000000001</ele>
        <time>2014-01-12T11:50:51Z</time>
      </trkpt>
      <trkpt lat="45.639873230829835" lon="7.904930133372545">
        <ele>2051.5900000000001</ele>
        <time>2014-01-12T11:51:26Z</time>
      </trkpt>
      <trkpt lat="45.639890749007463" lon="7.904955362901092">
        <ele>2051.1100000000001</ele>
        <time>2014-01-12T11:52:03Z</time>
      </trkpt>
      <trkpt lat="45.63987105153501" lon="7.904962068423629">
        <ele>2051.1100000000001</ele>
        <time>2014-01-12T11:52:35Z</time>
      </trkpt>
      <trkpt lat="45.639878595247865" lon="7.904968019574881">
        <ele>2050.6300000000001</ele>
        <time>2014-01-12T11:53:08Z</time>
      </trkpt>
      <trkpt lat="45.639875074848533" lon="7.904939772561193">
        <ele>2050.6300000000001</ele>
        <time>2014-01-12T11:53:43Z</time>
      </trkpt>
      <trkpt lat="45.639870380982757" lon="7.90493574924767">
        <ele>2050.1500000000001</ele>
        <time>2014-01-12T11:54:13Z</time>
      </trkpt>
      <trkpt lat="45.639885719865561" lon="7.904965505003929">
        <ele>2050.1500000000001</ele>
        <time>2014-01-12T11:54:46Z</time>
      </trkpt>
      <trkpt lat="45.639887563884258" lon="7.90496164932847">
        <ele>2049.6700000000001</ele>
        <time>2014-01-12T11:55:23Z</time>
      </trkpt>
      <trkpt lat="45.639884797856212" lon="7.904945472255349">
        <ele>2049.6700000000001</ele>
        <time>2014-01-12T11:55:51Z</time>
      </trkpt>
      <trkpt lat="45.639885552227497" lon="7.904948657378554">
        <ele>2049.6700000000001</ele>
        <time>2014-01-12T11:56:16Z</time>
      </trkpt>
      <trkpt lat="45.639897119253874" lon="7.904914291575551">
        <ele>2049.1900000000001</ele>
        <time>2014-01-12T11:56:48Z</time>
      </trkpt>
      <trkpt lat="45.639895778149366" lon="7.904905322939158">
        <ele>2049.1900000000001</ele>
        <time>2014-01-12T11:57:17Z</time>
      </trkpt>
      <trkpt lat="45.639897622168064" lon="7.904916303232312">
        <ele>2049.6700000000001</ele>
        <time>2014-01-12T11:57:50Z</time>
      </trkpt>
      <trkpt lat="45.639902651309967" lon="7.904897192493081">
        <ele>2050.1500000000001</ele>
        <time>2014-01-12T11:58:19Z</time>
      </trkpt>
      <trkpt lat="45.639899130910635" lon="7.904899958521128">
        <ele>2050.1500000000001</ele>
        <time>2014-01-12T11:58:59Z</time>
      </trkpt>
      <trkpt lat="45.639908770099282" lon="7.904914962127805">
        <ele>2050.1500000000001</ele>
        <time>2014-01-12T11:59:40Z</time>
      </trkpt>
      <trkpt lat="45.639920756220818" lon="7.904922002926469">
        <ele>2050.1500000000001</ele>
        <time>2014-01-12T12:00:15Z</time>
      </trkpt>
      <trkpt lat="45.639894772320986" lon="7.904926026239991">
        <ele>2050.6300000000001</ele>
        <time>2014-01-12T12:01:02Z</time>
      </trkpt>
      <trkpt lat="45.639887899160385" lon="7.90495628491044">
        <ele>2050.1500000000001</ele>
        <time>2014-01-12T12:01:40Z</time>
      </trkpt>
      <trkpt lat="45.639899717643857" lon="7.904969025403261">
        <ele>2051.1100000000001</ele>
        <time>2014-01-12T12:01:58Z</time>
      </trkpt>
      <trkpt lat="45.639902232214808" lon="7.904970701783896">
        <ele>2051.1100000000001</ele>
        <time>2014-01-12T12:02:16Z</time>
      </trkpt>
      <trkpt lat="45.63989644870162" lon="7.904967600479722">
        <ele>2050.6300000000001</ele>
        <time>2014-01-12T12:02:32Z</time>
      </trkpt>
      <trkpt lat="45.63989108428359" lon="7.904970869421959">
        <ele>2050.6300000000001</ele>
        <time>2014-01-12T12:02:52Z</time>
      </trkpt>
      <trkpt lat="45.639891587197781" lon="7.904972210526466">
        <ele>2050.1500000000001</ele>
        <time>2014-01-12T12:03:17Z</time>
      </trkpt>
      <trkpt lat="45.639885133132339" lon="7.904965505003929">
        <ele>2050.6300000000001</ele>
        <time>2014-01-12T12:03:44Z</time>
      </trkpt>
      <trkpt lat="45.639896616339684" lon="7.904961481690407">
        <ele>2051.1100000000001</ele>
        <time>2014-01-12T12:04:07Z</time>
      </trkpt>
      <trkpt lat="45.639889659360051" lon="7.904965169727802">
        <ele>2051.1100000000001</ele>
        <time>2014-01-12T12:04:27Z</time>
      </trkpt>
      <trkpt lat="45.639900723472238" lon="7.904965253546834">
        <ele>2051.1100000000001</ele>
        <time>2014-01-12T12:04:56Z</time>
      </trkpt>
      <trkpt lat="45.639897119253874" lon="7.904971539974213">
        <ele>2051.1100000000001</ele>
        <time>2014-01-12T12:05:26Z</time>
      </trkpt>
      <trkpt lat="45.639887982979417" lon="7.904971372336149">
        <ele>2050.6300000000001</ele>
        <time>2014-01-12T12:05:53Z</time>
      </trkpt>
      <trkpt lat="45.639884127303958" lon="7.904969025403261">
        <ele>2051.1100000000001</ele>
        <time>2014-01-12T12:06:25Z</time>
      </trkpt>
      <trkpt lat="45.639885803684592" lon="7.904975228011608">
        <ele>2051.1100000000001</ele>
        <time>2014-01-12T12:06:57Z</time>
      </trkpt>
      <trkpt lat="45.639886558055878" lon="7.904971288517118">
        <ele>2051.1100000000001</ele>
        <time>2014-01-12T12:07:22Z</time>
      </trkpt>
      <trkpt lat="45.639885049313307" lon="7.904972210526466">
        <ele>2051.1100000000001</ele>
        <time>2014-01-12T12:07:47Z</time>
      </trkpt>
      <trkpt lat="45.639887312427163" lon="7.904966343194246">
        <ele>2051.1100000000001</ele>
        <time>2014-01-12T12:08:25Z</time>
      </trkpt>
      <trkpt lat="45.639899466186762" lon="7.904962822794914">
        <ele>2050.6300000000001</ele>
        <time>2014-01-12T12:09:06Z</time>
      </trkpt>
      <trkpt lat="45.639894604682922" lon="7.904965756461024">
        <ele>2051.1100000000001</ele>
        <time>2014-01-12T12:09:46Z</time>
      </trkpt>
      <trkpt lat="45.639887396246195" lon="7.904973970726132">
        <ele>2051.5900000000001</ele>
        <time>2014-01-12T12:10:21Z</time>
      </trkpt>
      <trkpt lat="45.639903238043189" lon="7.90497774258256">
        <ele>2051.1100000000001</ele>
        <time>2014-01-12T12:11:07Z</time>
      </trkpt>
      <trkpt lat="45.63989351503551" lon="7.904982520267367">
        <ele>2050.6300000000001</ele>
        <time>2014-01-12T12:11:39Z</time>
      </trkpt>
      <trkpt lat="45.639903740957379" lon="7.904976066201925">
        <ele>2051.1100000000001</ele>
        <time>2014-01-12T12:12:14Z</time>
      </trkpt>
      <trkpt lat="45.63989301212132" lon="7.904984448105097">
        <ele>2051.1100000000001</ele>
        <time>2014-01-12T12:12:56Z</time>
      </trkpt>
      <trkpt lat="45.639899214729667" lon="7.904977910220623">
        <ele>2051.1100000000001</ele>
        <time>2014-01-12T12:13:33Z</time>
      </trkpt>
      <trkpt lat="45.639903573319316" lon="7.904984448105097">
        <ele>2051.1100000000001</ele>
        <time>2014-01-12T12:14:17Z</time>
      </trkpt>
      <trkpt lat="45.639895023778081" lon="7.904990147799254">
        <ele>2050.6300000000001</ele>
        <time>2014-01-12T12:14:50Z</time>
      </trkpt>
      <trkpt lat="45.639901058748364" lon="7.904985705390573">
        <ele>2051.1100000000001</ele>
        <time>2014-01-12T12:15:19Z</time>
      </trkpt>
      <trkpt lat="45.639899801462889" lon="7.904988555237651">
        <ele>2051.1100000000001</ele>
        <time>2014-01-12T12:15:53Z</time>
      </trkpt>
      <trkpt lat="45.639894269406796" lon="7.904980340972543">
        <ele>2051.1100000000001</ele>
        <time>2014-01-12T12:16:24Z</time>
      </trkpt>
      <trkpt lat="45.639897370710969" lon="7.904976736754179">
        <ele>2051.1100000000001</ele>
        <time>2014-01-12T12:16:51Z</time>
      </trkpt>
      <trkpt lat="45.639892257750034" lon="7.904981262981892">
        <ele>2050.1500000000001</ele>
        <time>2014-01-12T12:17:26Z</time>
      </trkpt>
      <trkpt lat="45.639901142567396" lon="7.904994757845998">
        <ele>2050.6300000000001</ele>
        <time>2014-01-12T12:17:56Z</time>
      </trkpt>
      <trkpt lat="45.639894688501954" lon="7.90498168207705">
        <ele>2050.1500000000001</ele>
        <time>2014-01-12T12:18:36Z</time>
      </trkpt>
      <trkpt lat="45.639884881675243" lon="7.90497237816453">
        <ele>2050.1500000000001</ele>
        <time>2014-01-12T12:19:14Z</time>
      </trkpt>
      <trkpt lat="45.63989108428359" lon="7.904986208304763">
        <ele>2049.6700000000001</ele>
        <time>2014-01-12T12:19:49Z</time>
      </trkpt>
      <trkpt lat="45.639899298548698" lon="7.904980760067701">
        <ele>2049.6700000000001</ele>
        <time>2014-01-12T12:20:29Z</time>
      </trkpt>
      <trkpt lat="45.63989351503551" lon="7.904978999868035">
        <ele>2049.6700000000001</ele>
        <time>2014-01-12T12:21:03Z</time>
      </trkpt>
      <trkpt lat="45.639905752614141" lon="7.904969025403261">
        <ele>2049.6700000000001</ele>
        <time>2014-01-12T12:21:33Z</time>
      </trkpt>
      <trkpt lat="45.639903740957379" lon="7.904983945190907">
        <ele>2049.6700000000001</ele>
        <time>2014-01-12T12:22:10Z</time>
      </trkpt>
      <trkpt lat="45.639905836433172" lon="7.904983023181558">
        <ele>2049.6700000000001</ele>
        <time>2014-01-12T12:22:51Z</time>
      </trkpt>
      <trkpt lat="45.639891251921654" lon="7.904977239668369">
        <ele>2049.6700000000001</ele>
        <time>2014-01-12T12:23:23Z</time>
      </trkpt>
      <trkpt lat="45.639894353225827" lon="7.904970031231642">
        <ele>2049.6700000000001</ele>
        <time>2014-01-12T12:24:03Z</time>
      </trkpt>
      <trkpt lat="45.63989544287324" lon="7.904977239668369">
        <ele>2049.6700000000001</ele>
        <time>2014-01-12T12:24:35Z</time>
      </trkpt>
      <trkpt lat="45.639891838654876" lon="7.904970953240991">
        <ele>2049.1900000000001</ele>
        <time>2014-01-12T12:25:05Z</time>
      </trkpt>
      <trkpt lat="45.639885971322656" lon="7.904982771724463">
        <ele>2049.6700000000001</ele>
        <time>2014-01-12T12:25:41Z</time>
      </trkpt>
      <trkpt lat="45.639903657138348" lon="7.904977491125464">
        <ele>2049.6700000000001</ele>
        <time>2014-01-12T12:26:12Z</time>
      </trkpt>
      <trkpt lat="45.639882031828165" lon="7.904947651550174">
        <ele>2050.1500000000001</ele>
        <time>2014-01-12T12:26:23Z</time>
      </trkpt>
      <trkpt lat="45.639897454530001" lon="7.904955698177218">
        <ele>2050.1500000000001</ele>
        <time>2014-01-12T12:26:34Z</time>
      </trkpt>
      <trkpt lat="45.6399130448699" lon="7.90495578199625">
        <ele>2050.6300000000001</ele>
        <time>2014-01-12T12:26:51Z</time>
      </trkpt>
      <trkpt lat="45.639893431216478" lon="7.904957039281726">
        <ele>2050.1500000000001</ele>
        <time>2014-01-12T12:27:20Z</time>
      </trkpt>
      <trkpt lat="45.639910278841853" lon="7.904962152242661">
        <ele>2050.1500000000001</ele>
        <time>2014-01-12T12:27:45Z</time>
      </trkpt>
      <trkpt lat="45.63992184586823" lon="7.904947986826301">
        <ele>2051.1100000000001</ele>
        <time>2014-01-12T12:28:11Z</time>
      </trkpt>
      <trkpt lat="45.639918744564056" lon="7.904926864430308">
        <ele>2050.6300000000001</ele>
        <time>2014-01-12T12:28:28Z</time>
      </trkpt>
      <trkpt lat="45.639929808676243" lon="7.904912112280726">
        <ele>2050.1500000000001</ele>
        <time>2014-01-12T12:28:55Z</time>
      </trkpt>
      <trkpt lat="45.639925953000784" lon="7.904844889417291">
        <ele>2049.6700000000001</ele>
        <time>2014-01-12T12:29:05Z</time>
      </trkpt>
      <trkpt lat="45.640020919963717" lon="7.904778672382236">
        <ele>2051.1100000000001</ele>
        <time>2014-01-12T12:29:20Z</time>
      </trkpt>
      <trkpt lat="45.640073893591762" lon="7.904772805050015">
        <ele>2052.0700000000002</ele>
        <time>2014-01-12T12:29:28Z</time>
      </trkpt>
      <trkpt lat="45.640171961858869" lon="7.904715640470386">
        <ele>2052.0700000000002</ele>
        <time>2014-01-12T12:29:45Z</time>
      </trkpt>
      <trkpt lat="45.640178499743342" lon="7.904670713469386">
        <ele>2051.5900000000001</ele>
        <time>2014-01-12T12:29:57Z</time>
      </trkpt>
      <trkpt lat="45.640201801434159" lon="7.904616985470057">
        <ele>2051.5900000000001</ele>
        <time>2014-01-12T12:30:07Z</time>
      </trkpt>
      <trkpt lat="45.640222420915961" lon="7.904505589976907">
        <ele>2050.1500000000001</ele>
        <time>2014-01-12T12:30:23Z</time>
      </trkpt>
      <trkpt lat="45.640242788940668" lon="7.904471894726157">
        <ele>2049.6700000000001</ele>
        <time>2014-01-12T12:30:34Z</time>
      </trkpt>
      <trkpt lat="45.640337839722633" lon="7.904299478977919">
        <ele>2048.71</ele>
        <time>2014-01-12T12:30:51Z</time>
      </trkpt>
      <trkpt lat="45.64036063849926" lon="7.904281709343195">
        <ele>2048.23</ele>
        <time>2014-01-12T12:31:02Z</time>
      </trkpt>
      <trkpt lat="45.640349155291915" lon="7.904292521998286">
        <ele>2048.23</ele>
        <time>2014-01-12T12:31:21Z</time>
      </trkpt>
      <trkpt lat="45.640362314879894" lon="7.904280703514814">
        <ele>2048.23</ele>
        <time>2014-01-12T12:31:35Z</time>
      </trkpt>
      <trkpt lat="45.640358543023467" lon="7.904287576675415">
        <ele>2046.78</ele>
        <time>2014-01-12T12:31:47Z</time>
      </trkpt>
      <trkpt lat="45.64035820774734" lon="7.904277266934514">
        <ele>2048.23</ele>
        <time>2014-01-12T12:32:00Z</time>
      </trkpt>
      <trkpt lat="45.640343790873885" lon="7.904270142316818">
        <ele>2047.75</ele>
        <time>2014-01-12T12:32:16Z</time>
      </trkpt>
      <trkpt lat="45.640295594930649" lon="7.904215240851045">
        <ele>2047.75</ele>
        <time>2014-01-12T12:32:26Z</time>
      </trkpt>
      <trkpt lat="45.640254272148013" lon="7.904274752363563">
        <ele>2046.78</ele>
        <time>2014-01-12T12:32:40Z</time>
      </trkpt>
      <trkpt lat="45.640271538868546" lon="7.904266957193613">
        <ele>2047.26</ele>
        <time>2014-01-12T12:32:53Z</time>
      </trkpt>
      <trkpt lat="45.640287715941668" lon="7.904264610260725">
        <ele>2046.3</ele>
        <time>2014-01-12T12:33:19Z</time>
      </trkpt>
      <trkpt lat="45.640279417857528" lon="7.90425798855722">
        <ele>2046.3</ele>
        <time>2014-01-12T12:33:44Z</time>
      </trkpt>
      <trkpt lat="45.640320824459195" lon="7.904246924445033">
        <ele>2047.26</ele>
        <time>2014-01-12T12:34:12Z</time>
      </trkpt>
      <trkpt lat="45.640373965725303" lon="7.904257401823998">
        <ele>2047.26</ele>
        <time>2014-01-12T12:34:24Z</time>
      </trkpt>
      <trkpt lat="45.640396093949676" lon="7.904287660494447">
        <ele>2047.26</ele>
        <time>2014-01-12T12:34:27Z</time>
      </trkpt>
      <trkpt lat="45.640494916588068" lon="7.904337784275413">
        <ele>2045.3399999999999</ele>
        <time>2014-01-12T12:34:36Z</time>
      </trkpt>
      <trkpt lat="45.640638750046492" lon="7.904454125091434">
        <ele>2041.98</ele>
        <time>2014-01-12T12:34:50Z</time>
      </trkpt>
      <trkpt lat="45.640754671767354" lon="7.904562670737505">
        <ele>2039.0899999999999</ele>
        <time>2014-01-12T12:35:02Z</time>
      </trkpt>
      <trkpt lat="45.640810076147318" lon="7.904573986306787">
        <ele>2036.6900000000001</ele>
        <time>2014-01-12T12:35:07Z</time>
      </trkpt>
      <trkpt lat="45.640847459435463" lon="7.904518246650696">
        <ele>2034.29</ele>
        <time>2014-01-12T12:35:13Z</time>
      </trkpt>
      <trkpt lat="45.640886183828115" lon="7.904403498396277">
        <ele>2031.4000000000001</ele>
        <time>2014-01-12T12:35:26Z</time>
      </trkpt>
      <trkpt lat="45.640902947634459" lon="7.904365947470069">
        <ele>2029.48</ele>
        <time>2014-01-12T12:35:37Z</time>
      </trkpt>
      <trkpt lat="45.640957597643137" lon="7.904261006042361">
        <ele>2026.5999999999999</ele>
        <time>2014-01-12T12:35:48Z</time>
      </trkpt>
      <trkpt lat="45.641013672575355" lon="7.904185820370913">
        <ele>2023.23</ele>
        <time>2014-01-12T12:35:54Z</time>
      </trkpt>
      <trkpt lat="45.641042422503233" lon="7.904098900035024">
        <ele>2020.8299999999999</ele>
        <time>2014-01-12T12:36:00Z</time>
      </trkpt>
      <trkpt lat="45.641065640375018" lon="7.904054475948215">
        <ele>2018.9100000000001</ele>
        <time>2014-01-12T12:36:03Z</time>
      </trkpt>
      <trkpt lat="45.641087768599391" lon="7.903976105153561">
        <ele>2016.98</ele>
        <time>2014-01-12T12:36:08Z</time>
      </trkpt>
      <trkpt lat="45.641123140230775" lon="7.903938889503479">
        <ele>2015.54</ele>
        <time>2014-01-12T12:36:12Z</time>
      </trkpt>
      <trkpt lat="45.641145352274179" lon="7.903840905055404">
        <ele>2012.6600000000001</ele>
        <time>2014-01-12T12:36:19Z</time>
      </trkpt>
      <trkpt lat="45.641176952049136" lon="7.903735376894474">
        <ele>2009.29</ele>
        <time>2014-01-12T12:36:27Z</time>
      </trkpt>
      <trkpt lat="45.641178544610739" lon="7.903722217306495">
        <ele>2009.29</ele>
        <time>2014-01-12T12:36:28Z</time>
      </trkpt>
      <trkpt lat="45.641196649521589" lon="7.903689779341221">
        <ele>2007.8499999999999</ele>
        <time>2014-01-12T12:36:31Z</time>
      </trkpt>
      <trkpt lat="45.641229758039117" lon="7.903601936995983">
        <ele>2004.49</ele>
        <time>2014-01-12T12:36:39Z</time>
      </trkpt>
      <trkpt lat="45.641262615099549" lon="7.903507640585303">
        <ele>2001.5999999999999</ele>
        <time>2014-01-12T12:36:47Z</time>
      </trkpt>
      <trkpt lat="45.641296310350299" lon="7.903428431600332">
        <ele>1998.24</ele>
        <time>2014-01-12T12:36:54Z</time>
      </trkpt>
      <trkpt lat="45.641321204602718" lon="7.90337210521102">
        <ele>1995.8299999999999</ele>
        <time>2014-01-12T12:36:58Z</time>
      </trkpt>
      <trkpt lat="45.641343332827091" lon="7.903339667245746">
        <ele>1993.4300000000001</ele>
        <time>2014-01-12T12:37:05Z</time>
      </trkpt>
      <trkpt lat="45.64136479049921" lon="7.903270935639739">
        <ele>1990.0699999999999</ele>
        <time>2014-01-12T12:37:12Z</time>
      </trkpt>
      <trkpt lat="45.641375770792365" lon="7.903230451047421">
        <ele>1989.0999999999999</ele>
        <time>2014-01-12T12:37:15Z</time>
      </trkpt>
      <trkpt lat="45.641421368345618" lon="7.90316398255527">
        <ele>1984.78</ele>
        <time>2014-01-12T12:37:22Z</time>
      </trkpt>
      <trkpt lat="45.641432935371995" lon="7.903122827410698">
        <ele>1983.8199999999999</ele>
        <time>2014-01-12T12:37:25Z</time>
      </trkpt>
      <trkpt lat="45.641503259539604" lon="7.903150739148259">
        <ele>1981.4100000000001</ele>
        <time>2014-01-12T12:37:34Z</time>
      </trkpt>
      <trkpt lat="45.641527567058802" lon="7.903147637844086">
        <ele>1980.45</ele>
        <time>2014-01-12T12:37:36Z</time>
      </trkpt>
      <trkpt lat="45.64157584682107" lon="7.903136992827058">
        <ele>1979.01</ele>
        <time>2014-01-12T12:37:40Z</time>
      </trkpt>
      <trkpt lat="45.641606692224741" lon="7.903125090524554">
        <ele>1977.5699999999999</ele>
        <time>2014-01-12T12:37:43Z</time>
      </trkpt>
      <trkpt lat="45.641648350283504" lon="7.903134813532233">
        <ele>1975.1700000000001</ele>
        <time>2014-01-12T12:37:48Z</time>
      </trkpt>
      <trkpt lat="45.64169017598033" lon="7.903098855167627">
        <ele>1973.24</ele>
        <time>2014-01-12T12:38:01Z</time>
      </trkpt>
      <trkpt lat="45.641709873452783" lon="7.903108326718211">
        <ele>1972.28</ele>
        <time>2014-01-12T12:38:08Z</time>
      </trkpt>
      <trkpt lat="45.641785562038422" lon="7.903074296191335">
        <ele>1969.4000000000001</ele>
        <time>2014-01-12T12:38:18Z</time>
      </trkpt>
      <trkpt lat="45.641804086044431" lon="7.903062142431736">
        <ele>1968.9200000000001</ele>
        <time>2014-01-12T12:38:21Z</time>
      </trkpt>
      <trkpt lat="45.641834009438753" lon="7.903031716123223">
        <ele>1967.48</ele>
        <time>2014-01-12T12:38:25Z</time>
      </trkpt>
      <trkpt lat="45.641842391341925" lon="7.903023501858115">
        <ele>1966.99</ele>
        <time>2014-01-12T12:38:26Z</time>
      </trkpt>
      <trkpt lat="45.641891760751605" lon="7.902941191568971">
        <ele>1964.5899999999999</ele>
        <time>2014-01-12T12:38:35Z</time>
      </trkpt>
      <trkpt lat="45.642051687464118" lon="7.902858965098858">
        <ele>1961.71</ele>
        <time>2014-01-12T12:38:48Z</time>
      </trkpt>
      <trkpt lat="45.642198538407683" lon="7.902783611789346">
        <ele>1959.78</ele>
        <time>2014-01-12T12:39:01Z</time>
      </trkpt>
      <trkpt lat="45.64226190559566" lon="7.902749748900533">
        <ele>1957.8599999999999</ele>
        <time>2014-01-12T12:39:12Z</time>
      </trkpt>
      <trkpt lat="45.642260480672121" lon="7.902730721980333">
        <ele>1957.3800000000001</ele>
        <time>2014-01-12T12:39:36Z</time>
      </trkpt>
      <trkpt lat="45.64228436909616" lon="7.902723010629416">
        <ele>1956.9000000000001</ele>
        <time>2014-01-12T12:39:38Z</time>
      </trkpt>
      <trkpt lat="45.642394172027707" lon="7.902683867141604">
        <ele>1954.5</ele>
        <time>2014-01-12T12:39:47Z</time>
      </trkpt>
      <trkpt lat="45.642508082091808" lon="7.902629217132926">
        <ele>1951.6099999999999</ele>
        <time>2014-01-12T12:39:57Z</time>
      </trkpt>
      <trkpt lat="45.642609838396311" lon="7.902566185221076">
        <ele>1948.25</ele>
        <time>2014-01-12T12:40:07Z</time>
      </trkpt>
      <trkpt lat="45.642687371000648" lon="7.90250432677567">
        <ele>1945.3599999999999</ele>
        <time>2014-01-12T12:40:15Z</time>
      </trkpt>
      <trkpt lat="45.642746379598975" lon="7.902431068941951">
        <ele>1942.96</ele>
        <time>2014-01-12T12:40:23Z</time>
      </trkpt>
      <trkpt lat="45.642852494493127" lon="7.902361834421754">
        <ele>1938.6400000000001</ele>
        <time>2014-01-12T12:40:33Z</time>
      </trkpt>
      <trkpt lat="45.642912173643708" lon="7.902312716469169">
        <ele>1935.27</ele>
        <time>2014-01-12T12:40:40Z</time>
      </trkpt>
      <trkpt lat="45.642943019047379" lon="7.902307100594044">
        <ele>1934.79</ele>
        <time>2014-01-12T12:40:43Z</time>
      </trkpt>
      <trkpt lat="45.642978809773922" lon="7.902321601286531">
        <ele>1933.3499999999999</ele>
        <time>2014-01-12T12:40:46Z</time>
      </trkpt>
      <trkpt lat="45.643075285479426" lon="7.902295952662826">
        <ele>1929.98</ele>
        <time>2014-01-12T12:40:58Z</time>
      </trkpt>
      <trkpt lat="45.643136305734515" lon="7.902236860245466">
        <ele>1927.5799999999999</ele>
        <time>2014-01-12T12:41:10Z</time>
      </trkpt>
      <trkpt lat="45.64316681586206" lon="7.902229903265834">
        <ele>1926.1400000000001</ele>
        <time>2014-01-12T12:41:13Z</time>
      </trkpt>
      <trkpt lat="45.643217945471406" lon="7.902191346511245">
        <ele>1923.25</ele>
        <time>2014-01-12T12:41:19Z</time>
      </trkpt>
      <trkpt lat="45.643282318487763" lon="7.902117166668177">
        <ele>1919.8900000000001</ele>
        <time>2014-01-12T12:41:27Z</time>
      </trkpt>
      <trkpt lat="45.643297992646694" lon="7.902101073414087">
        <ele>1918.9300000000001</ele>
        <time>2014-01-12T12:41:29Z</time>
      </trkpt>
      <trkpt lat="45.643385415896773" lon="7.902043573558331">
        <ele>1916.04</ele>
        <time>2014-01-12T12:41:38Z</time>
      </trkpt>
      <trkpt lat="45.643438221886754" lon="7.901950953528285">
        <ele>1912.2</ele>
        <time>2014-01-12T12:41:46Z</time>
      </trkpt>
      <trkpt lat="45.643458086997271" lon="7.901925723999739">
        <ele>1910.76</ele>
        <time>2014-01-12T12:41:49Z</time>
      </trkpt>
      <trkpt lat="45.64351424574852" lon="7.90185833349824">
        <ele>1907.8699999999999</ele>
        <time>2014-01-12T12:42:03Z</time>
      </trkpt>
      <trkpt lat="45.64353134483099" lon="7.901845509186387">
        <ele>1907.3900000000001</ele>
        <time>2014-01-12T12:42:05Z</time>
      </trkpt>
      <trkpt lat="45.643563196063042" lon="7.901779459789395">
        <ele>1905.47</ele>
        <time>2014-01-12T12:42:10Z</time>
      </trkpt>
      <trkpt lat="45.643597478047013" lon="7.901717852801085">
        <ele>1903.0699999999999</ele>
        <time>2014-01-12T12:42:18Z</time>
      </trkpt>
      <trkpt lat="45.643650284036994" lon="7.901687426492572">
        <ele>1901.1400000000001</ele>
        <time>2014-01-12T12:42:25Z</time>
      </trkpt>
      <trkpt lat="45.643697725608945" lon="7.901628920808435">
        <ele>1900.6600000000001</ele>
        <time>2014-01-12T12:42:32Z</time>
      </trkpt>
      <trkpt lat="45.643731169402599" lon="7.901587598025799">
        <ele>1897.3</ele>
        <time>2014-01-12T12:42:36Z</time>
      </trkpt>
      <trkpt lat="45.643814401701093" lon="7.901455583050847">
        <ele>1893.9300000000001</ele>
        <time>2014-01-12T12:42:47Z</time>
      </trkpt>
      <trkpt lat="45.643901154398918" lon="7.901378804817796">
        <ele>1891.05</ele>
        <time>2014-01-12T12:42:55Z</time>
      </trkpt>
      <trkpt lat="45.643914649263024" lon="7.901296075433493">
        <ele>1890.0899999999999</ele>
        <time>2014-01-12T12:43:00Z</time>
      </trkpt>
      <trkpt lat="45.644055800512433" lon="7.901075966656208">
        <ele>1887.21</ele>
        <time>2014-01-12T12:43:16Z</time>
      </trkpt>
      <trkpt lat="45.644162921234965" lon="7.900898102670908">
        <ele>1884.3199999999999</ele>
        <time>2014-01-12T12:43:29Z</time>
      </trkpt>
      <trkpt lat="45.644229305908084" lon="7.900795172899962">
        <ele>1882.8800000000001</ele>
        <time>2014-01-12T12:43:37Z</time>
      </trkpt>
      <trkpt lat="45.644325278699398" lon="7.900613537058234">
        <ele>1880.96</ele>
        <time>2014-01-12T12:43:51Z</time>
      </trkpt>
      <trkpt lat="45.644376408308744" lon="7.900524437427521">
        <ele>1880.48</ele>
        <time>2014-01-12T12:43:59Z</time>
      </trkpt>
      <trkpt lat="45.644395435228944" lon="7.90050633251667">
        <ele>1880</ele>
        <time>2014-01-12T12:44:01Z</time>
      </trkpt>
      <trkpt lat="45.644424017518759" lon="7.900454364717007">
        <ele>1878.55</ele>
        <time>2014-01-12T12:44:05Z</time>
      </trkpt>
      <trkpt lat="45.644458718597889" lon="7.900407090783119">
        <ele>1877.5899999999999</ele>
        <time>2014-01-12T12:44:10Z</time>
      </trkpt>
      <trkpt lat="45.644539603963494" lon="7.900226376950741">
        <ele>1874.71</ele>
        <time>2014-01-12T12:44:24Z</time>
      </trkpt>
      <trkpt lat="45.64459215849638" lon="7.900225874036551">
        <ele>1871.3399999999999</ele>
        <time>2014-01-12T12:44:33Z</time>
      </trkpt>
      <trkpt lat="45.644597439095378" lon="7.900194693356752">
        <ele>1870.3800000000001</ele>
        <time>2014-01-12T12:44:35Z</time>
      </trkpt>
      <trkpt lat="45.644607078284025" lon="7.900185389444232">
        <ele>1870.3800000000001</ele>
        <time>2014-01-12T12:44:36Z</time>
      </trkpt>
      <trkpt lat="45.64465519040823" lon="7.900138031691313">
        <ele>1869.4200000000001</ele>
        <time>2014-01-12T12:44:41Z</time>
      </trkpt>
      <trkpt lat="45.644731884822249" lon="7.900186395272613">
        <ele>1868.46</ele>
        <time>2014-01-12T12:44:52Z</time>
      </trkpt>
      <trkpt lat="45.644768765196204" lon="7.900161668658257">
        <ele>1867.5</ele>
        <time>2014-01-12T12:45:02Z</time>
      </trkpt>
      <trkpt lat="45.6447983533144" lon="7.900108275935054">
        <ele>1866.0599999999999</ele>
        <time>2014-01-12T12:45:07Z</time>
      </trkpt>
      <trkpt lat="45.644847303628922" lon="7.900083381682634">
        <ele>1864.6099999999999</ele>
        <time>2014-01-12T12:45:12Z</time>
      </trkpt>
      <trkpt lat="45.644891057163477" lon="7.90003577247262">
        <ele>1862.6900000000001</ele>
        <time>2014-01-12T12:45:18Z</time>
      </trkpt>
      <trkpt lat="45.644974876195192" lon="7.900010626763105">
        <ele>1859.3299999999999</ele>
        <time>2014-01-12T12:45:27Z</time>
      </trkpt>
      <trkpt lat="45.645027095451951" lon="7.89997760206461">
        <ele>1858.3699999999999</ele>
        <time>2014-01-12T12:45:34Z</time>
      </trkpt>
      <trkpt lat="45.645043691620231" lon="7.899899818003178">
        <ele>1856.4400000000001</ele>
        <time>2014-01-12T12:45:39Z</time>
      </trkpt>
      <trkpt lat="45.645195655524731" lon="7.899793619289994">
        <ele>1854.04</ele>
        <time>2014-01-12T12:45:54Z</time>
      </trkpt>
      <trkpt lat="45.645267404615879" lon="7.899648947641254">
        <ele>1851.1600000000001</ele>
        <time>2014-01-12T12:46:06Z</time>
      </trkpt>
      <trkpt lat="45.645266566425562" lon="7.899632854387164">
        <ele>1851.1600000000001</ele>
        <time>2014-01-12T12:46:07Z</time>
      </trkpt>
      <trkpt lat="45.645276876166463" lon="7.899566050618887">
        <ele>1849.23</ele>
        <time>2014-01-12T12:46:21Z</time>
      </trkpt>
      <trkpt lat="45.645301518961787" lon="7.899539060890675">
        <ele>1848.27</ele>
        <time>2014-01-12T12:46:36Z</time>
      </trkpt>
      <trkpt lat="45.645364383235574" lon="7.899450296536088">
        <ele>1845.3900000000001</ele>
        <time>2014-01-12T12:46:53Z</time>
      </trkpt>
      <trkpt lat="45.645390283316374" lon="7.899445602670312">
        <ele>1844.9100000000001</ele>
        <time>2014-01-12T12:46:55Z</time>
      </trkpt>
      <trkpt lat="45.645420290529728" lon="7.899442501366139">
        <ele>1844.4300000000001</ele>
        <time>2014-01-12T12:46:58Z</time>
      </trkpt>
      <trkpt lat="45.645470665767789" lon="7.899438142776489">
        <ele>1842.98</ele>
        <time>2014-01-12T12:47:03Z</time>
      </trkpt>
      <trkpt lat="45.645474018529058" lon="7.899343091994524">
        <ele>1841.0599999999999</ele>
        <time>2014-01-12T12:47:16Z</time>
      </trkpt>
      <trkpt lat="45.645493045449257" lon="7.899273354560137">
        <ele>1838.6600000000001</ele>
        <time>2014-01-12T12:47:21Z</time>
      </trkpt>
      <trkpt lat="45.645507127046585" lon="7.899231025949121">
        <ele>1837.22</ele>
        <time>2014-01-12T12:47:24Z</time>
      </trkpt>
      <trkpt lat="45.645523890852928" lon="7.899218704551458">
        <ele>1836.74</ele>
        <time>2014-01-12T12:47:26Z</time>
      </trkpt>
      <trkpt lat="45.645585581660271" lon="7.899140669032931">
        <ele>1834.8099999999999</ele>
        <time>2014-01-12T12:47:34Z</time>
      </trkpt>
      <trkpt lat="45.645627155900002" lon="7.899099262431264">
        <ele>1832.8900000000001</ele>
        <time>2014-01-12T12:47:39Z</time>
      </trkpt>
      <trkpt lat="45.645639812573791" lon="7.899046624079347">
        <ele>1831.45</ele>
        <time>2014-01-12T12:47:42Z</time>
      </trkpt>
      <trkpt lat="45.645637884736061" lon="7.898983675986528">
        <ele>1830.49</ele>
        <time>2014-01-12T12:47:56Z</time>
      </trkpt>
      <trkpt lat="45.64567836932838" lon="7.898823581635952">
        <ele>1827.1199999999999</ele>
        <time>2014-01-12T12:48:08Z</time>
      </trkpt>
      <trkpt lat="45.645682979375124" lon="7.8988141939044">
        <ele>1827.5999999999999</ele>
        <time>2014-01-12T12:48:09Z</time>
      </trkpt>
      <trkpt lat="45.645767971873283" lon="7.898605233058333">
        <ele>1825.6800000000001</ele>
        <time>2014-01-12T12:48:25Z</time>
      </trkpt>
      <trkpt lat="45.645804181694984" lon="7.898486042395234">
        <ele>1824.24</ele>
        <time>2014-01-12T12:48:33Z</time>
      </trkpt>
      <trkpt lat="45.645841900259256" lon="7.898332988843322">
        <ele>1822.8</ele>
        <time>2014-01-12T12:48:43Z</time>
      </trkpt>
      <trkpt lat="45.645952792838216" lon="7.898128721863031">
        <ele>1820.8699999999999</ele>
        <time>2014-01-12T12:48:58Z</time>
      </trkpt>
      <trkpt lat="45.646048681810498" lon="7.897942392155528">
        <ele>1819.4300000000001</ele>
        <time>2014-01-12T12:49:12Z</time>
      </trkpt>
      <trkpt lat="45.646159909665585" lon="7.897731754928827">
        <ele>1816.55</ele>
        <time>2014-01-12T12:49:29Z</time>
      </trkpt>
      <trkpt lat="45.646180026233196" lon="7.897561686113477">
        <ele>1815.1099999999999</ele>
        <time>2014-01-12T12:49:41Z</time>
      </trkpt>
      <trkpt lat="45.64617583528161" lon="7.897497564554215">
        <ele>1815.5899999999999</ele>
        <time>2014-01-12T12:49:45Z</time>
      </trkpt>
      <trkpt lat="45.646102661266923" lon="7.897291369736195">
        <ele>1816.55</ele>
        <time>2014-01-12T12:50:00Z</time>
      </trkpt>
      <trkpt lat="45.646039377897978" lon="7.897114595398307">
        <ele>1817.03</ele>
        <time>2014-01-12T12:50:14Z</time>
      </trkpt>
      <trkpt lat="45.645988248288631" lon="7.896975874900818">
        <ele>1818.47</ele>
        <time>2014-01-12T12:50:27Z</time>
      </trkpt>
      <trkpt lat="45.64596863463521" lon="7.896746546030045">
        <ele>1819.9100000000001</ele>
        <time>2014-01-12T12:50:45Z</time>
      </trkpt>
      <trkpt lat="45.64593787305057" lon="7.896573543548584">
        <ele>1821.3499999999999</ele>
        <time>2014-01-12T12:50:59Z</time>
      </trkpt>
      <trkpt lat="45.645875595510006" lon="7.896422250196338">
        <ele>1822.8</ele>
        <time>2014-01-12T12:51:15Z</time>
      </trkpt>
      <trkpt lat="45.645812228322029" lon="7.896250588819385">
        <ele>1825.2</ele>
        <time>2014-01-12T12:51:33Z</time>
      </trkpt>
      <trkpt lat="45.645777527242899" lon="7.89609108120203">
        <ele>1828.5599999999999</ele>
        <time>2014-01-12T12:51:51Z</time>
      </trkpt>
      <trkpt lat="45.645772581920028" lon="7.895937943831086">
        <ele>1829.53</ele>
        <time>2014-01-12T12:52:04Z</time>
      </trkpt>
      <trkpt lat="45.645814994350076" lon="7.895799307152629">
        <ele>1831.45</ele>
        <time>2014-01-12T12:52:17Z</time>
      </trkpt>
      <trkpt lat="45.645844247192144" lon="7.89581255055964">
        <ele>1831.45</ele>
        <time>2014-01-12T12:52:31Z</time>
      </trkpt>
      <trkpt lat="45.64591440372169" lon="7.895858399569988">
        <ele>1830.97</ele>
        <time>2014-01-12T12:52:49Z</time>
      </trkpt>
      <trkpt lat="45.645910380408168" lon="7.895852448418737">
        <ele>1831.9300000000001</ele>
        <time>2014-01-12T12:53:06Z</time>
      </trkpt>
      <trkpt lat="45.645887749269605" lon="7.895798720419407">
        <ele>1831.9300000000001</ele>
        <time>2014-01-12T12:53:21Z</time>
      </trkpt>
      <trkpt lat="45.645843325182796" lon="7.895679613575339">
        <ele>1832.4100000000001</ele>
        <time>2014-01-12T12:53:27Z</time>
      </trkpt>
      <trkpt lat="45.645853383466601" lon="7.895466964691877">
        <ele>1834.3299999999999</ele>
        <time>2014-01-12T12:53:43Z</time>
      </trkpt>
      <trkpt lat="45.645875930786133" lon="7.895261608064175">
        <ele>1835.29</ele>
        <time>2014-01-12T12:53:58Z</time>
      </trkpt>
      <trkpt lat="45.645895712077618" lon="7.895066477358341">
        <ele>1836.26</ele>
        <time>2014-01-12T12:54:13Z</time>
      </trkpt>
      <trkpt lat="45.64590023830533" lon="7.894962793216109">
        <ele>1837.22</ele>
        <time>2014-01-12T12:54:28Z</time>
      </trkpt>
      <trkpt lat="45.645897053182125" lon="7.894968828186393">
        <ele>1837.22</ele>
        <time>2014-01-12T12:54:39Z</time>
      </trkpt>
      <trkpt lat="45.64591197296977" lon="7.894940497353673">
        <ele>1837.7</ele>
        <time>2014-01-12T12:54:46Z</time>
      </trkpt>
      <trkpt lat="45.645920354872942" lon="7.894907388836145">
        <ele>1837.22</ele>
        <time>2014-01-12T12:54:49Z</time>
      </trkpt>
      <trkpt lat="45.645998138934374" lon="7.894732542335987">
        <ele>1838.6600000000001</ele>
        <time>2014-01-12T12:55:03Z</time>
      </trkpt>
      <trkpt lat="45.64604390412569" lon="7.894654925912619">
        <ele>1839.1400000000001</ele>
        <time>2014-01-12T12:55:09Z</time>
      </trkpt>
      <trkpt lat="45.646053543314338" lon="7.8946334682405">
        <ele>1839.1400000000001</ele>
        <time>2014-01-12T12:55:11Z</time>
      </trkpt>
      <trkpt lat="45.646119425073266" lon="7.894490975886583">
        <ele>1839.1400000000001</ele>
        <time>2014-01-12T12:55:26Z</time>
      </trkpt>
      <trkpt lat="45.646106684580445" lon="7.894481588155031">
        <ele>1839.1400000000001</ele>
        <time>2014-01-12T12:55:45Z</time>
      </trkpt>
      <trkpt lat="45.64610643312335" lon="7.894508996978402">
        <ele>1837.7</ele>
        <time>2014-01-12T12:55:58Z</time>
      </trkpt>
      <trkpt lat="45.646114144474268" lon="7.894514026120305">
        <ele>1837.7</ele>
        <time>2014-01-12T12:56:15Z</time>
      </trkpt>
      <trkpt lat="45.646096374839544" lon="7.894486701115966">
        <ele>1839.1400000000001</ele>
        <time>2014-01-12T12:56:25Z</time>
      </trkpt>
      <trkpt lat="45.646109785884619" lon="7.894475637003779">
        <ele>1838.6600000000001</ele>
        <time>2014-01-12T12:56:38Z</time>
      </trkpt>
      <trkpt lat="45.64610349945724" lon="7.894453508779407">
        <ele>1839.1400000000001</ele>
        <time>2014-01-12T12:56:53Z</time>
      </trkpt>
      <trkpt lat="45.646103415638208" lon="7.894469853490591">
        <ele>1838.6600000000001</ele>
        <time>2014-01-12T12:57:09Z</time>
      </trkpt>
      <trkpt lat="45.64610106870532" lon="7.894478235393763">
        <ele>1839.1400000000001</ele>
        <time>2014-01-12T12:57:31Z</time>
      </trkpt>
      <trkpt lat="45.64609226770699" lon="7.894469518214464">
        <ele>1839.1400000000001</ele>
        <time>2014-01-12T12:57:49Z</time>
      </trkpt>
      <trkpt lat="45.646077934652567" lon="7.894482091069222">
        <ele>1839.6199999999999</ele>
        <time>2014-01-12T12:58:07Z</time>
      </trkpt>
      <trkpt lat="45.646094279363751" lon="7.894473960623145">
        <ele>1839.6199999999999</ele>
        <time>2014-01-12T12:58:25Z</time>
      </trkpt>
      <trkpt lat="45.646095871925354" lon="7.894470104947686">
        <ele>1839.1400000000001</ele>
        <time>2014-01-12T12:58:44Z</time>
      </trkpt>
      <trkpt lat="45.646093441173434" lon="7.894471865147352">
        <ele>1839.6199999999999</ele>
        <time>2014-01-12T12:59:01Z</time>
      </trkpt>
      <trkpt lat="45.646088579669595" lon="7.894465494900942">
        <ele>1839.6199999999999</ele>
        <time>2014-01-12T12:59:24Z</time>
      </trkpt>
      <trkpt lat="45.646096710115671" lon="7.894474714994431">
        <ele>1840.0999999999999</ele>
        <time>2014-01-12T12:59:43Z</time>
      </trkpt>
      <trkpt lat="45.646083885803819" lon="7.894472870975733">
        <ele>1839.6199999999999</ele>
        <time>2014-01-12T13:00:05Z</time>
      </trkpt>
      <trkpt lat="45.646082796156406" lon="7.894466836005449">
        <ele>1839.6199999999999</ele>
        <time>2014-01-12T13:00:26Z</time>
      </trkpt>
      <trkpt lat="45.646089166402817" lon="7.894452335312963">
        <ele>1840.0999999999999</ele>
        <time>2014-01-12T13:00:43Z</time>
      </trkpt>
      <trkpt lat="45.646089920774102" lon="7.894458118826151">
        <ele>1840.0999999999999</ele>
        <time>2014-01-12T13:01:02Z</time>
      </trkpt>
      <trkpt lat="45.646084304898977" lon="7.894504889845848">
        <ele>1840.5799999999999</ele>
        <time>2014-01-12T13:01:19Z</time>
      </trkpt>
      <trkpt lat="45.646082209423184" lon="7.89446784183383">
        <ele>1840.0999999999999</ele>
        <time>2014-01-12T13:01:34Z</time>
      </trkpt>
      <trkpt lat="45.646094447001815" lon="7.894454263150692">
        <ele>1839.1400000000001</ele>
        <time>2014-01-12T13:02:01Z</time>
      </trkpt>
      <trkpt lat="45.646113138645887" lon="7.894472870975733">
        <ele>1840.5799999999999</ele>
        <time>2014-01-12T13:02:14Z</time>
      </trkpt>
      <trkpt lat="45.646095369011164" lon="7.894494999200106">
        <ele>1841.0599999999999</ele>
        <time>2014-01-12T13:02:33Z</time>
      </trkpt>
      <trkpt lat="45.646077515557408" lon="7.894489970058203">
        <ele>1840.5799999999999</ele>
        <time>2014-01-12T13:02:48Z</time>
      </trkpt>
      <trkpt lat="45.646073156967759" lon="7.89449717849493">
        <ele>1841.0599999999999</ele>
        <time>2014-01-12T13:03:07Z</time>
      </trkpt>
      <trkpt lat="45.646081203594804" lon="7.894498854875565">
        <ele>1840.0999999999999</ele>
        <time>2014-01-12T13:03:32Z</time>
      </trkpt>
      <trkpt lat="45.646076258271933" lon="7.894521569833159">
        <ele>1840.0999999999999</ele>
        <time>2014-01-12T13:03:56Z</time>
      </trkpt>
      <trkpt lat="45.646067876368761" lon="7.894499944522977">
        <ele>1840.0999999999999</ele>
        <time>2014-01-12T13:04:17Z</time>
      </trkpt>
      <trkpt lat="45.646074917167425" lon="7.894486784934998">
        <ele>1840.5799999999999</ele>
        <time>2014-01-12T13:04:42Z</time>
      </trkpt>
      <trkpt lat="45.646051364019513" lon="7.894473876804113">
        <ele>1840.0999999999999</ele>
        <time>2014-01-12T13:04:58Z</time>
      </trkpt>
      <trkpt lat="45.646022781729698" lon="7.894411096349359">
        <ele>1840.0999999999999</ele>
        <time>2014-01-12T13:05:10Z</time>
      </trkpt>
      <trkpt lat="45.646016160026193" lon="7.894401960074902">
        <ele>1840.0999999999999</ele>
        <time>2014-01-12T13:05:11Z</time>
      </trkpt>
      <trkpt lat="45.645990762859583" lon="7.894374551251531">
        <ele>1839.6199999999999</ele>
        <time>2014-01-12T13:05:14Z</time>
      </trkpt>
      <trkpt lat="45.645828321576118" lon="7.894352674484253">
        <ele>1839.1400000000001</ele>
        <time>2014-01-12T13:05:29Z</time>
      </trkpt>
      <trkpt lat="45.645703431218863" lon="7.894427860155702">
        <ele>1836.74</ele>
        <time>2014-01-12T13:05:43Z</time>
      </trkpt>
      <trkpt lat="45.645584659650922" lon="7.894513942301273">
        <ele>1835.29</ele>
        <time>2014-01-12T13:05:56Z</time>
      </trkpt>
      <trkpt lat="45.645568231120706" lon="7.894528778269887">
        <ele>1834.3299999999999</ele>
        <time>2014-01-12T13:05:58Z</time>
      </trkpt>
      <trkpt lat="45.645401179790497" lon="7.894588792696595">
        <ele>1832.4100000000001</ele>
        <time>2014-01-12T13:06:14Z</time>
      </trkpt>
      <trkpt lat="45.645282072946429" lon="7.894629612565041">
        <ele>1830.97</ele>
        <time>2014-01-12T13:06:25Z</time>
      </trkpt>
      <trkpt lat="45.645141843706369" lon="7.894651321694255">
        <ele>1829.53</ele>
        <time>2014-01-12T13:06:38Z</time>
      </trkpt>
      <trkpt lat="45.64496448263526" lon="7.894701361656189">
        <ele>1827.1199999999999</ele>
        <time>2014-01-12T13:06:53Z</time>
      </trkpt>
      <trkpt lat="45.644955346360803" lon="7.894703708589077">
        <ele>1826.6400000000001</ele>
        <time>2014-01-12T13:06:54Z</time>
      </trkpt>
      <trkpt lat="45.644909581169486" lon="7.894631121307612">
        <ele>1825.2</ele>
        <time>2014-01-12T13:07:01Z</time>
      </trkpt>
      <trkpt lat="45.644800197333097" lon="7.894475720822811">
        <ele>1822.3199999999999</ele>
        <time>2014-01-12T13:07:14Z</time>
      </trkpt>
      <trkpt lat="45.644726268947124" lon="7.89433247409761">
        <ele>1819.4300000000001</ele>
        <time>2014-01-12T13:07:28Z</time>
      </trkpt>
      <trkpt lat="45.644714534282684" lon="7.894312022253871">
        <ele>1819.4300000000001</ele>
        <time>2014-01-12T13:07:31Z</time>
      </trkpt>
      <trkpt lat="45.644706236198545" lon="7.894264999777079">
        <ele>1818.95</ele>
        <time>2014-01-12T13:07:34Z</time>
      </trkpt>
      <trkpt lat="45.64469039440155" lon="7.894033659249544">
        <ele>1816.0699999999999</ele>
        <time>2014-01-12T13:07:48Z</time>
      </trkpt>
      <trkpt lat="45.644586626440287" lon="7.893834421411157">
        <ele>1813.1800000000001</ele>
        <time>2014-01-12T13:08:02Z</time>
      </trkpt>
      <trkpt lat="45.644429046660662" lon="7.893818831071258">
        <ele>1811.26</ele>
        <time>2014-01-12T13:08:15Z</time>
      </trkpt>
      <trkpt lat="45.64433072693646" lon="7.893811874091625">
        <ele>1809.8199999999999</ele>
        <time>2014-01-12T13:08:23Z</time>
      </trkpt>
      <trkpt lat="45.644103158265352" lon="7.893734928220511">
        <ele>1807.9000000000001</ele>
        <time>2014-01-12T13:08:41Z</time>
      </trkpt>
      <trkpt lat="45.643990002572536" lon="7.893578605726361">
        <ele>1808.3800000000001</ele>
        <time>2014-01-12T13:08:55Z</time>
      </trkpt>
      <trkpt lat="45.643955720588565" lon="7.893528984859586">
        <ele>1807.9000000000001</ele>
        <time>2014-01-12T13:08:59Z</time>
      </trkpt>
      <trkpt lat="45.643903920426965" lon="7.893483806401491">
        <ele>1807.9000000000001</ele>
        <time>2014-01-12T13:09:04Z</time>
      </trkpt>
      <trkpt lat="45.643754135817289" lon="7.89346813224256">
        <ele>1806.9400000000001</ele>
        <time>2014-01-12T13:09:16Z</time>
      </trkpt>
      <trkpt lat="45.643648440018296" lon="7.89340803399682">
        <ele>1805.49</ele>
        <time>2014-01-12T13:09:29Z</time>
      </trkpt>
      <trkpt lat="45.64350787550211" lon="7.893282389268279">
        <ele>1802.1300000000001</ele>
        <time>2014-01-12T13:09:43Z</time>
      </trkpt>
      <trkpt lat="45.643339902162552" lon="7.893218183889985">
        <ele>1798.76</ele>
        <time>2014-01-12T13:09:57Z</time>
      </trkpt>
      <trkpt lat="45.64315658994019" lon="7.893201168626547">
        <ele>1796.8399999999999</ele>
        <time>2014-01-12T13:10:11Z</time>
      </trkpt>
      <trkpt lat="45.643088947981596" lon="7.893173340708017">
        <ele>1795.8800000000001</ele>
        <time>2014-01-12T13:10:18Z</time>
      </trkpt>
      <trkpt lat="45.643061036244035" lon="7.893101507797837">
        <ele>1795.8800000000001</ele>
        <time>2014-01-12T13:10:23Z</time>
      </trkpt>
      <trkpt lat="45.643061036244035" lon="7.893056496977806">
        <ele>1795.4000000000001</ele>
        <time>2014-01-12T13:10:26Z</time>
      </trkpt>
      <trkpt lat="45.643057432025671" lon="7.893044929951429">
        <ele>1794.9200000000001</ele>
        <time>2014-01-12T13:10:35Z</time>
      </trkpt>
      <trkpt lat="45.642918376252055" lon="7.893136041238904">
        <ele>1793.96</ele>
        <time>2014-01-12T13:10:49Z</time>
      </trkpt>
      <trkpt lat="45.642833886668086" lon="7.893106620758772">
        <ele>1792.52</ele>
        <time>2014-01-12T13:10:59Z</time>
      </trkpt>
      <trkpt lat="45.64282089471817" lon="7.893102345988154">
        <ele>1793</ele>
        <time>2014-01-12T13:11:00Z</time>
      </trkpt>
      <trkpt lat="45.642674714326859" lon="7.892985250800848">
        <ele>1791.0699999999999</ele>
        <time>2014-01-12T13:11:15Z</time>
      </trkpt>
      <trkpt lat="45.642612269148231" lon="7.892828593030572">
        <ele>1790.1099999999999</ele>
        <time>2014-01-12T13:11:28Z</time>
      </trkpt>
      <trkpt lat="45.642608916386962" lon="7.892816187813878">
        <ele>1790.1099999999999</ele>
        <time>2014-01-12T13:11:29Z</time>
      </trkpt>
      <trkpt lat="45.642605060711503" lon="7.892803195863962">
        <ele>1789.6300000000001</ele>
        <time>2014-01-12T13:11:30Z</time>
      </trkpt>
      <trkpt lat="45.642606066539884" lon="7.892672186717391">
        <ele>1788.1900000000001</ele>
        <time>2014-01-12T13:11:39Z</time>
      </trkpt>
      <trkpt lat="45.642615118995309" lon="7.892494658008218">
        <ele>1784.8199999999999</ele>
        <time>2014-01-12T13:11:50Z</time>
      </trkpt>
      <trkpt lat="45.642620399594307" lon="7.89233204908669">
        <ele>1782.4200000000001</ele>
        <time>2014-01-12T13:12:00Z</time>
      </trkpt>
      <trkpt lat="45.642612101510167" lon="7.892126692458987">
        <ele>1779.0599999999999</ele>
        <time>2014-01-12T13:12:12Z</time>
      </trkpt>
      <trkpt lat="45.642603132873774" lon="7.89203935302794">
        <ele>1777.1300000000001</ele>
        <time>2014-01-12T13:12:17Z</time>
      </trkpt>
      <trkpt lat="45.64255703240633" lon="7.891846066340804">
        <ele>1773.29</ele>
        <time>2014-01-12T13:12:28Z</time>
      </trkpt>
      <trkpt lat="45.642521912232041" lon="7.891702400520444">
        <ele>1771.3699999999999</ele>
        <time>2014-01-12T13:12:36Z</time>
      </trkpt>
      <trkpt lat="45.642565917223692" lon="7.891677003353834">
        <ele>1771.3699999999999</ele>
        <time>2014-01-12T13:12:48Z</time>
      </trkpt>
      <trkpt lat="45.642666332423687" lon="7.891690414398909">
        <ele>1772.3299999999999</ele>
        <time>2014-01-12T13:13:04Z</time>
      </trkpt>
      <trkpt lat="45.642678150907159" lon="7.89167239330709">
        <ele>1770.8900000000001</ele>
        <time>2014-01-12T13:13:13Z</time>
      </trkpt>
      <trkpt lat="45.64272852614522" lon="7.891502156853676">
        <ele>1768.96</ele>
        <time>2014-01-12T13:13:28Z</time>
      </trkpt>
      <trkpt lat="45.642746379598975" lon="7.891427725553513">
        <ele>1766.5599999999999</ele>
        <time>2014-01-12T13:13:34Z</time>
      </trkpt>
      <trkpt lat="45.642704050987959" lon="7.891320018097758">
        <ele>1762.71</ele>
        <time>2014-01-12T13:13:42Z</time>
      </trkpt>
      <trkpt lat="45.64268016256392" lon="7.891247598454356">
        <ele>1760.79</ele>
        <time>2014-01-12T13:13:47Z</time>
      </trkpt>
      <trkpt lat="45.642684604972601" lon="7.891093371436">
        <ele>1758.8699999999999</ele>
        <time>2014-01-12T13:13:56Z</time>
      </trkpt>
      <trkpt lat="45.642698267474771" lon="7.890913663432002">
        <ele>1756.95</ele>
        <time>2014-01-12T13:14:07Z</time>
      </trkpt>
      <trkpt lat="45.642736321315169" lon="7.890687938779593">
        <ele>1753.5799999999999</ele>
        <time>2014-01-12T13:14:22Z</time>
      </trkpt>
      <trkpt lat="45.64277152530849" lon="7.890544692054391">
        <ele>1750.7</ele>
        <time>2014-01-12T13:14:32Z</time>
      </trkpt>
      <trkpt lat="45.642814105376601" lon="7.890345118939877">
        <ele>1747.8099999999999</ele>
        <time>2014-01-12T13:14:44Z</time>
      </trkpt>
      <trkpt lat="45.642806645482779" lon="7.890288373455405">
        <ele>1746.3699999999999</ele>
        <time>2014-01-12T13:14:49Z</time>
      </trkpt>
      <trkpt lat="45.642717210575938" lon="7.890175972133875">
        <ele>1743.01</ele>
        <time>2014-01-12T13:14:58Z</time>
      </trkpt>
      <trkpt lat="45.642635822296143" lon="7.890016045421362">
        <ele>1740.5999999999999</ele>
        <time>2014-01-12T13:15:09Z</time>
      </trkpt>
      <trkpt lat="45.642654346302152" lon="7.889945805072784">
        <ele>1739.6400000000001</ele>
        <time>2014-01-12T13:15:15Z</time>
      </trkpt>
      <trkpt lat="45.642751827836037" lon="7.889832900837064">
        <ele>1736.28</ele>
        <time>2014-01-12T13:15:27Z</time>
      </trkpt>
      <trkpt lat="45.642848554998636" lon="7.889739526435733">
        <ele>1734.3599999999999</ele>
        <time>2014-01-12T13:15:40Z</time>
      </trkpt>
      <trkpt lat="45.642956094816327" lon="7.889713626354933">
        <ele>1732.4300000000001</ele>
        <time>2014-01-12T13:15:48Z</time>
      </trkpt>
      <trkpt lat="45.642994651570916" lon="7.889692420139909">
        <ele>1732.4300000000001</ele>
        <time>2014-01-12T13:15:52Z</time>
      </trkpt>
      <trkpt lat="45.64314829185605" lon="7.889603655785322">
        <ele>1729.55</ele>
        <time>2014-01-12T13:16:06Z</time>
      </trkpt>
      <trkpt lat="45.643221130594611" lon="7.889524362981319">
        <ele>1726.6700000000001</ele>
        <time>2014-01-12T13:16:16Z</time>
      </trkpt>
      <trkpt lat="45.643235463649035" lon="7.889506258070469">
        <ele>1726.1800000000001</ele>
        <time>2014-01-12T13:16:18Z</time>
      </trkpt>
      <trkpt lat="45.64331341534853" lon="7.889477256685495">
        <ele>1724.26</ele>
        <time>2014-01-12T13:16:25Z</time>
      </trkpt>
      <trkpt lat="45.643402263522148" lon="7.889417828992009">
        <ele>1721.3800000000001</ele>
        <time>2014-01-12T13:16:37Z</time>
      </trkpt>
      <trkpt lat="45.643455907702446" lon="7.889354797080159">
        <ele>1718.01</ele>
        <time>2014-01-12T13:16:46Z</time>
      </trkpt>
      <trkpt lat="45.64353184774518" lon="7.889347588643432">
        <ele>1715.1300000000001</ele>
        <time>2014-01-12T13:16:55Z</time>
      </trkpt>
      <trkpt lat="45.643637962639332" lon="7.889364268630743">
        <ele>1711.28</ele>
        <time>2014-01-12T13:17:07Z</time>
      </trkpt>
      <trkpt lat="45.643729073926806" lon="7.889314144849777">
        <ele>1707.9200000000001</ele>
        <time>2014-01-12T13:17:17Z</time>
      </trkpt>
      <trkpt lat="45.643766038119793" lon="7.889295369386673">
        <ele>1706.96</ele>
        <time>2014-01-12T13:17:21Z</time>
      </trkpt>
      <trkpt lat="45.643818592652678" lon="7.889331076294184">
        <ele>1709.8399999999999</ele>
        <time>2014-01-12T13:17:34Z</time>
      </trkpt>
      <trkpt lat="45.643907273188233" lon="7.889423947781324">
        <ele>1707.4400000000001</ele>
        <time>2014-01-12T13:17:45Z</time>
      </trkpt>
      <trkpt lat="45.643975166603923" lon="7.889472814276815">
        <ele>1704.0699999999999</ele>
        <time>2014-01-12T13:17:52Z</time>
      </trkpt>
      <trkpt lat="45.643994864076376" lon="7.88948773406446">
        <ele>1703.1099999999999</ele>
        <time>2014-01-12T13:17:54Z</time>
      </trkpt>
      <trkpt lat="45.644024787470698" lon="7.889502989128232">
        <ele>1701.6700000000001</ele>
        <time>2014-01-12T13:17:57Z</time>
      </trkpt>
      <trkpt lat="45.644086226820946" lon="7.889499049633741">
        <ele>1699.75</ele>
        <time>2014-01-12T13:18:02Z</time>
      </trkpt>
      <trkpt lat="45.644140625372529" lon="7.889500558376312">
        <ele>1697.8299999999999</ele>
        <time>2014-01-12T13:18:07Z</time>
      </trkpt>
      <trkpt lat="45.644198376685381" lon="7.889444818720222">
        <ele>1694.9400000000001</ele>
        <time>2014-01-12T13:18:13Z</time>
      </trkpt>
      <trkpt lat="45.644235173240304" lon="7.889461498707533">
        <ele>1693.98</ele>
        <time>2014-01-12T13:18:17Z</time>
      </trkpt>
      <trkpt lat="45.644284961745143" lon="7.889590580016375">
        <ele>1691.0999999999999</ele>
        <time>2014-01-12T13:18:28Z</time>
      </trkpt>
      <trkpt lat="45.644461987540126" lon="7.889567781239748">
        <ele>1688.21</ele>
        <time>2014-01-12T13:18:43Z</time>
      </trkpt>
      <trkpt lat="45.644447403028607" lon="7.889564093202353">
        <ele>1689.1700000000001</ele>
        <time>2014-01-12T13:18:57Z</time>
      </trkpt>
      <trkpt lat="45.644449414685369" lon="7.889557387679815">
        <ele>1688.6900000000001</ele>
        <time>2014-01-12T13:18:58Z</time>
      </trkpt>
      <trkpt lat="45.644457042217255" lon="7.88949066773057">
        <ele>1687.73</ele>
        <time>2014-01-12T13:19:02Z</time>
      </trkpt>
      <trkpt lat="45.644473051652312" lon="7.889334345236421">
        <ele>1685.8099999999999</ele>
        <time>2014-01-12T13:19:17Z</time>
      </trkpt>
      <trkpt lat="45.644464418292046" lon="7.889337781816721">
        <ele>1685.8099999999999</ele>
        <time>2014-01-12T13:19:33Z</time>
      </trkpt>
      <trkpt lat="45.644459556788206" lon="7.889351947233081">
        <ele>1685.3299999999999</ele>
        <time>2014-01-12T13:19:52Z</time>
      </trkpt>
      <trkpt lat="45.644447486847639" lon="7.889389833435416">
        <ele>1684.8499999999999</ele>
        <time>2014-01-12T13:20:19Z</time>
      </trkpt>
      <trkpt lat="45.644393842667341" lon="7.889361083507538">
        <ele>1684.8499999999999</ele>
        <time>2014-01-12T13:20:39Z</time>
      </trkpt>
      <trkpt lat="45.644450001418591" lon="7.889268798753619">
        <ele>1685.3299999999999</ele>
        <time>2014-01-12T13:21:00Z</time>
      </trkpt>
      <trkpt lat="45.644477661699057" lon="7.889278940856457">
        <ele>1684.8499999999999</ele>
        <time>2014-01-12T13:21:22Z</time>
      </trkpt>
      <trkpt lat="45.64445486292243" lon="7.889289250597358">
        <ele>1685.3299999999999</ele>
        <time>2014-01-12T13:21:52Z</time>
      </trkpt>
      <trkpt lat="45.644444888457656" lon="7.889282880350947">
        <ele>1685.3299999999999</ele>
        <time>2014-01-12T13:22:18Z</time>
      </trkpt>
      <trkpt lat="45.644421670585871" lon="7.889264188706875">
        <ele>1685.3299999999999</ele>
        <time>2014-01-12T13:22:47Z</time>
      </trkpt>
      <trkpt lat="45.644379509612918" lon="7.889327891170979">
        <ele>1685.3299999999999</ele>
        <time>2014-01-12T13:23:16Z</time>
      </trkpt>
      <trkpt lat="45.644412282854319" lon="7.889300063252449">
        <ele>1685.3299999999999</ele>
        <time>2014-01-12T13:23:47Z</time>
      </trkpt>
      <trkpt lat="45.644450839608908" lon="7.889341386035085">
        <ele>1685.3299999999999</ele>
        <time>2014-01-12T13:24:18Z</time>
      </trkpt>
      <trkpt lat="45.644453773275018" lon="7.889278270304203">
        <ele>1686.29</ele>
        <time>2014-01-12T13:24:48Z</time>
      </trkpt>
      <trkpt lat="45.644416222348809" lon="7.88930987007916">
        <ele>1685.8099999999999</ele>
        <time>2014-01-12T13:25:13Z</time>
      </trkpt>
      <trkpt lat="45.644392836838961" lon="7.889256393536925">
        <ele>1686.29</ele>
        <time>2014-01-12T13:25:40Z</time>
      </trkpt>
      <trkpt lat="45.644356459379196" lon="7.889202749356628">
        <ele>1685.8099999999999</ele>
        <time>2014-01-12T13:26:06Z</time>
      </trkpt>
      <trkpt lat="45.644371965900064" lon="7.889258405193687">
        <ele>1686.29</ele>
        <time>2014-01-12T13:26:23Z</time>
      </trkpt>
      <trkpt lat="45.644447570666671" lon="7.889329819008708">
        <ele>1686.29</ele>
        <time>2014-01-12T13:26:39Z</time>
      </trkpt>
      <trkpt lat="45.644520577043295" lon="7.889219596982002">
        <ele>1685.3299999999999</ele>
        <time>2014-01-12T13:26:48Z</time>
      </trkpt>
      <trkpt lat="45.644557122141123" lon="7.88903871551156">
        <ele>1684.8499999999999</ele>
        <time>2014-01-12T13:27:02Z</time>
      </trkpt>
      <trkpt lat="45.644545974209905" lon="7.889027064666152">
        <ele>1684.3699999999999</ele>
        <time>2014-01-12T13:27:03Z</time>
      </trkpt>
      <trkpt lat="45.64448713324964" lon="7.888824893161655">
        <ele>1681.96</ele>
        <time>2014-01-12T13:27:16Z</time>
      </trkpt>
      <trkpt lat="45.644514374434948" lon="7.888739733025432">
        <ele>1680.04</ele>
        <time>2014-01-12T13:27:22Z</time>
      </trkpt>
      <trkpt lat="45.644521247595549" lon="7.888689190149307">
        <ele>1679.5599999999999</ele>
        <time>2014-01-12T13:27:27Z</time>
      </trkpt>
      <trkpt lat="45.644508004188538" lon="7.888566395267844">
        <ele>1680.52</ele>
        <time>2014-01-12T13:27:35Z</time>
      </trkpt>
      <trkpt lat="45.644524432718754" lon="7.888523479923606">
        <ele>1679.5599999999999</ele>
        <time>2014-01-12T13:27:38Z</time>
      </trkpt>
      <trkpt lat="45.644538262858987" lon="7.8884650580585">
        <ele>1678.5999999999999</ele>
        <time>2014-01-12T13:27:42Z</time>
      </trkpt>
      <trkpt lat="45.644548237323761" lon="7.888416107743979">
        <ele>1678.5999999999999</ele>
        <time>2014-01-12T13:27:45Z</time>
      </trkpt>
      <trkpt lat="45.644560223445296" lon="7.888379395008087">
        <ele>1678.1199999999999</ele>
        <time>2014-01-12T13:27:48Z</time>
      </trkpt>
      <trkpt lat="45.644556954503059" lon="7.888325331732631">
        <ele>1677.1600000000001</ele>
        <time>2014-01-12T13:27:52Z</time>
      </trkpt>
      <trkpt lat="45.644528707489371" lon="7.888143109157682">
        <ele>1675.72</ele>
        <time>2014-01-12T13:28:03Z</time>
      </trkpt>
      <trkpt lat="45.644514290615916" lon="7.888085776939988">
        <ele>1675.23</ele>
        <time>2014-01-12T13:28:07Z</time>
      </trkpt>
      <trkpt lat="45.644505405798554" lon="7.888027271255851">
        <ele>1673.79</ele>
        <time>2014-01-12T13:28:11Z</time>
      </trkpt>
      <trkpt lat="45.644546896219254" lon="7.887879833579063">
        <ele>1673.3099999999999</ele>
        <time>2014-01-12T13:28:22Z</time>
      </trkpt>
      <trkpt lat="45.644454695284367" lon="7.887694090604782">
        <ele>1669.47</ele>
        <time>2014-01-12T13:28:34Z</time>
      </trkpt>
      <trkpt lat="45.644402392208576" lon="7.887560147792101">
        <ele>1668.99</ele>
        <time>2014-01-12T13:28:43Z</time>
      </trkpt>
      <trkpt lat="45.644385712221265" lon="7.887358143925667">
        <ele>1665.1400000000001</ele>
        <time>2014-01-12T13:28:56Z</time>
      </trkpt>
      <trkpt lat="45.64438303001225" lon="7.887340039014816">
        <ele>1665.1400000000001</ele>
        <time>2014-01-12T13:28:57Z</time>
      </trkpt>
      <trkpt lat="45.644380431622267" lon="7.887289077043533">
        <ele>1663.7</ele>
        <time>2014-01-12T13:29:00Z</time>
      </trkpt>
      <trkpt lat="45.644388226792216" lon="7.887248508632183">
        <ele>1662.74</ele>
        <time>2014-01-12T13:29:03Z</time>
      </trkpt>
      <trkpt lat="45.644379509612918" lon="7.887089503929019">
        <ele>1658.8900000000001</ele>
        <time>2014-01-12T13:29:13Z</time>
      </trkpt>
      <trkpt lat="45.644376575946808" lon="7.887055054306984">
        <ele>1657.45</ele>
        <time>2014-01-12T13:29:15Z</time>
      </trkpt>
      <trkpt lat="45.644382862374187" lon="7.886885236948729">
        <ele>1656.01</ele>
        <time>2014-01-12T13:29:27Z</time>
      </trkpt>
      <trkpt lat="45.644393255934119" lon="7.886795718222857">
        <ele>1653.5999999999999</ele>
        <time>2014-01-12T13:29:40Z</time>
      </trkpt>
      <trkpt lat="45.644433740526438" lon="7.886732937768102">
        <ele>1650.72</ele>
        <time>2014-01-12T13:29:51Z</time>
      </trkpt>
      <trkpt lat="45.644430471584201" lon="7.88663269020617">
        <ele>1647.3599999999999</ele>
        <time>2014-01-12T13:30:04Z</time>
      </trkpt>
      <trkpt lat="45.644384538754821" lon="7.886545602232218">
        <ele>1643.99</ele>
        <time>2014-01-12T13:30:14Z</time>
      </trkpt>
      <trkpt lat="45.644372049719095" lon="7.886517019942403">
        <ele>1643.03</ele>
        <time>2014-01-12T13:30:16Z</time>
      </trkpt>
      <trkpt lat="45.644352519884706" lon="7.886498076841235">
        <ele>1642.0699999999999</ele>
        <time>2014-01-12T13:30:19Z</time>
      </trkpt>
      <trkpt lat="45.644348915666342" lon="7.886390034109354">
        <ele>1638.7</ele>
        <time>2014-01-12T13:30:28Z</time>
      </trkpt>
      <trkpt lat="45.644342126324773" lon="7.886386262252927">
        <ele>1638.7</ele>
        <time>2014-01-12T13:30:29Z</time>
      </trkpt>
      <trkpt lat="45.644347239285707" lon="7.886289786547422">
        <ele>1635.3399999999999</ele>
        <time>2014-01-12T13:30:38Z</time>
      </trkpt>
      <trkpt lat="45.644357046112418" lon="7.886234214529395">
        <ele>1633.9000000000001</ele>
        <time>2014-01-12T13:30:43Z</time>
      </trkpt>
      <trkpt lat="45.644326116889715" lon="7.886180151253939">
        <ele>1631.98</ele>
        <time>2014-01-12T13:30:48Z</time>
      </trkpt>
      <trkpt lat="45.644316729158163" lon="7.88616799749434">
        <ele>1631.49</ele>
        <time>2014-01-12T13:30:49Z</time>
      </trkpt>
      <trkpt lat="45.644259816035628" lon="7.886090129613876">
        <ele>1628.6099999999999</ele>
        <time>2014-01-12T13:31:01Z</time>
      </trkpt>
      <trkpt lat="45.644254786893725" lon="7.886039083823562">
        <ele>1628.1300000000001</ele>
        <time>2014-01-12T13:31:05Z</time>
      </trkpt>
      <trkpt lat="45.644230311736465" lon="7.88601360283792">
        <ele>1627.1700000000001</ele>
        <time>2014-01-12T13:31:07Z</time>
      </trkpt>
      <trkpt lat="45.644157640635967" lon="7.88591243326664">
        <ele>1623.8</ele>
        <time>2014-01-12T13:31:17Z</time>
      </trkpt>
      <trkpt lat="45.644151270389557" lon="7.885899525135756">
        <ele>1623.3199999999999</ele>
        <time>2014-01-12T13:31:18Z</time>
      </trkpt>
      <trkpt lat="45.644140457734466" lon="7.885869517922401">
        <ele>1622.8399999999999</ele>
        <time>2014-01-12T13:31:20Z</time>
      </trkpt>
      <trkpt lat="45.644141882658005" lon="7.885629879310727">
        <ele>1620.4400000000001</ele>
        <time>2014-01-12T13:31:34Z</time>
      </trkpt>
      <trkpt lat="45.644059656187892" lon="7.885469030588865">
        <ele>1617.5599999999999</ele>
        <time>2014-01-12T13:31:46Z</time>
      </trkpt>
      <trkpt lat="45.644005676731467" lon="7.885375237092376">
        <ele>1615.1500000000001</ele>
        <time>2014-01-12T13:32:01Z</time>
      </trkpt>
      <trkpt lat="45.643993774428964" lon="7.885328214615583">
        <ele>1614.1900000000001</ele>
        <time>2014-01-12T13:32:09Z</time>
      </trkpt>
      <trkpt lat="45.643971478566527" lon="7.885274486616254">
        <ele>1613.23</ele>
        <time>2014-01-12T13:32:14Z</time>
      </trkpt>
      <trkpt lat="45.643939627334476" lon="7.885081702843308">
        <ele>1610.8299999999999</ele>
        <time>2014-01-12T13:32:28Z</time>
      </trkpt>
      <trkpt lat="45.643933340907097" lon="7.885056808590889">
        <ele>1609.8599999999999</ele>
        <time>2014-01-12T13:32:30Z</time>
      </trkpt>
      <trkpt lat="45.643886988982558" lon="7.884978270158172">
        <ele>1607.9400000000001</ele>
        <time>2014-01-12T13:32:37Z</time>
      </trkpt>
      <trkpt lat="45.643870644271374" lon="7.884842399507761">
        <ele>1604.5799999999999</ele>
        <time>2014-01-12T13:32:47Z</time>
      </trkpt>
      <trkpt lat="45.643805935978889" lon="7.884811386466026">
        <ele>1601.6900000000001</ele>
        <time>2014-01-12T13:32:58Z</time>
      </trkpt>
      <trkpt lat="45.643789004534483" lon="7.884801328182221">
        <ele>1600.73</ele>
        <time>2014-01-12T13:33:00Z</time>
      </trkpt>
      <trkpt lat="45.643702084198594" lon="7.884711222723126">
        <ele>1597.8499999999999</ele>
        <time>2014-01-12T13:33:14Z</time>
      </trkpt>
      <trkpt lat="45.643574176356196" lon="7.884650034829974">
        <ele>1594.96</ele>
        <time>2014-01-12T13:33:28Z</time>
      </trkpt>
      <trkpt lat="45.643509719520807" lon="7.884518187493086">
        <ele>1592.0799999999999</ele>
        <time>2014-01-12T13:33:39Z</time>
      </trkpt>
      <trkpt lat="45.643432773649693" lon="7.884420286864042">
        <ele>1588.24</ele>
        <time>2014-01-12T13:33:50Z</time>
      </trkpt>
      <trkpt lat="45.643339399248362" lon="7.884344765916467">
        <ele>1585.3499999999999</ele>
        <time>2014-01-12T13:34:01Z</time>
      </trkpt>
      <trkpt lat="45.643255412578583" lon="7.884311405941844">
        <ele>1584.3900000000001</ele>
        <time>2014-01-12T13:34:18Z</time>
      </trkpt>
      <trkpt lat="45.643157847225666" lon="7.884284667670727">
        <ele>1583.4300000000001</ele>
        <time>2014-01-12T13:34:29Z</time>
      </trkpt>
      <trkpt lat="45.643033208325505" lon="7.884175786748529">
        <ele>1581.51</ele>
        <time>2014-01-12T13:34:44Z</time>
      </trkpt>
      <trkpt lat="45.642906976863742" lon="7.884127926081419">
        <ele>1578.1400000000001</ele>
        <time>2014-01-12T13:34:56Z</time>
      </trkpt>
      <trkpt lat="45.642896834760904" lon="7.884121723473072">
        <ele>1578.1400000000001</ele>
        <time>2014-01-12T13:34:57Z</time>
      </trkpt>
      <trkpt lat="45.64280572347343" lon="7.88409817032516">
        <ele>1576.22</ele>
        <time>2014-01-12T13:35:11Z</time>
      </trkpt>
      <trkpt lat="45.642802286893129" lon="7.884111078456044">
        <ele>1575.26</ele>
        <time>2014-01-12T13:35:25Z</time>
      </trkpt>
      <trkpt lat="45.642812261357903" lon="7.884110491722822">
        <ele>1575.74</ele>
        <time>2014-01-12T13:35:49Z</time>
      </trkpt>
      <trkpt lat="45.642825588583946" lon="7.88410747423768">
        <ele>1574.78</ele>
        <time>2014-01-12T13:36:10Z</time>
      </trkpt>
      <trkpt lat="45.642819469794631" lon="7.884035473689437">
        <ele>1574.78</ele>
        <time>2014-01-12T13:36:31Z</time>
      </trkpt>
      <trkpt lat="45.642815446481109" lon="7.884010830894113">
        <ele>1575.26</ele>
        <time>2014-01-12T13:36:45Z</time>
      </trkpt>
      <trkpt lat="45.642799185588956" lon="7.884027929976583">
        <ele>1574.78</ele>
        <time>2014-01-12T13:37:04Z</time>
      </trkpt>
      <trkpt lat="45.642760125920177" lon="7.884072437882423">
        <ele>1576.7</ele>
        <time>2014-01-12T13:37:28Z</time>
      </trkpt>
      <trkpt lat="45.642735902220011" lon="7.884071515873075">
        <ele>1576.22</ele>
        <time>2014-01-12T13:37:45Z</time>
      </trkpt>
      <trkpt lat="45.642657782882452" lon="7.884017955511808">
        <ele>1573.8199999999999</ele>
        <time>2014-01-12T13:37:59Z</time>
      </trkpt>
      <trkpt lat="45.642564408481121" lon="7.883951822295785">
        <ele>1571.8900000000001</ele>
        <time>2014-01-12T13:38:13Z</time>
      </trkpt>
      <trkpt lat="45.642490899190307" lon="7.883894992992282">
        <ele>1569.49</ele>
        <time>2014-01-12T13:38:20Z</time>
      </trkpt>
      <trkpt lat="45.642364583909512" lon="7.883759709075093">
        <ele>1566.1199999999999</ele>
        <time>2014-01-12T13:38:33Z</time>
      </trkpt>
      <trkpt lat="45.642345724627376" lon="7.883749231696129">
        <ele>1566.1199999999999</ele>
        <time>2014-01-12T13:38:35Z</time>
      </trkpt>
      <trkpt lat="45.642324686050415" lon="7.883691396564245">
        <ele>1565.1600000000001</ele>
        <time>2014-01-12T13:38:42Z</time>
      </trkpt>
      <trkpt lat="45.64233809709549" lon="7.883599614724517">
        <ele>1562.76</ele>
        <time>2014-01-12T13:38:49Z</time>
      </trkpt>
      <trkpt lat="45.642331978306174" lon="7.883581928908825">
        <ele>1561.8</ele>
        <time>2014-01-12T13:38:51Z</time>
      </trkpt>
      <trkpt lat="45.642345054075122" lon="7.883528033271432">
        <ele>1560.3599999999999</ele>
        <time>2014-01-12T13:38:56Z</time>
      </trkpt>
      <trkpt lat="45.642325859516859" lon="7.883393503725529">
        <ele>1556.99</ele>
        <time>2014-01-12T13:39:07Z</time>
      </trkpt>
      <trkpt lat="45.642332397401333" lon="7.883350839838386">
        <ele>1556.51</ele>
        <time>2014-01-12T13:39:13Z</time>
      </trkpt>
      <trkpt lat="45.642344132065773" lon="7.883149841800332">
        <ele>1553.6300000000001</ele>
        <time>2014-01-12T13:39:24Z</time>
      </trkpt>
      <trkpt lat="45.642337510362267" lon="7.882997123524547">
        <ele>1550.74</ele>
        <time>2014-01-12T13:39:34Z</time>
      </trkpt>
      <trkpt lat="45.642326613888144" lon="7.882953956723213">
        <ele>1549.3</ele>
        <time>2014-01-12T13:39:37Z</time>
      </trkpt>
      <trkpt lat="45.642318734899163" lon="7.882892852649093">
        <ele>1547.3800000000001</ele>
        <time>2014-01-12T13:39:41Z</time>
      </trkpt>
      <trkpt lat="45.64231077209115" lon="7.882864354178309">
        <ele>1546.4200000000001</ele>
        <time>2014-01-12T13:39:43Z</time>
      </trkpt>
      <trkpt lat="45.642268862575293" lon="7.882823701947928">
        <ele>1544.5</ele>
        <time>2014-01-12T13:39:47Z</time>
      </trkpt>
      <trkpt lat="45.642153527587652" lon="7.882770476862788">
        <ele>1541.6099999999999</ele>
        <time>2014-01-12T13:39:57Z</time>
      </trkpt>
      <trkpt lat="45.64205470494926" lon="7.88272705860436">
        <ele>1538.73</ele>
        <time>2014-01-12T13:40:07Z</time>
      </trkpt>
      <trkpt lat="45.641996953636408" lon="7.882662182673812">
        <ele>1535.3599999999999</ele>
        <time>2014-01-12T13:40:16Z</time>
      </trkpt>
      <trkpt lat="45.641969460994005" lon="7.882630582898855">
        <ele>1534.4000000000001</ele>
        <time>2014-01-12T13:40:20Z</time>
      </trkpt>
      <trkpt lat="45.641963761299849" lon="7.882602168247104">
        <ele>1533.4400000000001</ele>
        <time>2014-01-12T13:40:22Z</time>
      </trkpt>
      <trkpt lat="45.641955714672804" lon="7.882559169083834">
        <ele>1531.52</ele>
        <time>2014-01-12T13:40:26Z</time>
      </trkpt>
      <trkpt lat="45.641923444345593" lon="7.882507871836424">
        <ele>1530.0799999999999</ele>
        <time>2014-01-12T13:40:31Z</time>
      </trkpt>
      <trkpt lat="45.641931155696511" lon="7.882508710026741">
        <ele>1528.6300000000001</ele>
        <time>2014-01-12T13:40:37Z</time>
      </trkpt>
      <trkpt lat="45.641912128776312" lon="7.882493454962969">
        <ele>1528.6300000000001</ele>
        <time>2014-01-12T13:40:40Z</time>
      </trkpt>
      <trkpt lat="45.641812719404697" lon="7.88241826929152">
        <ele>1525.27</ele>
        <time>2014-01-12T13:40:53Z</time>
      </trkpt>
      <trkpt lat="45.641755303367972" lon="7.882428495213389">
        <ele>1523.3499999999999</ele>
        <time>2014-01-12T13:41:00Z</time>
      </trkpt>
      <trkpt lat="45.641739964485168" lon="7.882333863526583">
        <ele>1521.4200000000001</ele>
        <time>2014-01-12T13:41:13Z</time>
      </trkpt>
      <trkpt lat="45.64172588288784" lon="7.882275944575667">
        <ele>1519.98</ele>
        <time>2014-01-12T13:41:17Z</time>
      </trkpt>
      <trkpt lat="45.641609290614724" lon="7.882410138845444">
        <ele>1518.0599999999999</ele>
        <time>2014-01-12T13:41:32Z</time>
      </trkpt>
      <trkpt lat="45.641571823507547" lon="7.882423717528582">
        <ele>1517.0999999999999</ele>
        <time>2014-01-12T13:41:37Z</time>
      </trkpt>
      <trkpt lat="45.641523459926248" lon="7.882294468581677">
        <ele>1513.73</ele>
        <time>2014-01-12T13:41:47Z</time>
      </trkpt>
      <trkpt lat="45.64148691482842" lon="7.882324559614062">
        <ele>1512.77</ele>
        <time>2014-01-12T13:42:00Z</time>
      </trkpt>
      <trkpt lat="45.6414395570755" lon="7.882272340357304">
        <ele>1510.3699999999999</ele>
        <time>2014-01-12T13:42:08Z</time>
      </trkpt>
      <trkpt lat="45.641351714730263" lon="7.882229341194034">
        <ele>1506.52</ele>
        <time>2014-01-12T13:42:16Z</time>
      </trkpt>
      <trkpt lat="45.641334448009729" lon="7.882225485518575">
        <ele>1506.04</ele>
        <time>2014-01-12T13:42:18Z</time>
      </trkpt>
      <trkpt lat="45.641309889033437" lon="7.882267897948623">
        <ele>1506.04</ele>
        <time>2014-01-12T13:42:22Z</time>
      </trkpt>
      <trkpt lat="45.641216514632106" lon="7.882364876568317">
        <ele>1504.5999999999999</ele>
        <time>2014-01-12T13:42:37Z</time>
      </trkpt>
      <trkpt lat="45.641175946220756" lon="7.8824124019593">
        <ele>1504.5999999999999</ele>
        <time>2014-01-12T13:42:47Z</time>
      </trkpt>
      <trkpt lat="45.641097407788038" lon="7.882428746670485">
        <ele>1503.6400000000001</ele>
        <time>2014-01-12T13:42:58Z</time>
      </trkpt>
      <trkpt lat="45.641034040600061" lon="7.882384657859802">
        <ele>1502.6800000000001</ele>
        <time>2014-01-12T13:43:05Z</time>
      </trkpt>
      <trkpt lat="45.640873108059168" lon="7.88218374364078">
        <ele>1499.3099999999999</ele>
        <time>2014-01-12T13:43:22Z</time>
      </trkpt>
      <trkpt lat="45.64085709862411" lon="7.882052399218082">
        <ele>1497.3900000000001</ele>
        <time>2014-01-12T13:43:31Z</time>
      </trkpt>
      <trkpt lat="45.640857014805079" lon="7.881952151656151">
        <ele>1495.95</ele>
        <time>2014-01-12T13:43:37Z</time>
      </trkpt>
      <trkpt lat="45.640845028683543" lon="7.881864728406072">
        <ele>1494.03</ele>
        <time>2014-01-12T13:43:42Z</time>
      </trkpt>
      <trkpt lat="45.640816781669855" lon="7.881632968783379">
        <ele>1491.1400000000001</ele>
        <time>2014-01-12T13:43:56Z</time>
      </trkpt>
      <trkpt lat="45.640778979286551" lon="7.881344798952341">
        <ele>1488.26</ele>
        <time>2014-01-12T13:44:12Z</time>
      </trkpt>
      <trkpt lat="45.640757773071527" lon="7.881062747910619">
        <ele>1486.3399999999999</ele>
        <time>2014-01-12T13:44:27Z</time>
      </trkpt>
      <trkpt lat="45.640765568241477" lon="7.880885386839509">
        <ele>1485.3699999999999</ele>
        <time>2014-01-12T13:44:36Z</time>
      </trkpt>
      <trkpt lat="45.640772860497236" lon="7.88082629442215">
        <ele>1484.8900000000001</ele>
        <time>2014-01-12T13:44:39Z</time>
      </trkpt>
      <trkpt lat="45.640754923224449" lon="7.88075496442616">
        <ele>1483.45</ele>
        <time>2014-01-12T13:44:44Z</time>
      </trkpt>
      <trkpt lat="45.640718461945653" lon="7.88067240267992">
        <ele>1482.49</ele>
        <time>2014-01-12T13:44:49Z</time>
      </trkpt>
      <trkpt lat="45.640591979026794" lon="7.880500825121999">
        <ele>1478.6500000000001</ele>
        <time>2014-01-12T13:45:03Z</time>
      </trkpt>
      <trkpt lat="45.640420820564032" lon="7.880271915346384">
        <ele>1475.28</ele>
        <time>2014-01-12T13:45:20Z</time>
      </trkpt>
      <trkpt lat="45.64037187024951" lon="7.880136044695973">
        <ele>1473.8399999999999</ele>
        <time>2014-01-12T13:45:31Z</time>
      </trkpt>
      <trkpt lat="45.640241280198097" lon="7.879973687231541">
        <ele>1471.9200000000001</ele>
        <time>2014-01-12T13:45:45Z</time>
      </trkpt>
      <trkpt lat="45.640186378732324" lon="7.879823064431548">
        <ele>1468.55</ele>
        <time>2014-01-12T13:45:55Z</time>
      </trkpt>
      <trkpt lat="45.640181936323643" lon="7.87979138083756">
        <ele>1468.0699999999999</ele>
        <time>2014-01-12T13:45:57Z</time>
      </trkpt>
      <trkpt lat="45.64018277451396" lon="7.879699096083641">
        <ele>1465.1900000000001</ele>
        <time>2014-01-12T13:46:03Z</time>
      </trkpt>
      <trkpt lat="45.640182858332992" lon="7.879603626206517">
        <ele>1462.78</ele>
        <time>2014-01-12T13:46:08Z</time>
      </trkpt>
      <trkpt lat="45.640262318775058" lon="7.879463983699679">
        <ele>1459.9000000000001</ele>
        <time>2014-01-12T13:46:19Z</time>
      </trkpt>
      <trkpt lat="45.640338007360697" lon="7.879387540742755">
        <ele>1456.53</ele>
        <time>2014-01-12T13:46:29Z</time>
      </trkpt>
      <trkpt lat="45.640329541638494" lon="7.879384607076645">
        <ele>1455.5699999999999</ele>
        <time>2014-01-12T13:46:40Z</time>
      </trkpt>
      <trkpt lat="45.640330798923969" lon="7.87939072586596">
        <ele>1456.05</ele>
        <time>2014-01-12T13:46:54Z</time>
      </trkpt>
      <trkpt lat="45.640324261039495" lon="7.879430707544088">
        <ele>1455.5699999999999</ele>
        <time>2014-01-12T13:47:12Z</time>
      </trkpt>
      <trkpt lat="45.640312694013119" lon="7.879400365054607">
        <ele>1456.05</ele>
        <time>2014-01-12T13:47:30Z</time>
      </trkpt>
      <trkpt lat="45.640347059816122" lon="7.879337165504694">
        <ele>1455.5699999999999</ele>
        <time>2014-01-12T13:47:43Z</time>
      </trkpt>
      <trkpt lat="45.64032694324851" lon="7.879335153847933">
        <ele>1455.5699999999999</ele>
        <time>2014-01-12T13:47:52Z</time>
      </trkpt>
      <trkpt lat="45.640286207199097" lon="7.879260806366801">
        <ele>1454.6099999999999</ele>
        <time>2014-01-12T13:48:07Z</time>
      </trkpt>
      <trkpt lat="45.640278244391084" lon="7.879298189654946">
        <ele>1454.6099999999999</ele>
        <time>2014-01-12T13:48:27Z</time>
      </trkpt>
      <trkpt lat="45.640275813639164" lon="7.879304056987166">
        <ele>1454.6099999999999</ele>
        <time>2014-01-12T13:48:48Z</time>
      </trkpt>
      <trkpt lat="45.640272125601768" lon="7.879275055602193">
        <ele>1454.6099999999999</ele>
        <time>2014-01-12T13:49:03Z</time>
      </trkpt>
      <trkpt lat="45.640295594930649" lon="7.879269607365131">
        <ele>1454.6099999999999</ele>
        <time>2014-01-12T13:49:17Z</time>
      </trkpt>
      <trkpt lat="45.640313364565372" lon="7.879255609586835">
        <ele>1454.6099999999999</ele>
        <time>2014-01-12T13:49:25Z</time>
      </trkpt>
      <trkpt lat="45.640317890793085" lon="7.879266003146768">
        <ele>1454.6099999999999</ele>
        <time>2014-01-12T13:49:40Z</time>
      </trkpt>
      <trkpt lat="45.640276065096259" lon="7.879322748631239">
        <ele>1455.0899999999999</ele>
        <time>2014-01-12T13:49:59Z</time>
      </trkpt>
    </trkseg>
  </trk>

</gpx>